<?xml version="1.0" encoding="UTF-8" standalone="no" ?>
<gpx xmlns="http://www.topografix.com/GPX/1/1" xmlns:xsi="http://www.w3.org/2001/XMLSchema-instance" xsi:schemaLocation="http://www.topografix.com/GPX/1/1 http://www.topografix.com/GPX/1/1/gpx.xsd" version="1.1" creator="VisuGPX - https://www.visugpx.com">
  <metadata>
    <name>Rando organisée Saint-Alban-d'Ay</name>
    <desc><![CDATA[rando organisée par le sou des écoles de st roch.
Très belle et difficile rando qui mène au sommet de la roche des vents avec des descentes très techniques dans des pierriers. Ne pas la faire dans l'autre sens car la montée est trop raide]]></desc>
  </metadata>
  <trk>
    <name><![CDATA[Rando organisée Saint-Alban-d'Ay]]></name>
    <trkseg>
      <trkpt lat="45.18745" lon="4.63703">
        <ele>487.79998779297</ele>
        <time>2022-03-06T08:16:50Z</time>
      </trkpt>
      <trkpt lat="45.18745" lon="4.63703">
        <ele>492.79998779297</ele>
        <time>2022-03-06T08:16:51Z</time>
      </trkpt>
      <trkpt lat="45.18744" lon="4.63698">
        <ele>492.39999389648</ele>
        <time>2022-03-06T08:16:55Z</time>
      </trkpt>
      <trkpt lat="45.18743" lon="4.63691">
        <ele>492</ele>
        <time>2022-03-06T08:17:06Z</time>
      </trkpt>
      <trkpt lat="45.18742" lon="4.63696">
        <ele>491.60000610352</ele>
        <time>2022-03-06T08:17:57Z</time>
      </trkpt>
      <trkpt lat="45.1874" lon="4.63701">
        <ele>491.39999389648</ele>
        <time>2022-03-06T08:18:14Z</time>
      </trkpt>
      <trkpt lat="45.18739" lon="4.63702">
        <ele>491.39999389648</ele>
        <time>2022-03-06T08:18:26Z</time>
      </trkpt>
      <trkpt lat="45.1873" lon="4.63708">
        <ele>491</ele>
        <time>2022-03-06T08:18:34Z</time>
      </trkpt>
      <trkpt lat="45.18708" lon="4.63724">
        <ele>490</ele>
        <time>2022-03-06T08:18:43Z</time>
      </trkpt>
      <trkpt lat="45.18707" lon="4.63726">
        <ele>488.79998779297</ele>
        <time>2022-03-06T08:18:55Z</time>
      </trkpt>
      <trkpt lat="45.18712" lon="4.63734">
        <ele>488.60000610352</ele>
        <time>2022-03-06T08:19:00Z</time>
      </trkpt>
      <trkpt lat="45.18723" lon="4.63747">
        <ele>488.60000610352</ele>
        <time>2022-03-06T08:19:03Z</time>
      </trkpt>
      <trkpt lat="45.18748" lon="4.63771">
        <ele>487.39999389648</ele>
        <time>2022-03-06T08:19:08Z</time>
      </trkpt>
      <trkpt lat="45.18755" lon="4.63773">
        <ele>487.20001220703</ele>
        <time>2022-03-06T08:19:09Z</time>
      </trkpt>
      <trkpt lat="45.18803" lon="4.63766">
        <ele>485.60000610352</ele>
        <time>2022-03-06T08:19:18Z</time>
      </trkpt>
      <trkpt lat="45.18823" lon="4.63766">
        <ele>485.39999389648</ele>
        <time>2022-03-06T08:19:22Z</time>
      </trkpt>
      <trkpt lat="45.18873" lon="4.6379">
        <ele>484</ele>
        <time>2022-03-06T08:19:32Z</time>
      </trkpt>
      <trkpt lat="45.18901" lon="4.6382">
        <ele>482.20001220703</ele>
        <time>2022-03-06T08:19:44Z</time>
      </trkpt>
      <trkpt lat="45.1892" lon="4.63897">
        <ele>480.60000610352</ele>
        <time>2022-03-06T08:19:55Z</time>
      </trkpt>
      <trkpt lat="45.18925" lon="4.63922">
        <ele>479.79998779297</ele>
        <time>2022-03-06T08:19:58Z</time>
      </trkpt>
      <trkpt lat="45.1895" lon="4.63961">
        <ele>478.79998779297</ele>
        <time>2022-03-06T08:20:04Z</time>
      </trkpt>
      <trkpt lat="45.18996" lon="4.64011">
        <ele>476.39999389648</ele>
        <time>2022-03-06T08:20:14Z</time>
      </trkpt>
      <trkpt lat="45.19032" lon="4.64072">
        <ele>474.20001220703</ele>
        <time>2022-03-06T08:20:25Z</time>
      </trkpt>
      <trkpt lat="45.19089" lon="4.64159">
        <ele>471.60000610352</ele>
        <time>2022-03-06T08:20:38Z</time>
      </trkpt>
      <trkpt lat="45.19093" lon="4.64165">
        <ele>471.39999389648</ele>
        <time>2022-03-06T08:20:39Z</time>
      </trkpt>
      <trkpt lat="45.19099" lon="4.64176">
        <ele>470.79998779297</ele>
        <time>2022-03-06T08:20:41Z</time>
      </trkpt>
      <trkpt lat="45.19136" lon="4.64262">
        <ele>468.60000610352</ele>
        <time>2022-03-06T08:20:56Z</time>
      </trkpt>
      <trkpt lat="45.19182" lon="4.64384">
        <ele>468</ele>
        <time>2022-03-06T08:21:15Z</time>
      </trkpt>
      <trkpt lat="45.19196" lon="4.644">
        <ele>467.79998779297</ele>
        <time>2022-03-06T08:21:19Z</time>
      </trkpt>
      <trkpt lat="45.19255" lon="4.64476">
        <ele>467.60000610352</ele>
        <time>2022-03-06T08:21:36Z</time>
      </trkpt>
      <trkpt lat="45.19281" lon="4.64508">
        <ele>467</ele>
        <time>2022-03-06T08:21:43Z</time>
      </trkpt>
      <trkpt lat="45.19345" lon="4.64564">
        <ele>466.39999389648</ele>
        <time>2022-03-06T08:21:57Z</time>
      </trkpt>
      <trkpt lat="45.19447" lon="4.64623">
        <ele>464.20001220703</ele>
        <time>2022-03-06T08:22:17Z</time>
      </trkpt>
      <trkpt lat="45.19537" lon="4.64672">
        <ele>465.39999389648</ele>
        <time>2022-03-06T08:22:38Z</time>
      </trkpt>
      <trkpt lat="45.19596" lon="4.64716">
        <ele>466.60000610352</ele>
        <time>2022-03-06T08:22:54Z</time>
      </trkpt>
      <trkpt lat="45.19638" lon="4.64748">
        <ele>467.20001220703</ele>
        <time>2022-03-06T08:23:05Z</time>
      </trkpt>
      <trkpt lat="45.19697" lon="4.64776">
        <ele>467.79998779297</ele>
        <time>2022-03-06T08:23:20Z</time>
      </trkpt>
      <trkpt lat="45.19763" lon="4.64831">
        <ele>466.79998779297</ele>
        <time>2022-03-06T08:23:36Z</time>
      </trkpt>
      <trkpt lat="45.19813" lon="4.64864">
        <ele>466.79998779297</ele>
        <time>2022-03-06T08:23:49Z</time>
      </trkpt>
      <trkpt lat="45.19876" lon="4.64902">
        <ele>466.39999389648</ele>
        <time>2022-03-06T08:24:04Z</time>
      </trkpt>
      <trkpt lat="45.19913" lon="4.64914">
        <ele>466.20001220703</ele>
        <time>2022-03-06T08:24:13Z</time>
      </trkpt>
      <trkpt lat="45.19949" lon="4.64931">
        <ele>466.39999389648</ele>
        <time>2022-03-06T08:24:22Z</time>
      </trkpt>
      <trkpt lat="45.20054" lon="4.64984">
        <ele>465.79998779297</ele>
        <time>2022-03-06T08:24:47Z</time>
      </trkpt>
      <trkpt lat="45.20117" lon="4.6502">
        <ele>466.79998779297</ele>
        <time>2022-03-06T08:25:04Z</time>
      </trkpt>
      <trkpt lat="45.20196" lon="4.65022">
        <ele>467</ele>
        <time>2022-03-06T08:25:23Z</time>
      </trkpt>
      <trkpt lat="45.20238" lon="4.65035">
        <ele>465.60000610352</ele>
        <time>2022-03-06T08:25:31Z</time>
      </trkpt>
      <trkpt lat="45.20304" lon="4.6507">
        <ele>463.60000610352</ele>
        <time>2022-03-06T08:25:40Z</time>
      </trkpt>
      <trkpt lat="45.20338" lon="4.6509">
        <ele>460.20001220703</ele>
        <time>2022-03-06T08:25:45Z</time>
      </trkpt>
      <trkpt lat="45.20345" lon="4.65094">
        <ele>460</ele>
        <time>2022-03-06T08:25:46Z</time>
      </trkpt>
      <trkpt lat="45.20429" lon="4.65137">
        <ele>456.79998779297</ele>
        <time>2022-03-06T08:25:58Z</time>
      </trkpt>
      <trkpt lat="45.20484" lon="4.65124">
        <ele>454.39999389648</ele>
        <time>2022-03-06T08:26:06Z</time>
      </trkpt>
      <trkpt lat="45.20499" lon="4.65113">
        <ele>453.79998779297</ele>
        <time>2022-03-06T08:26:09Z</time>
      </trkpt>
      <trkpt lat="45.20535" lon="4.6508">
        <ele>453.79998779297</ele>
        <time>2022-03-06T08:26:22Z</time>
      </trkpt>
      <trkpt lat="45.20537" lon="4.65079">
        <ele>454</ele>
        <time>2022-03-06T08:26:23Z</time>
      </trkpt>
      <trkpt lat="45.20539" lon="4.65077">
        <ele>454.60000610352</ele>
        <time>2022-03-06T08:26:37Z</time>
      </trkpt>
      <trkpt lat="45.20539" lon="4.65077">
        <ele>454.79998779297</ele>
        <time>2022-03-06T08:27:29Z</time>
      </trkpt>
      <trkpt lat="45.20553" lon="4.65075">
        <ele>454.79998779297</ele>
        <time>2022-03-06T08:27:35Z</time>
      </trkpt>
      <trkpt lat="45.20605" lon="4.65064">
        <ele>453.20001220703</ele>
        <time>2022-03-06T08:27:49Z</time>
      </trkpt>
      <trkpt lat="45.20641" lon="4.65054">
        <ele>452.60000610352</ele>
        <time>2022-03-06T08:27:57Z</time>
      </trkpt>
      <trkpt lat="45.20662" lon="4.65049">
        <ele>452.60000610352</ele>
        <time>2022-03-06T08:28:01Z</time>
      </trkpt>
      <trkpt lat="45.20707" lon="4.6506">
        <ele>452.20001220703</ele>
        <time>2022-03-06T08:28:09Z</time>
      </trkpt>
      <trkpt lat="45.20739" lon="4.65077">
        <ele>451.60000610352</ele>
        <time>2022-03-06T08:28:14Z</time>
      </trkpt>
      <trkpt lat="45.20772" lon="4.65079">
        <ele>450.20001220703</ele>
        <time>2022-03-06T08:28:19Z</time>
      </trkpt>
      <trkpt lat="45.20791" lon="4.65075">
        <ele>449</ele>
        <time>2022-03-06T08:28:22Z</time>
      </trkpt>
      <trkpt lat="45.20805" lon="4.65078">
        <ele>448.79998779297</ele>
        <time>2022-03-06T08:28:24Z</time>
      </trkpt>
      <trkpt lat="45.20851" lon="4.65105">
        <ele>447.39999389648</ele>
        <time>2022-03-06T08:28:31Z</time>
      </trkpt>
      <trkpt lat="45.20902" lon="4.65111">
        <ele>446</ele>
        <time>2022-03-06T08:28:39Z</time>
      </trkpt>
      <trkpt lat="45.20931" lon="4.65099">
        <ele>445.39999389648</ele>
        <time>2022-03-06T08:28:44Z</time>
      </trkpt>
      <trkpt lat="45.21001" lon="4.65094">
        <ele>444.79998779297</ele>
        <time>2022-03-06T08:28:56Z</time>
      </trkpt>
      <trkpt lat="45.21092" lon="4.65117">
        <ele>445.39999389648</ele>
        <time>2022-03-06T08:29:14Z</time>
      </trkpt>
      <trkpt lat="45.21103" lon="4.65122">
        <ele>445.79998779297</ele>
        <time>2022-03-06T08:29:17Z</time>
      </trkpt>
      <trkpt lat="45.21153" lon="4.65099">
        <ele>446.60000610352</ele>
        <time>2022-03-06T08:29:29Z</time>
      </trkpt>
      <trkpt lat="45.21156" lon="4.65094">
        <ele>446.60000610352</ele>
        <time>2022-03-06T08:29:30Z</time>
      </trkpt>
      <trkpt lat="45.21169" lon="4.65075">
        <ele>446.39999389648</ele>
        <time>2022-03-06T08:29:34Z</time>
      </trkpt>
      <trkpt lat="45.21173" lon="4.65065">
        <ele>446.39999389648</ele>
        <time>2022-03-06T08:29:36Z</time>
      </trkpt>
      <trkpt lat="45.21189" lon="4.65038">
        <ele>446.39999389648</ele>
        <time>2022-03-06T08:29:41Z</time>
      </trkpt>
      <trkpt lat="45.21203" lon="4.64983">
        <ele>446</ele>
        <time>2022-03-06T08:29:48Z</time>
      </trkpt>
      <trkpt lat="45.21219" lon="4.64929">
        <ele>445.39999389648</ele>
        <time>2022-03-06T08:29:56Z</time>
      </trkpt>
      <trkpt lat="45.21219" lon="4.64865">
        <ele>447.79998779297</ele>
        <time>2022-03-06T08:30:09Z</time>
      </trkpt>
      <trkpt lat="45.21217" lon="4.64833">
        <ele>449</ele>
        <time>2022-03-06T08:30:15Z</time>
      </trkpt>
      <trkpt lat="45.21221" lon="4.64808">
        <ele>449.20001220703</ele>
        <time>2022-03-06T08:30:19Z</time>
      </trkpt>
      <trkpt lat="45.21244" lon="4.64788">
        <ele>449</ele>
        <time>2022-03-06T08:30:25Z</time>
      </trkpt>
      <trkpt lat="45.21282" lon="4.64783">
        <ele>451</ele>
        <time>2022-03-06T08:30:38Z</time>
      </trkpt>
      <trkpt lat="45.21315" lon="4.64777">
        <ele>454</ele>
        <time>2022-03-06T08:30:50Z</time>
      </trkpt>
      <trkpt lat="45.21357" lon="4.6476">
        <ele>456.60000610352</ele>
        <time>2022-03-06T08:31:05Z</time>
      </trkpt>
      <trkpt lat="45.21401" lon="4.64732">
        <ele>458.60000610352</ele>
        <time>2022-03-06T08:31:21Z</time>
      </trkpt>
      <trkpt lat="45.21435" lon="4.64728">
        <ele>461.60000610352</ele>
        <time>2022-03-06T08:31:34Z</time>
      </trkpt>
      <trkpt lat="45.21487" lon="4.64725">
        <ele>464.20001220703</ele>
        <time>2022-03-06T08:31:52Z</time>
      </trkpt>
      <trkpt lat="45.2153" lon="4.64722">
        <ele>466.60000610352</ele>
        <time>2022-03-06T08:32:07Z</time>
      </trkpt>
      <trkpt lat="45.21563" lon="4.64728">
        <ele>468.79998779297</ele>
        <time>2022-03-06T08:32:20Z</time>
      </trkpt>
      <trkpt lat="45.21591" lon="4.6471">
        <ele>472</ele>
        <time>2022-03-06T08:32:33Z</time>
      </trkpt>
      <trkpt lat="45.21621" lon="4.6467">
        <ele>474.60000610352</ele>
        <time>2022-03-06T08:32:48Z</time>
      </trkpt>
      <trkpt lat="45.21646" lon="4.64615">
        <ele>476.20001220703</ele>
        <time>2022-03-06T08:33:04Z</time>
      </trkpt>
      <trkpt lat="45.21669" lon="4.64569">
        <ele>478.20001220703</ele>
        <time>2022-03-06T08:33:18Z</time>
      </trkpt>
      <trkpt lat="45.21678" lon="4.64487">
        <ele>478.79998779297</ele>
        <time>2022-03-06T08:33:36Z</time>
      </trkpt>
      <trkpt lat="45.21674" lon="4.64425">
        <ele>480.60000610352</ele>
        <time>2022-03-06T08:33:53Z</time>
      </trkpt>
      <trkpt lat="45.21635" lon="4.64407">
        <ele>481.79998779297</ele>
        <time>2022-03-06T08:34:08Z</time>
      </trkpt>
      <trkpt lat="45.21635" lon="4.64393">
        <ele>482</ele>
        <time>2022-03-06T08:34:12Z</time>
      </trkpt>
      <trkpt lat="45.21652" lon="4.64317">
        <ele>483.79998779297</ele>
        <time>2022-03-06T08:34:33Z</time>
      </trkpt>
      <trkpt lat="45.21665" lon="4.64263">
        <ele>487</ele>
        <time>2022-03-06T08:34:50Z</time>
      </trkpt>
      <trkpt lat="45.21674" lon="4.6422">
        <ele>489.79998779297</ele>
        <time>2022-03-06T08:35:06Z</time>
      </trkpt>
      <trkpt lat="45.21678" lon="4.64187">
        <ele>492.79998779297</ele>
        <time>2022-03-06T08:35:20Z</time>
      </trkpt>
      <trkpt lat="45.21679" lon="4.64174">
        <ele>494.60000610352</ele>
        <time>2022-03-06T08:35:27Z</time>
      </trkpt>
      <trkpt lat="45.2168" lon="4.64161">
        <ele>496.20001220703</ele>
        <time>2022-03-06T08:35:34Z</time>
      </trkpt>
      <trkpt lat="45.21678" lon="4.64147">
        <ele>498.39999389648</ele>
        <time>2022-03-06T08:35:43Z</time>
      </trkpt>
      <trkpt lat="45.21674" lon="4.64131">
        <ele>501.39999389648</ele>
        <time>2022-03-06T08:35:54Z</time>
      </trkpt>
      <trkpt lat="45.2167" lon="4.64119">
        <ele>503.60000610352</ele>
        <time>2022-03-06T08:36:02Z</time>
      </trkpt>
      <trkpt lat="45.21673" lon="4.64111">
        <ele>505.20001220703</ele>
        <time>2022-03-06T08:36:08Z</time>
      </trkpt>
      <trkpt lat="45.21682" lon="4.6411">
        <ele>506.20001220703</ele>
        <time>2022-03-06T08:36:16Z</time>
      </trkpt>
      <trkpt lat="45.21687" lon="4.64102">
        <ele>506.60000610352</ele>
        <time>2022-03-06T08:36:21Z</time>
      </trkpt>
      <trkpt lat="45.21694" lon="4.64098">
        <ele>508.39999389648</ele>
        <time>2022-03-06T08:36:30Z</time>
      </trkpt>
      <trkpt lat="45.21705" lon="4.64104">
        <ele>509</ele>
        <time>2022-03-06T08:36:36Z</time>
      </trkpt>
      <trkpt lat="45.21711" lon="4.64105">
        <ele>509.20001220703</ele>
        <time>2022-03-06T08:36:38Z</time>
      </trkpt>
      <trkpt lat="45.21713" lon="4.64105">
        <ele>509.39999389648</ele>
        <time>2022-03-06T08:36:40Z</time>
      </trkpt>
      <trkpt lat="45.21729" lon="4.64108">
        <ele>510.20001220703</ele>
        <time>2022-03-06T08:36:46Z</time>
      </trkpt>
      <trkpt lat="45.21738" lon="4.64113">
        <ele>510.39999389648</ele>
        <time>2022-03-06T08:36:49Z</time>
      </trkpt>
      <trkpt lat="45.21742" lon="4.64112">
        <ele>510.60000610352</ele>
        <time>2022-03-06T08:36:52Z</time>
      </trkpt>
      <trkpt lat="45.21752" lon="4.64115">
        <ele>511.60000610352</ele>
        <time>2022-03-06T08:36:59Z</time>
      </trkpt>
      <trkpt lat="45.2177" lon="4.64114">
        <ele>513</ele>
        <time>2022-03-06T08:37:08Z</time>
      </trkpt>
      <trkpt lat="45.21785" lon="4.64117">
        <ele>514</ele>
        <time>2022-03-06T08:37:15Z</time>
      </trkpt>
      <trkpt lat="45.21805" lon="4.64121">
        <ele>515.20001220703</ele>
        <time>2022-03-06T08:37:22Z</time>
      </trkpt>
      <trkpt lat="45.21817" lon="4.64113">
        <ele>515.79998779297</ele>
        <time>2022-03-06T08:37:27Z</time>
      </trkpt>
      <trkpt lat="45.21834" lon="4.6411">
        <ele>517.59997558594</ele>
        <time>2022-03-06T08:37:36Z</time>
      </trkpt>
      <trkpt lat="45.21837" lon="4.64111">
        <ele>517.79998779297</ele>
        <time>2022-03-06T08:37:38Z</time>
      </trkpt>
      <trkpt lat="45.2185" lon="4.64106">
        <ele>519.40002441406</ele>
        <time>2022-03-06T08:37:45Z</time>
      </trkpt>
      <trkpt lat="45.21859" lon="4.64103">
        <ele>520.59997558594</ele>
        <time>2022-03-06T08:37:50Z</time>
      </trkpt>
      <trkpt lat="45.21869" lon="4.64097">
        <ele>523</ele>
        <time>2022-03-06T08:37:57Z</time>
      </trkpt>
      <trkpt lat="45.21875" lon="4.64092">
        <ele>523.20001220703</ele>
        <time>2022-03-06T08:37:59Z</time>
      </trkpt>
      <trkpt lat="45.21876" lon="4.64082">
        <ele>524</ele>
        <time>2022-03-06T08:38:03Z</time>
      </trkpt>
      <trkpt lat="45.21885" lon="4.64073">
        <ele>526.20001220703</ele>
        <time>2022-03-06T08:38:10Z</time>
      </trkpt>
      <trkpt lat="45.21885" lon="4.64067">
        <ele>527</ele>
        <time>2022-03-06T08:38:13Z</time>
      </trkpt>
      <trkpt lat="45.21881" lon="4.64052">
        <ele>528.20001220703</ele>
        <time>2022-03-06T08:38:23Z</time>
      </trkpt>
      <trkpt lat="45.21879" lon="4.6404">
        <ele>531.40002441406</ele>
        <time>2022-03-06T08:38:30Z</time>
      </trkpt>
      <trkpt lat="45.21882" lon="4.64028">
        <ele>533.40002441406</ele>
        <time>2022-03-06T08:38:38Z</time>
      </trkpt>
      <trkpt lat="45.21881" lon="4.64008">
        <ele>536</ele>
        <time>2022-03-06T08:38:48Z</time>
      </trkpt>
      <trkpt lat="45.21879" lon="4.63987">
        <ele>538</ele>
        <time>2022-03-06T08:38:57Z</time>
      </trkpt>
      <trkpt lat="45.21878" lon="4.63983">
        <ele>538.79998779297</ele>
        <time>2022-03-06T08:39:01Z</time>
      </trkpt>
      <trkpt lat="45.2188" lon="4.63978">
        <ele>540</ele>
        <time>2022-03-06T08:39:06Z</time>
      </trkpt>
      <trkpt lat="45.21885" lon="4.63969">
        <ele>543</ele>
        <time>2022-03-06T08:39:15Z</time>
      </trkpt>
      <trkpt lat="45.21888" lon="4.63964">
        <ele>546.20001220703</ele>
        <time>2022-03-06T08:39:31Z</time>
      </trkpt>
      <trkpt lat="45.2189" lon="4.63959">
        <ele>547.79998779297</ele>
        <time>2022-03-06T08:39:42Z</time>
      </trkpt>
      <trkpt lat="45.21895" lon="4.63943">
        <ele>549</ele>
        <time>2022-03-06T08:39:51Z</time>
      </trkpt>
      <trkpt lat="45.21898" lon="4.63934">
        <ele>550.79998779297</ele>
        <time>2022-03-06T08:40:01Z</time>
      </trkpt>
      <trkpt lat="45.21898" lon="4.63932">
        <ele>551.20001220703</ele>
        <time>2022-03-06T08:40:03Z</time>
      </trkpt>
      <trkpt lat="45.219" lon="4.63924">
        <ele>553.59997558594</ele>
        <time>2022-03-06T08:40:15Z</time>
      </trkpt>
      <trkpt lat="45.21902" lon="4.63922">
        <ele>553.79998779297</ele>
        <time>2022-03-06T08:40:18Z</time>
      </trkpt>
      <trkpt lat="45.21903" lon="4.63918">
        <ele>554.79998779297</ele>
        <time>2022-03-06T08:40:23Z</time>
      </trkpt>
      <trkpt lat="45.21907" lon="4.63907">
        <ele>557.20001220703</ele>
        <time>2022-03-06T08:40:37Z</time>
      </trkpt>
      <trkpt lat="45.21916" lon="4.63896">
        <ele>557.59997558594</ele>
        <time>2022-03-06T08:40:45Z</time>
      </trkpt>
      <trkpt lat="45.21922" lon="4.6389">
        <ele>558.40002441406</ele>
        <time>2022-03-06T08:40:50Z</time>
      </trkpt>
      <trkpt lat="45.21925" lon="4.63876">
        <ele>558.79998779297</ele>
        <time>2022-03-06T08:40:56Z</time>
      </trkpt>
      <trkpt lat="45.2193" lon="4.63847">
        <ele>559.20001220703</ele>
        <time>2022-03-06T08:41:05Z</time>
      </trkpt>
      <trkpt lat="45.21913" lon="4.63811">
        <ele>559.20001220703</ele>
        <time>2022-03-06T08:41:13Z</time>
      </trkpt>
      <trkpt lat="45.21908" lon="4.63807">
        <ele>559</ele>
        <time>2022-03-06T08:41:15Z</time>
      </trkpt>
      <trkpt lat="45.21891" lon="4.63792">
        <ele>559.79998779297</ele>
        <time>2022-03-06T08:41:24Z</time>
      </trkpt>
      <trkpt lat="45.21882" lon="4.63788">
        <ele>560.20001220703</ele>
        <time>2022-03-06T08:41:27Z</time>
      </trkpt>
      <trkpt lat="45.21874" lon="4.63774">
        <ele>561.20001220703</ele>
        <time>2022-03-06T08:41:33Z</time>
      </trkpt>
      <trkpt lat="45.21864" lon="4.63753">
        <ele>563.40002441406</ele>
        <time>2022-03-06T08:41:46Z</time>
      </trkpt>
      <trkpt lat="45.21846" lon="4.63732">
        <ele>566</ele>
        <time>2022-03-06T08:41:58Z</time>
      </trkpt>
      <trkpt lat="45.21836" lon="4.63715">
        <ele>568.20001220703</ele>
        <time>2022-03-06T08:42:08Z</time>
      </trkpt>
      <trkpt lat="45.21835" lon="4.63712">
        <ele>568.59997558594</ele>
        <time>2022-03-06T08:42:10Z</time>
      </trkpt>
      <trkpt lat="45.21828" lon="4.637">
        <ele>570.79998779297</ele>
        <time>2022-03-06T08:42:17Z</time>
      </trkpt>
      <trkpt lat="45.21822" lon="4.63687">
        <ele>573.79998779297</ele>
        <time>2022-03-06T08:42:25Z</time>
      </trkpt>
      <trkpt lat="45.21819" lon="4.63679">
        <ele>577.20001220703</ele>
        <time>2022-03-06T08:42:34Z</time>
      </trkpt>
      <trkpt lat="45.21815" lon="4.63669">
        <ele>579.40002441406</ele>
        <time>2022-03-06T08:42:40Z</time>
      </trkpt>
      <trkpt lat="45.21816" lon="4.63662">
        <ele>580.20001220703</ele>
        <time>2022-03-06T08:42:43Z</time>
      </trkpt>
      <trkpt lat="45.21815" lon="4.63651">
        <ele>581.79998779297</ele>
        <time>2022-03-06T08:42:48Z</time>
      </trkpt>
      <trkpt lat="45.21815" lon="4.63648">
        <ele>582</ele>
        <time>2022-03-06T08:42:49Z</time>
      </trkpt>
      <trkpt lat="45.21817" lon="4.6364">
        <ele>582.59997558594</ele>
        <time>2022-03-06T08:42:53Z</time>
      </trkpt>
      <trkpt lat="45.21818" lon="4.63635">
        <ele>583.20001220703</ele>
        <time>2022-03-06T08:42:55Z</time>
      </trkpt>
      <trkpt lat="45.21819" lon="4.63624">
        <ele>584.20001220703</ele>
        <time>2022-03-06T08:43:01Z</time>
      </trkpt>
      <trkpt lat="45.21825" lon="4.63611">
        <ele>585.59997558594</ele>
        <time>2022-03-06T08:43:12Z</time>
      </trkpt>
      <trkpt lat="45.21826" lon="4.63603">
        <ele>585.79998779297</ele>
        <time>2022-03-06T08:43:16Z</time>
      </trkpt>
      <trkpt lat="45.21832" lon="4.6359">
        <ele>586.79998779297</ele>
        <time>2022-03-06T08:43:23Z</time>
      </trkpt>
      <trkpt lat="45.2183" lon="4.63586">
        <ele>587.20001220703</ele>
        <time>2022-03-06T08:43:25Z</time>
      </trkpt>
      <trkpt lat="45.21833" lon="4.63578">
        <ele>588.59997558594</ele>
        <time>2022-03-06T08:43:29Z</time>
      </trkpt>
      <trkpt lat="45.21836" lon="4.63569">
        <ele>589.79998779297</ele>
        <time>2022-03-06T08:43:34Z</time>
      </trkpt>
      <trkpt lat="45.21828" lon="4.63558">
        <ele>591.59997558594</ele>
        <time>2022-03-06T08:43:41Z</time>
      </trkpt>
      <trkpt lat="45.21819" lon="4.63548">
        <ele>594.59997558594</ele>
        <time>2022-03-06T08:43:52Z</time>
      </trkpt>
      <trkpt lat="45.21812" lon="4.63546">
        <ele>597</ele>
        <time>2022-03-06T08:44:01Z</time>
      </trkpt>
      <trkpt lat="45.21806" lon="4.63543">
        <ele>598.40002441406</ele>
        <time>2022-03-06T08:44:06Z</time>
      </trkpt>
      <trkpt lat="45.21795" lon="4.6354">
        <ele>601.40002441406</ele>
        <time>2022-03-06T08:44:16Z</time>
      </trkpt>
      <trkpt lat="45.21789" lon="4.6354">
        <ele>603</ele>
        <time>2022-03-06T08:44:28Z</time>
      </trkpt>
      <trkpt lat="45.21788" lon="4.63541">
        <ele>603</ele>
        <time>2022-03-06T08:44:29Z</time>
      </trkpt>
      <trkpt lat="45.21786" lon="4.63542">
        <ele>603.20001220703</ele>
        <time>2022-03-06T08:44:32Z</time>
      </trkpt>
      <trkpt lat="45.21777" lon="4.63542">
        <ele>604.40002441406</ele>
        <time>2022-03-06T08:44:40Z</time>
      </trkpt>
      <trkpt lat="45.21775" lon="4.63541">
        <ele>605.20001220703</ele>
        <time>2022-03-06T08:44:43Z</time>
      </trkpt>
      <trkpt lat="45.21764" lon="4.63536">
        <ele>605.79998779297</ele>
        <time>2022-03-06T08:44:51Z</time>
      </trkpt>
      <trkpt lat="45.2176" lon="4.6353">
        <ele>606.20001220703</ele>
        <time>2022-03-06T08:44:55Z</time>
      </trkpt>
      <trkpt lat="45.21748" lon="4.63513">
        <ele>607.79998779297</ele>
        <time>2022-03-06T08:45:08Z</time>
      </trkpt>
      <trkpt lat="45.21747" lon="4.63511">
        <ele>608</ele>
        <time>2022-03-06T08:45:09Z</time>
      </trkpt>
      <trkpt lat="45.2174" lon="4.63492">
        <ele>609.79998779297</ele>
        <time>2022-03-06T08:45:18Z</time>
      </trkpt>
      <trkpt lat="45.21718" lon="4.6348">
        <ele>610.79998779297</ele>
        <time>2022-03-06T08:45:28Z</time>
      </trkpt>
      <trkpt lat="45.21683" lon="4.63467">
        <ele>611.20001220703</ele>
        <time>2022-03-06T08:45:43Z</time>
      </trkpt>
      <trkpt lat="45.21664" lon="4.63451">
        <ele>612.40002441406</ele>
        <time>2022-03-06T08:45:51Z</time>
      </trkpt>
      <trkpt lat="45.21635" lon="4.63429">
        <ele>613.79998779297</ele>
        <time>2022-03-06T08:46:04Z</time>
      </trkpt>
      <trkpt lat="45.2161" lon="4.63423">
        <ele>614.20001220703</ele>
        <time>2022-03-06T08:46:12Z</time>
      </trkpt>
      <trkpt lat="45.21567" lon="4.63381">
        <ele>612</ele>
        <time>2022-03-06T08:46:20Z</time>
      </trkpt>
      <trkpt lat="45.2154" lon="4.63314">
        <ele>608.79998779297</ele>
        <time>2022-03-06T08:46:27Z</time>
      </trkpt>
      <trkpt lat="45.21535" lon="4.63308">
        <ele>608.59997558594</ele>
        <time>2022-03-06T08:46:28Z</time>
      </trkpt>
      <trkpt lat="45.21521" lon="4.63289">
        <ele>606.79998779297</ele>
        <time>2022-03-06T08:46:31Z</time>
      </trkpt>
      <trkpt lat="45.21517" lon="4.63284">
        <ele>606.59997558594</ele>
        <time>2022-03-06T08:46:32Z</time>
      </trkpt>
      <trkpt lat="45.21495" lon="4.63258">
        <ele>606.40002441406</ele>
        <time>2022-03-06T08:46:39Z</time>
      </trkpt>
      <trkpt lat="45.21504" lon="4.63246">
        <ele>607</ele>
        <time>2022-03-06T08:46:43Z</time>
      </trkpt>
      <trkpt lat="45.21512" lon="4.63237">
        <ele>607.59997558594</ele>
        <time>2022-03-06T08:46:46Z</time>
      </trkpt>
      <trkpt lat="45.21505" lon="4.63215">
        <ele>607.79998779297</ele>
        <time>2022-03-06T08:46:52Z</time>
      </trkpt>
      <trkpt lat="45.21469" lon="4.6318">
        <ele>609.59997558594</ele>
        <time>2022-03-06T08:47:06Z</time>
      </trkpt>
      <trkpt lat="45.21464" lon="4.6318">
        <ele>610</ele>
        <time>2022-03-06T08:47:08Z</time>
      </trkpt>
      <trkpt lat="45.21447" lon="4.63164">
        <ele>610.79998779297</ele>
        <time>2022-03-06T08:47:13Z</time>
      </trkpt>
      <trkpt lat="45.21433" lon="4.63143">
        <ele>611</ele>
        <time>2022-03-06T08:47:18Z</time>
      </trkpt>
      <trkpt lat="45.2142" lon="4.63135">
        <ele>611.79998779297</ele>
        <time>2022-03-06T08:47:25Z</time>
      </trkpt>
      <trkpt lat="45.21419" lon="4.63135">
        <ele>612.20001220703</ele>
        <time>2022-03-06T08:47:26Z</time>
      </trkpt>
      <trkpt lat="45.21405" lon="4.6312">
        <ele>614.20001220703</ele>
        <time>2022-03-06T08:47:35Z</time>
      </trkpt>
      <trkpt lat="45.21401" lon="4.63117">
        <ele>614.79998779297</ele>
        <time>2022-03-06T08:47:38Z</time>
      </trkpt>
      <trkpt lat="45.21388" lon="4.63111">
        <ele>617</ele>
        <time>2022-03-06T08:47:48Z</time>
      </trkpt>
      <trkpt lat="45.21376" lon="4.63102">
        <ele>619.20001220703</ele>
        <time>2022-03-06T08:47:56Z</time>
      </trkpt>
      <trkpt lat="45.2136" lon="4.63092">
        <ele>620.20001220703</ele>
        <time>2022-03-06T08:48:03Z</time>
      </trkpt>
      <trkpt lat="45.21357" lon="4.63089">
        <ele>621.20001220703</ele>
        <time>2022-03-06T08:48:06Z</time>
      </trkpt>
      <trkpt lat="45.21344" lon="4.63093">
        <ele>622.79998779297</ele>
        <time>2022-03-06T08:48:13Z</time>
      </trkpt>
      <trkpt lat="45.21335" lon="4.6309">
        <ele>623</ele>
        <time>2022-03-06T08:48:18Z</time>
      </trkpt>
      <trkpt lat="45.21313" lon="4.63066">
        <ele>623.40002441406</ele>
        <time>2022-03-06T08:48:30Z</time>
      </trkpt>
      <trkpt lat="45.213" lon="4.63039">
        <ele>624.79998779297</ele>
        <time>2022-03-06T08:48:40Z</time>
      </trkpt>
      <trkpt lat="45.21299" lon="4.63037">
        <ele>624.79998779297</ele>
        <time>2022-03-06T08:48:41Z</time>
      </trkpt>
      <trkpt lat="45.21297" lon="4.63014">
        <ele>625.79998779297</ele>
        <time>2022-03-06T08:48:48Z</time>
      </trkpt>
      <trkpt lat="45.21296" lon="4.62988">
        <ele>627</ele>
        <time>2022-03-06T08:48:56Z</time>
      </trkpt>
      <trkpt lat="45.21293" lon="4.62978">
        <ele>627.59997558594</ele>
        <time>2022-03-06T08:48:59Z</time>
      </trkpt>
      <trkpt lat="45.21294" lon="4.62961">
        <ele>628.20001220703</ele>
        <time>2022-03-06T08:49:04Z</time>
      </trkpt>
      <trkpt lat="45.21291" lon="4.62945">
        <ele>628.59997558594</ele>
        <time>2022-03-06T08:49:08Z</time>
      </trkpt>
      <trkpt lat="45.21287" lon="4.62927">
        <ele>628.79998779297</ele>
        <time>2022-03-06T08:49:12Z</time>
      </trkpt>
      <trkpt lat="45.21288" lon="4.62906">
        <ele>628.79998779297</ele>
        <time>2022-03-06T08:49:18Z</time>
      </trkpt>
      <trkpt lat="45.21287" lon="4.62863">
        <ele>629.40002441406</ele>
        <time>2022-03-06T08:49:30Z</time>
      </trkpt>
      <trkpt lat="45.21264" lon="4.62845">
        <ele>630.40002441406</ele>
        <time>2022-03-06T08:49:40Z</time>
      </trkpt>
      <trkpt lat="45.21247" lon="4.62837">
        <ele>630.40002441406</ele>
        <time>2022-03-06T08:49:47Z</time>
      </trkpt>
      <trkpt lat="45.21243" lon="4.62831">
        <ele>630.20001220703</ele>
        <time>2022-03-06T08:49:49Z</time>
      </trkpt>
      <trkpt lat="45.21241" lon="4.628">
        <ele>627.20001220703</ele>
        <time>2022-03-06T08:49:58Z</time>
      </trkpt>
      <trkpt lat="45.21239" lon="4.62794">
        <ele>627.20001220703</ele>
        <time>2022-03-06T08:49:59Z</time>
      </trkpt>
      <trkpt lat="45.21223" lon="4.62789">
        <ele>626</ele>
        <time>2022-03-06T08:50:04Z</time>
      </trkpt>
      <trkpt lat="45.21221" lon="4.62792">
        <ele>626</ele>
        <time>2022-03-06T08:50:05Z</time>
      </trkpt>
      <trkpt lat="45.21202" lon="4.62776">
        <ele>625.20001220703</ele>
        <time>2022-03-06T08:50:11Z</time>
      </trkpt>
      <trkpt lat="45.21202" lon="4.62771">
        <ele>625.20001220703</ele>
        <time>2022-03-06T08:50:12Z</time>
      </trkpt>
      <trkpt lat="45.21198" lon="4.62757">
        <ele>625</ele>
        <time>2022-03-06T08:50:15Z</time>
      </trkpt>
      <trkpt lat="45.21163" lon="4.62752">
        <ele>623.59997558594</ele>
        <time>2022-03-06T08:50:22Z</time>
      </trkpt>
      <trkpt lat="45.21149" lon="4.62752">
        <ele>621.79998779297</ele>
        <time>2022-03-06T08:50:26Z</time>
      </trkpt>
      <trkpt lat="45.21147" lon="4.62742">
        <ele>620.79998779297</ele>
        <time>2022-03-06T08:50:28Z</time>
      </trkpt>
      <trkpt lat="45.21146" lon="4.62733">
        <ele>619.40002441406</ele>
        <time>2022-03-06T08:50:31Z</time>
      </trkpt>
      <trkpt lat="45.21145" lon="4.62726">
        <ele>619.20001220703</ele>
        <time>2022-03-06T08:50:34Z</time>
      </trkpt>
      <trkpt lat="45.21138" lon="4.62713">
        <ele>620.59997558594</ele>
        <time>2022-03-06T08:50:42Z</time>
      </trkpt>
      <trkpt lat="45.21138" lon="4.6271">
        <ele>620.79998779297</ele>
        <time>2022-03-06T08:50:43Z</time>
      </trkpt>
      <trkpt lat="45.21126" lon="4.62693">
        <ele>620.79998779297</ele>
        <time>2022-03-06T08:50:49Z</time>
      </trkpt>
      <trkpt lat="45.2111" lon="4.62678">
        <ele>620.59997558594</ele>
        <time>2022-03-06T08:50:54Z</time>
      </trkpt>
      <trkpt lat="45.21107" lon="4.62664">
        <ele>619.40002441406</ele>
        <time>2022-03-06T08:50:58Z</time>
      </trkpt>
      <trkpt lat="45.21093" lon="4.6264">
        <ele>618</ele>
        <time>2022-03-06T08:51:04Z</time>
      </trkpt>
      <trkpt lat="45.21092" lon="4.62637">
        <ele>618</ele>
        <time>2022-03-06T08:51:05Z</time>
      </trkpt>
      <trkpt lat="45.21099" lon="4.62617">
        <ele>617.59997558594</ele>
        <time>2022-03-06T08:51:12Z</time>
      </trkpt>
      <trkpt lat="45.21099" lon="4.62615">
        <ele>617.79998779297</ele>
        <time>2022-03-06T08:51:13Z</time>
      </trkpt>
      <trkpt lat="45.21095" lon="4.62591">
        <ele>619.59997558594</ele>
        <time>2022-03-06T08:51:22Z</time>
      </trkpt>
      <trkpt lat="45.21094" lon="4.62567">
        <ele>620.40002441406</ele>
        <time>2022-03-06T08:51:30Z</time>
      </trkpt>
      <trkpt lat="45.21097" lon="4.62554">
        <ele>621</ele>
        <time>2022-03-06T08:51:34Z</time>
      </trkpt>
      <trkpt lat="45.21088" lon="4.62533">
        <ele>621.40002441406</ele>
        <time>2022-03-06T08:51:39Z</time>
      </trkpt>
      <trkpt lat="45.21087" lon="4.62527">
        <ele>621.40002441406</ele>
        <time>2022-03-06T08:51:41Z</time>
      </trkpt>
      <trkpt lat="45.2108" lon="4.62506">
        <ele>621.79998779297</ele>
        <time>2022-03-06T08:51:47Z</time>
      </trkpt>
      <trkpt lat="45.21074" lon="4.62506">
        <ele>621.79998779297</ele>
        <time>2022-03-06T08:51:50Z</time>
      </trkpt>
      <trkpt lat="45.2107" lon="4.62505">
        <ele>622</ele>
        <time>2022-03-06T08:51:51Z</time>
      </trkpt>
      <trkpt lat="45.21059" lon="4.62486">
        <ele>623</ele>
        <time>2022-03-06T08:51:58Z</time>
      </trkpt>
      <trkpt lat="45.21042" lon="4.62439">
        <ele>624.79998779297</ele>
        <time>2022-03-06T08:52:13Z</time>
      </trkpt>
      <trkpt lat="45.2103" lon="4.62405">
        <ele>626</ele>
        <time>2022-03-06T08:52:26Z</time>
      </trkpt>
      <trkpt lat="45.21027" lon="4.62398">
        <ele>626.59997558594</ele>
        <time>2022-03-06T08:52:46Z</time>
      </trkpt>
      <trkpt lat="45.21003" lon="4.62366">
        <ele>628.59997558594</ele>
        <time>2022-03-06T08:53:50Z</time>
      </trkpt>
      <trkpt lat="45.20988" lon="4.62344">
        <ele>631.59997558594</ele>
        <time>2022-03-06T08:54:04Z</time>
      </trkpt>
      <trkpt lat="45.20987" lon="4.62341">
        <ele>632</ele>
        <time>2022-03-06T08:54:06Z</time>
      </trkpt>
      <trkpt lat="45.20983" lon="4.62331">
        <ele>634</ele>
        <time>2022-03-06T08:54:13Z</time>
      </trkpt>
      <trkpt lat="45.20984" lon="4.62311">
        <ele>636</ele>
        <time>2022-03-06T08:54:25Z</time>
      </trkpt>
      <trkpt lat="45.20982" lon="4.62299">
        <ele>638</ele>
        <time>2022-03-06T08:54:35Z</time>
      </trkpt>
      <trkpt lat="45.20978" lon="4.6229">
        <ele>639</ele>
        <time>2022-03-06T08:54:40Z</time>
      </trkpt>
      <trkpt lat="45.20975" lon="4.62281">
        <ele>640.40002441406</ele>
        <time>2022-03-06T08:54:44Z</time>
      </trkpt>
      <trkpt lat="45.20974" lon="4.62279">
        <ele>640.59997558594</ele>
        <time>2022-03-06T08:54:45Z</time>
      </trkpt>
      <trkpt lat="45.20973" lon="4.62276">
        <ele>641.79998779297</ele>
        <time>2022-03-06T08:54:47Z</time>
      </trkpt>
      <trkpt lat="45.20972" lon="4.62273">
        <ele>642.79998779297</ele>
        <time>2022-03-06T08:54:49Z</time>
      </trkpt>
      <trkpt lat="45.20969" lon="4.62259">
        <ele>645.79998779297</ele>
        <time>2022-03-06T08:54:57Z</time>
      </trkpt>
      <trkpt lat="45.20969" lon="4.62258">
        <ele>646</ele>
        <time>2022-03-06T08:54:58Z</time>
      </trkpt>
      <trkpt lat="45.20967" lon="4.62254">
        <ele>646.79998779297</ele>
        <time>2022-03-06T08:55:01Z</time>
      </trkpt>
      <trkpt lat="45.20967" lon="4.62251">
        <ele>647.59997558594</ele>
        <time>2022-03-06T08:55:03Z</time>
      </trkpt>
      <trkpt lat="45.20963" lon="4.62238">
        <ele>649.79998779297</ele>
        <time>2022-03-06T08:55:15Z</time>
      </trkpt>
      <trkpt lat="45.2096" lon="4.62227">
        <ele>650.79998779297</ele>
        <time>2022-03-06T08:55:23Z</time>
      </trkpt>
      <trkpt lat="45.20954" lon="4.62211">
        <ele>652.59997558594</ele>
        <time>2022-03-06T08:55:31Z</time>
      </trkpt>
      <trkpt lat="45.20946" lon="4.62192">
        <ele>654.59997558594</ele>
        <time>2022-03-06T08:55:38Z</time>
      </trkpt>
      <trkpt lat="45.20946" lon="4.62187">
        <ele>655.40002441406</ele>
        <time>2022-03-06T08:55:42Z</time>
      </trkpt>
      <trkpt lat="45.20943" lon="4.62177">
        <ele>657.20001220703</ele>
        <time>2022-03-06T08:55:48Z</time>
      </trkpt>
      <trkpt lat="45.20939" lon="4.62167">
        <ele>658.20001220703</ele>
        <time>2022-03-06T08:55:56Z</time>
      </trkpt>
      <trkpt lat="45.20938" lon="4.62162">
        <ele>658.79998779297</ele>
        <time>2022-03-06T08:55:58Z</time>
      </trkpt>
      <trkpt lat="45.20932" lon="4.62142">
        <ele>660.20001220703</ele>
        <time>2022-03-06T08:56:07Z</time>
      </trkpt>
      <trkpt lat="45.2093" lon="4.62138">
        <ele>660.79998779297</ele>
        <time>2022-03-06T08:56:10Z</time>
      </trkpt>
      <trkpt lat="45.20927" lon="4.6213">
        <ele>661.59997558594</ele>
        <time>2022-03-06T08:56:17Z</time>
      </trkpt>
      <trkpt lat="45.20928" lon="4.62124">
        <ele>662.20001220703</ele>
        <time>2022-03-06T08:56:20Z</time>
      </trkpt>
      <trkpt lat="45.20924" lon="4.62117">
        <ele>662.59997558594</ele>
        <time>2022-03-06T08:56:22Z</time>
      </trkpt>
      <trkpt lat="45.20923" lon="4.62107">
        <ele>663.59997558594</ele>
        <time>2022-03-06T08:56:28Z</time>
      </trkpt>
      <trkpt lat="45.20913" lon="4.62093">
        <ele>666.40002441406</ele>
        <time>2022-03-06T08:56:35Z</time>
      </trkpt>
      <trkpt lat="45.2091" lon="4.6209">
        <ele>667.20001220703</ele>
        <time>2022-03-06T08:56:38Z</time>
      </trkpt>
      <trkpt lat="45.20906" lon="4.62082">
        <ele>668.79998779297</ele>
        <time>2022-03-06T08:56:44Z</time>
      </trkpt>
      <trkpt lat="45.20904" lon="4.6208">
        <ele>669.59997558594</ele>
        <time>2022-03-06T08:56:49Z</time>
      </trkpt>
      <trkpt lat="45.20898" lon="4.62071">
        <ele>671.40002441406</ele>
        <time>2022-03-06T08:56:55Z</time>
      </trkpt>
      <trkpt lat="45.20895" lon="4.62066">
        <ele>672.40002441406</ele>
        <time>2022-03-06T08:56:58Z</time>
      </trkpt>
      <trkpt lat="45.2089" lon="4.62044">
        <ele>673.20001220703</ele>
        <time>2022-03-06T08:57:06Z</time>
      </trkpt>
      <trkpt lat="45.20888" lon="4.62033">
        <ele>673.40002441406</ele>
        <time>2022-03-06T08:57:09Z</time>
      </trkpt>
      <trkpt lat="45.20881" lon="4.62014">
        <ele>673.79998779297</ele>
        <time>2022-03-06T08:57:14Z</time>
      </trkpt>
      <trkpt lat="45.20877" lon="4.61992">
        <ele>674</ele>
        <time>2022-03-06T08:57:20Z</time>
      </trkpt>
      <trkpt lat="45.20874" lon="4.61985">
        <ele>674</ele>
        <time>2022-03-06T08:57:22Z</time>
      </trkpt>
      <trkpt lat="45.20869" lon="4.61965">
        <ele>674.20001220703</ele>
        <time>2022-03-06T08:57:27Z</time>
      </trkpt>
      <trkpt lat="45.20867" lon="4.6196">
        <ele>674.40002441406</ele>
        <time>2022-03-06T08:57:28Z</time>
      </trkpt>
      <trkpt lat="45.20868" lon="4.61947">
        <ele>674.59997558594</ele>
        <time>2022-03-06T08:57:31Z</time>
      </trkpt>
      <trkpt lat="45.2086" lon="4.61897">
        <ele>673.59997558594</ele>
        <time>2022-03-06T08:57:38Z</time>
      </trkpt>
      <trkpt lat="45.20848" lon="4.6187">
        <ele>673.20001220703</ele>
        <time>2022-03-06T08:57:44Z</time>
      </trkpt>
      <trkpt lat="45.20842" lon="4.61846">
        <ele>674.20001220703</ele>
        <time>2022-03-06T08:57:52Z</time>
      </trkpt>
      <trkpt lat="45.20836" lon="4.61827">
        <ele>674.40002441406</ele>
        <time>2022-03-06T08:57:56Z</time>
      </trkpt>
      <trkpt lat="45.20832" lon="4.61788">
        <ele>674.40002441406</ele>
        <time>2022-03-06T08:58:03Z</time>
      </trkpt>
      <trkpt lat="45.2083" lon="4.61785">
        <ele>674.59997558594</ele>
        <time>2022-03-06T08:58:07Z</time>
      </trkpt>
      <trkpt lat="45.20819" lon="4.61764">
        <ele>675</ele>
        <time>2022-03-06T08:58:11Z</time>
      </trkpt>
      <trkpt lat="45.20818" lon="4.6176">
        <ele>675.59997558594</ele>
        <time>2022-03-06T08:58:13Z</time>
      </trkpt>
      <trkpt lat="45.2081" lon="4.61747">
        <ele>676.79998779297</ele>
        <time>2022-03-06T08:58:19Z</time>
      </trkpt>
      <trkpt lat="45.20809" lon="4.61743">
        <ele>678</ele>
        <time>2022-03-06T08:58:23Z</time>
      </trkpt>
      <trkpt lat="45.20806" lon="4.61739">
        <ele>678.40002441406</ele>
        <time>2022-03-06T08:58:25Z</time>
      </trkpt>
      <trkpt lat="45.20797" lon="4.61724">
        <ele>679.59997558594</ele>
        <time>2022-03-06T08:58:30Z</time>
      </trkpt>
      <trkpt lat="45.20787" lon="4.61704">
        <ele>681.59997558594</ele>
        <time>2022-03-06T08:58:38Z</time>
      </trkpt>
      <trkpt lat="45.20786" lon="4.61699">
        <ele>683</ele>
        <time>2022-03-06T08:58:44Z</time>
      </trkpt>
      <trkpt lat="45.20788" lon="4.61689">
        <ele>684.59997558594</ele>
        <time>2022-03-06T08:58:49Z</time>
      </trkpt>
      <trkpt lat="45.20787" lon="4.61682">
        <ele>685.40002441406</ele>
        <time>2022-03-06T08:58:53Z</time>
      </trkpt>
      <trkpt lat="45.20778" lon="4.61672">
        <ele>686.40002441406</ele>
        <time>2022-03-06T08:59:00Z</time>
      </trkpt>
      <trkpt lat="45.20776" lon="4.61667">
        <ele>687.20001220703</ele>
        <time>2022-03-06T08:59:04Z</time>
      </trkpt>
      <trkpt lat="45.20776" lon="4.61661">
        <ele>687.59997558594</ele>
        <time>2022-03-06T08:59:07Z</time>
      </trkpt>
      <trkpt lat="45.20769" lon="4.61643">
        <ele>688.79998779297</ele>
        <time>2022-03-06T08:59:14Z</time>
      </trkpt>
      <trkpt lat="45.20765" lon="4.61636">
        <ele>689.40002441406</ele>
        <time>2022-03-06T08:59:17Z</time>
      </trkpt>
      <trkpt lat="45.20749" lon="4.61617">
        <ele>690.59997558594</ele>
        <time>2022-03-06T08:59:25Z</time>
      </trkpt>
      <trkpt lat="45.20747" lon="4.61611">
        <ele>691.20001220703</ele>
        <time>2022-03-06T08:59:28Z</time>
      </trkpt>
      <trkpt lat="45.20738" lon="4.61602">
        <ele>692</ele>
        <time>2022-03-06T08:59:34Z</time>
      </trkpt>
      <trkpt lat="45.20731" lon="4.61595">
        <ele>693.40002441406</ele>
        <time>2022-03-06T08:59:42Z</time>
      </trkpt>
      <trkpt lat="45.20722" lon="4.61587">
        <ele>695.20001220703</ele>
        <time>2022-03-06T08:59:52Z</time>
      </trkpt>
      <trkpt lat="45.2071" lon="4.61575">
        <ele>697.79998779297</ele>
        <time>2022-03-06T09:00:04Z</time>
      </trkpt>
      <trkpt lat="45.20704" lon="4.6157">
        <ele>699.79998779297</ele>
        <time>2022-03-06T09:00:14Z</time>
      </trkpt>
      <trkpt lat="45.20694" lon="4.61551">
        <ele>702</ele>
        <time>2022-03-06T09:00:26Z</time>
      </trkpt>
      <trkpt lat="45.20687" lon="4.61544">
        <ele>702.79998779297</ele>
        <time>2022-03-06T09:00:30Z</time>
      </trkpt>
      <trkpt lat="45.20684" lon="4.61536">
        <ele>703.59997558594</ele>
        <time>2022-03-06T09:00:34Z</time>
      </trkpt>
      <trkpt lat="45.20676" lon="4.61523">
        <ele>704.79998779297</ele>
        <time>2022-03-06T09:00:41Z</time>
      </trkpt>
      <trkpt lat="45.20673" lon="4.6152">
        <ele>705</ele>
        <time>2022-03-06T09:00:43Z</time>
      </trkpt>
      <trkpt lat="45.20659" lon="4.61502">
        <ele>707.20001220703</ele>
        <time>2022-03-06T09:00:55Z</time>
      </trkpt>
      <trkpt lat="45.20646" lon="4.61484">
        <ele>709.40002441406</ele>
        <time>2022-03-06T09:01:08Z</time>
      </trkpt>
      <trkpt lat="45.20637" lon="4.61473">
        <ele>711</ele>
        <time>2022-03-06T09:01:15Z</time>
      </trkpt>
      <trkpt lat="45.20632" lon="4.61467">
        <ele>711.79998779297</ele>
        <time>2022-03-06T09:01:19Z</time>
      </trkpt>
      <trkpt lat="45.20631" lon="4.61465">
        <ele>712</ele>
        <time>2022-03-06T09:01:20Z</time>
      </trkpt>
      <trkpt lat="45.2063" lon="4.6146">
        <ele>713.20001220703</ele>
        <time>2022-03-06T09:01:25Z</time>
      </trkpt>
      <trkpt lat="45.20628" lon="4.61456">
        <ele>713.79998779297</ele>
        <time>2022-03-06T09:01:28Z</time>
      </trkpt>
      <trkpt lat="45.20617" lon="4.61442">
        <ele>716.20001220703</ele>
        <time>2022-03-06T09:01:39Z</time>
      </trkpt>
      <trkpt lat="45.20605" lon="4.61426">
        <ele>718.20001220703</ele>
        <time>2022-03-06T09:01:49Z</time>
      </trkpt>
      <trkpt lat="45.20602" lon="4.61421">
        <ele>719</ele>
        <time>2022-03-06T09:01:53Z</time>
      </trkpt>
      <trkpt lat="45.20598" lon="4.61413">
        <ele>720</ele>
        <time>2022-03-06T09:01:58Z</time>
      </trkpt>
      <trkpt lat="45.20595" lon="4.61393">
        <ele>722.59997558594</ele>
        <time>2022-03-06T09:02:10Z</time>
      </trkpt>
      <trkpt lat="45.20597" lon="4.61379">
        <ele>723</ele>
        <time>2022-03-06T09:02:16Z</time>
      </trkpt>
      <trkpt lat="45.20608" lon="4.61352">
        <ele>724</ele>
        <time>2022-03-06T09:02:28Z</time>
      </trkpt>
      <trkpt lat="45.20612" lon="4.61338">
        <ele>724.59997558594</ele>
        <time>2022-03-06T09:02:34Z</time>
      </trkpt>
      <trkpt lat="45.2062" lon="4.6133">
        <ele>724.79998779297</ele>
        <time>2022-03-06T09:02:38Z</time>
      </trkpt>
      <trkpt lat="45.2063" lon="4.61321">
        <ele>725.20001220703</ele>
        <time>2022-03-06T09:02:42Z</time>
      </trkpt>
      <trkpt lat="45.20648" lon="4.61316">
        <ele>725</ele>
        <time>2022-03-06T09:02:46Z</time>
      </trkpt>
      <trkpt lat="45.2068" lon="4.61312">
        <ele>724</ele>
        <time>2022-03-06T09:02:57Z</time>
      </trkpt>
      <trkpt lat="45.20715" lon="4.61334">
        <ele>724.40002441406</ele>
        <time>2022-03-06T09:03:06Z</time>
      </trkpt>
      <trkpt lat="45.20737" lon="4.61352">
        <ele>724.40002441406</ele>
        <time>2022-03-06T09:03:14Z</time>
      </trkpt>
      <trkpt lat="45.20786" lon="4.61373">
        <ele>726.59997558594</ele>
        <time>2022-03-06T09:03:35Z</time>
      </trkpt>
      <trkpt lat="45.20812" lon="4.61386">
        <ele>726.59997558594</ele>
        <time>2022-03-06T09:03:41Z</time>
      </trkpt>
      <trkpt lat="45.20831" lon="4.61388">
        <ele>724.79998779297</ele>
        <time>2022-03-06T09:03:45Z</time>
      </trkpt>
      <trkpt lat="45.20855" lon="4.61383">
        <ele>721.59997558594</ele>
        <time>2022-03-06T09:03:50Z</time>
      </trkpt>
      <trkpt lat="45.20877" lon="4.61355">
        <ele>718.40002441406</ele>
        <time>2022-03-06T09:03:54Z</time>
      </trkpt>
      <trkpt lat="45.20909" lon="4.61298">
        <ele>715.40002441406</ele>
        <time>2022-03-06T09:04:00Z</time>
      </trkpt>
      <trkpt lat="45.20942" lon="4.61274">
        <ele>711.40002441406</ele>
        <time>2022-03-06T09:04:05Z</time>
      </trkpt>
      <trkpt lat="45.20955" lon="4.61282">
        <ele>710.40002441406</ele>
        <time>2022-03-06T09:04:09Z</time>
      </trkpt>
      <trkpt lat="45.20958" lon="4.61285">
        <ele>710.40002441406</ele>
        <time>2022-03-06T09:04:10Z</time>
      </trkpt>
      <trkpt lat="45.2097" lon="4.61299">
        <ele>710.79998779297</ele>
        <time>2022-03-06T09:04:14Z</time>
      </trkpt>
      <trkpt lat="45.20977" lon="4.61304">
        <ele>712.59997558594</ele>
        <time>2022-03-06T09:04:19Z</time>
      </trkpt>
      <trkpt lat="45.21001" lon="4.61319">
        <ele>715</ele>
        <time>2022-03-06T09:04:33Z</time>
      </trkpt>
      <trkpt lat="45.21023" lon="4.61375">
        <ele>716.40002441406</ele>
        <time>2022-03-06T09:04:52Z</time>
      </trkpt>
      <trkpt lat="45.21034" lon="4.61398">
        <ele>717.20001220703</ele>
        <time>2022-03-06T09:05:03Z</time>
      </trkpt>
      <trkpt lat="45.21047" lon="4.61429">
        <ele>719.40002441406</ele>
        <time>2022-03-06T09:05:16Z</time>
      </trkpt>
      <trkpt lat="45.21056" lon="4.61455">
        <ele>721.40002441406</ele>
        <time>2022-03-06T09:05:28Z</time>
      </trkpt>
      <trkpt lat="45.2107" lon="4.6148">
        <ele>724.59997558594</ele>
        <time>2022-03-06T09:05:42Z</time>
      </trkpt>
      <trkpt lat="45.21084" lon="4.61499">
        <ele>726.40002441406</ele>
        <time>2022-03-06T09:05:54Z</time>
      </trkpt>
      <trkpt lat="45.21097" lon="4.61517">
        <ele>728.79998779297</ele>
        <time>2022-03-06T09:06:04Z</time>
      </trkpt>
      <trkpt lat="45.21101" lon="4.61523">
        <ele>729.40002441406</ele>
        <time>2022-03-06T09:06:07Z</time>
      </trkpt>
      <trkpt lat="45.2111" lon="4.61539">
        <ele>731.20001220703</ele>
        <time>2022-03-06T09:06:17Z</time>
      </trkpt>
      <trkpt lat="45.21114" lon="4.61543">
        <ele>731.79998779297</ele>
        <time>2022-03-06T09:06:20Z</time>
      </trkpt>
      <trkpt lat="45.21135" lon="4.61553">
        <ele>734.20001220703</ele>
        <time>2022-03-06T09:06:34Z</time>
      </trkpt>
      <trkpt lat="45.21154" lon="4.61553">
        <ele>736.40002441406</ele>
        <time>2022-03-06T09:06:46Z</time>
      </trkpt>
      <trkpt lat="45.21176" lon="4.61543">
        <ele>738</ele>
        <time>2022-03-06T09:06:59Z</time>
      </trkpt>
      <trkpt lat="45.21199" lon="4.61537">
        <ele>738.79998779297</ele>
        <time>2022-03-06T09:07:08Z</time>
      </trkpt>
      <trkpt lat="45.21204" lon="4.61535">
        <ele>739</ele>
        <time>2022-03-06T09:07:10Z</time>
      </trkpt>
      <trkpt lat="45.21224" lon="4.61524">
        <ele>739.59997558594</ele>
        <time>2022-03-06T09:07:18Z</time>
      </trkpt>
      <trkpt lat="45.21253" lon="4.61506">
        <ele>740.59997558594</ele>
        <time>2022-03-06T09:07:32Z</time>
      </trkpt>
      <trkpt lat="45.2126" lon="4.61499">
        <ele>740.59997558594</ele>
        <time>2022-03-06T09:07:36Z</time>
      </trkpt>
      <trkpt lat="45.21287" lon="4.61478">
        <ele>742.59997558594</ele>
        <time>2022-03-06T09:07:49Z</time>
      </trkpt>
      <trkpt lat="45.2129" lon="4.61474">
        <ele>742.79998779297</ele>
        <time>2022-03-06T09:07:50Z</time>
      </trkpt>
      <trkpt lat="45.21308" lon="4.61465">
        <ele>743.59997558594</ele>
        <time>2022-03-06T09:07:58Z</time>
      </trkpt>
      <trkpt lat="45.21332" lon="4.61453">
        <ele>744</ele>
        <time>2022-03-06T09:08:06Z</time>
      </trkpt>
      <trkpt lat="45.21343" lon="4.61446">
        <ele>744.40002441406</ele>
        <time>2022-03-06T09:08:11Z</time>
      </trkpt>
      <trkpt lat="45.21352" lon="4.61437">
        <ele>744.79998779297</ele>
        <time>2022-03-06T09:08:15Z</time>
      </trkpt>
      <trkpt lat="45.21365" lon="4.61428">
        <ele>745.79998779297</ele>
        <time>2022-03-06T09:08:22Z</time>
      </trkpt>
      <trkpt lat="45.21378" lon="4.61415">
        <ele>747</ele>
        <time>2022-03-06T09:08:29Z</time>
      </trkpt>
      <trkpt lat="45.21401" lon="4.61403">
        <ele>748.59997558594</ele>
        <time>2022-03-06T09:08:41Z</time>
      </trkpt>
      <trkpt lat="45.21408" lon="4.61399">
        <ele>750</ele>
        <time>2022-03-06T09:08:48Z</time>
      </trkpt>
      <trkpt lat="45.21422" lon="4.61389">
        <ele>752.20001220703</ele>
        <time>2022-03-06T09:08:58Z</time>
      </trkpt>
      <trkpt lat="45.21414" lon="4.61381">
        <ele>753.79998779297</ele>
        <time>2022-03-06T09:09:05Z</time>
      </trkpt>
      <trkpt lat="45.21393" lon="4.61375">
        <ele>754.59997558594</ele>
        <time>2022-03-06T09:09:17Z</time>
      </trkpt>
      <trkpt lat="45.21367" lon="4.61379">
        <ele>756.59997558594</ele>
        <time>2022-03-06T09:09:30Z</time>
      </trkpt>
      <trkpt lat="45.21363" lon="4.61383">
        <ele>757.40002441406</ele>
        <time>2022-03-06T09:09:33Z</time>
      </trkpt>
      <trkpt lat="45.21339" lon="4.61386">
        <ele>759.59997558594</ele>
        <time>2022-03-06T09:09:44Z</time>
      </trkpt>
      <trkpt lat="45.21313" lon="4.61397">
        <ele>761.20001220703</ele>
        <time>2022-03-06T09:09:55Z</time>
      </trkpt>
      <trkpt lat="45.21311" lon="4.61402">
        <ele>761.40002441406</ele>
        <time>2022-03-06T09:09:57Z</time>
      </trkpt>
      <trkpt lat="45.21299" lon="4.61421">
        <ele>762.20001220703</ele>
        <time>2022-03-06T09:10:04Z</time>
      </trkpt>
      <trkpt lat="45.21293" lon="4.61422">
        <ele>762.59997558594</ele>
        <time>2022-03-06T09:10:07Z</time>
      </trkpt>
      <trkpt lat="45.21267" lon="4.61437">
        <ele>764.40002441406</ele>
        <time>2022-03-06T09:10:19Z</time>
      </trkpt>
      <trkpt lat="45.21245" lon="4.61441">
        <ele>765.59997558594</ele>
        <time>2022-03-06T09:10:31Z</time>
      </trkpt>
      <trkpt lat="45.21239" lon="4.61442">
        <ele>765.79998779297</ele>
        <time>2022-03-06T09:10:34Z</time>
      </trkpt>
      <trkpt lat="45.21218" lon="4.61435">
        <ele>767</ele>
        <time>2022-03-06T09:10:43Z</time>
      </trkpt>
      <trkpt lat="45.21214" lon="4.61434">
        <ele>767.20001220703</ele>
        <time>2022-03-06T09:10:44Z</time>
      </trkpt>
      <trkpt lat="45.21186" lon="4.61417">
        <ele>768.59997558594</ele>
        <time>2022-03-06T09:10:53Z</time>
      </trkpt>
      <trkpt lat="45.21184" lon="4.61415">
        <ele>768.59997558594</ele>
        <time>2022-03-06T09:10:54Z</time>
      </trkpt>
      <trkpt lat="45.21173" lon="4.61399">
        <ele>769.20001220703</ele>
        <time>2022-03-06T09:11:02Z</time>
      </trkpt>
      <trkpt lat="45.21161" lon="4.61364">
        <ele>770.79998779297</ele>
        <time>2022-03-06T09:11:13Z</time>
      </trkpt>
      <trkpt lat="45.21152" lon="4.61328">
        <ele>772</ele>
        <time>2022-03-06T09:11:23Z</time>
      </trkpt>
      <trkpt lat="45.21147" lon="4.613">
        <ele>773.20001220703</ele>
        <time>2022-03-06T09:11:33Z</time>
      </trkpt>
      <trkpt lat="45.2114" lon="4.61266">
        <ele>775.40002441406</ele>
        <time>2022-03-06T09:11:44Z</time>
      </trkpt>
      <trkpt lat="45.21133" lon="4.61235">
        <ele>776.40002441406</ele>
        <time>2022-03-06T09:11:52Z</time>
      </trkpt>
      <trkpt lat="45.21132" lon="4.6122">
        <ele>777.20001220703</ele>
        <time>2022-03-06T09:11:57Z</time>
      </trkpt>
      <trkpt lat="45.21123" lon="4.61197">
        <ele>778</ele>
        <time>2022-03-06T09:12:03Z</time>
      </trkpt>
      <trkpt lat="45.21119" lon="4.61189">
        <ele>778.20001220703</ele>
        <time>2022-03-06T09:12:05Z</time>
      </trkpt>
      <trkpt lat="45.21117" lon="4.61185">
        <ele>778.40002441406</ele>
        <time>2022-03-06T09:12:06Z</time>
      </trkpt>
      <trkpt lat="45.2111" lon="4.61175">
        <ele>779.59997558594</ele>
        <time>2022-03-06T09:12:12Z</time>
      </trkpt>
      <trkpt lat="45.21092" lon="4.61154">
        <ele>781</ele>
        <time>2022-03-06T09:12:22Z</time>
      </trkpt>
      <trkpt lat="45.21082" lon="4.61133">
        <ele>781.59997558594</ele>
        <time>2022-03-06T09:12:29Z</time>
      </trkpt>
      <trkpt lat="45.21081" lon="4.61131">
        <ele>781.79998779297</ele>
        <time>2022-03-06T09:12:30Z</time>
      </trkpt>
      <trkpt lat="45.2107" lon="4.6111">
        <ele>783</ele>
        <time>2022-03-06T09:12:38Z</time>
      </trkpt>
      <trkpt lat="45.21069" lon="4.61107">
        <ele>783.20001220703</ele>
        <time>2022-03-06T09:12:40Z</time>
      </trkpt>
      <trkpt lat="45.21069" lon="4.6109">
        <ele>783.79998779297</ele>
        <time>2022-03-06T09:12:45Z</time>
      </trkpt>
      <trkpt lat="45.21063" lon="4.6107">
        <ele>784.40002441406</ele>
        <time>2022-03-06T09:12:49Z</time>
      </trkpt>
      <trkpt lat="45.21064" lon="4.61063">
        <ele>784.79998779297</ele>
        <time>2022-03-06T09:12:52Z</time>
      </trkpt>
      <trkpt lat="45.21058" lon="4.61054">
        <ele>785</ele>
        <time>2022-03-06T09:12:54Z</time>
      </trkpt>
      <trkpt lat="45.21042" lon="4.61026">
        <ele>786.59997558594</ele>
        <time>2022-03-06T09:13:01Z</time>
      </trkpt>
      <trkpt lat="45.2104" lon="4.61018">
        <ele>787.40002441406</ele>
        <time>2022-03-06T09:13:05Z</time>
      </trkpt>
      <trkpt lat="45.21034" lon="4.61002">
        <ele>788</ele>
        <time>2022-03-06T09:13:11Z</time>
      </trkpt>
      <trkpt lat="45.2103" lon="4.60993">
        <ele>788.20001220703</ele>
        <time>2022-03-06T09:13:14Z</time>
      </trkpt>
      <trkpt lat="45.21028" lon="4.60987">
        <ele>788.79998779297</ele>
        <time>2022-03-06T09:13:16Z</time>
      </trkpt>
      <trkpt lat="45.21015" lon="4.6095">
        <ele>789.79998779297</ele>
        <time>2022-03-06T09:13:27Z</time>
      </trkpt>
      <trkpt lat="45.21004" lon="4.60919">
        <ele>790.59997558594</ele>
        <time>2022-03-06T09:13:37Z</time>
      </trkpt>
      <trkpt lat="45.21" lon="4.60905">
        <ele>791.40002441406</ele>
        <time>2022-03-06T09:13:43Z</time>
      </trkpt>
      <trkpt lat="45.21" lon="4.60901">
        <ele>791.79998779297</ele>
        <time>2022-03-06T09:13:45Z</time>
      </trkpt>
      <trkpt lat="45.20985" lon="4.60875">
        <ele>792.59997558594</ele>
        <time>2022-03-06T09:13:55Z</time>
      </trkpt>
      <trkpt lat="45.20969" lon="4.60851">
        <ele>794</ele>
        <time>2022-03-06T09:14:04Z</time>
      </trkpt>
      <trkpt lat="45.20958" lon="4.60837">
        <ele>794.79998779297</ele>
        <time>2022-03-06T09:14:10Z</time>
      </trkpt>
      <trkpt lat="45.20941" lon="4.6083">
        <ele>795.79998779297</ele>
        <time>2022-03-06T09:14:17Z</time>
      </trkpt>
      <trkpt lat="45.20926" lon="4.60824">
        <ele>796.40002441406</ele>
        <time>2022-03-06T09:14:24Z</time>
      </trkpt>
      <trkpt lat="45.20917" lon="4.60825">
        <ele>796.79998779297</ele>
        <time>2022-03-06T09:14:28Z</time>
      </trkpt>
      <trkpt lat="45.20915" lon="4.60826">
        <ele>796.79998779297</ele>
        <time>2022-03-06T09:14:29Z</time>
      </trkpt>
      <trkpt lat="45.20907" lon="4.60831">
        <ele>797.20001220703</ele>
        <time>2022-03-06T09:14:33Z</time>
      </trkpt>
      <trkpt lat="45.20883" lon="4.60841">
        <ele>798.40002441406</ele>
        <time>2022-03-06T09:14:41Z</time>
      </trkpt>
      <trkpt lat="45.20877" lon="4.60844">
        <ele>798.59997558594</ele>
        <time>2022-03-06T09:14:43Z</time>
      </trkpt>
      <trkpt lat="45.20866" lon="4.60852">
        <ele>798.79998779297</ele>
        <time>2022-03-06T09:14:47Z</time>
      </trkpt>
      <trkpt lat="45.20846" lon="4.6087">
        <ele>800.79998779297</ele>
        <time>2022-03-06T09:14:57Z</time>
      </trkpt>
      <trkpt lat="45.2083" lon="4.60877">
        <ele>801.40002441406</ele>
        <time>2022-03-06T09:15:03Z</time>
      </trkpt>
      <trkpt lat="45.20822" lon="4.60898">
        <ele>802.20001220703</ele>
        <time>2022-03-06T09:15:09Z</time>
      </trkpt>
      <trkpt lat="45.20809" lon="4.6092">
        <ele>803.20001220703</ele>
        <time>2022-03-06T09:15:17Z</time>
      </trkpt>
      <trkpt lat="45.20805" lon="4.60928">
        <ele>803.59997558594</ele>
        <time>2022-03-06T09:15:20Z</time>
      </trkpt>
      <trkpt lat="45.20798" lon="4.60945">
        <ele>804.20001220703</ele>
        <time>2022-03-06T09:15:26Z</time>
      </trkpt>
      <trkpt lat="45.20794" lon="4.60968">
        <ele>805.20001220703</ele>
        <time>2022-03-06T09:15:33Z</time>
      </trkpt>
      <trkpt lat="45.20792" lon="4.60969">
        <ele>805.40002441406</ele>
        <time>2022-03-06T09:15:34Z</time>
      </trkpt>
      <trkpt lat="45.20778" lon="4.60996">
        <ele>806.40002441406</ele>
        <time>2022-03-06T09:15:43Z</time>
      </trkpt>
      <trkpt lat="45.20746" lon="4.61018">
        <ele>808</ele>
        <time>2022-03-06T09:15:57Z</time>
      </trkpt>
      <trkpt lat="45.20713" lon="4.61012">
        <ele>809.20001220703</ele>
        <time>2022-03-06T09:16:10Z</time>
      </trkpt>
      <trkpt lat="45.20681" lon="4.60994">
        <ele>811</ele>
        <time>2022-03-06T09:16:25Z</time>
      </trkpt>
      <trkpt lat="45.20657" lon="4.60965">
        <ele>813</ele>
        <time>2022-03-06T09:16:38Z</time>
      </trkpt>
      <trkpt lat="45.2063" lon="4.60936">
        <ele>814.40002441406</ele>
        <time>2022-03-06T09:16:52Z</time>
      </trkpt>
      <trkpt lat="45.20609" lon="4.60906">
        <ele>816.40002441406</ele>
        <time>2022-03-06T09:17:04Z</time>
      </trkpt>
      <trkpt lat="45.20584" lon="4.60884">
        <ele>817.59997558594</ele>
        <time>2022-03-06T09:17:17Z</time>
      </trkpt>
      <trkpt lat="45.20563" lon="4.60883">
        <ele>819</ele>
        <time>2022-03-06T09:17:27Z</time>
      </trkpt>
      <trkpt lat="45.20548" lon="4.60885">
        <ele>819.59997558594</ele>
        <time>2022-03-06T09:17:33Z</time>
      </trkpt>
      <trkpt lat="45.20532" lon="4.60889">
        <ele>820.59997558594</ele>
        <time>2022-03-06T09:17:39Z</time>
      </trkpt>
      <trkpt lat="45.20527" lon="4.6089">
        <ele>820.79998779297</ele>
        <time>2022-03-06T09:17:41Z</time>
      </trkpt>
      <trkpt lat="45.20514" lon="4.60889">
        <ele>822.20001220703</ele>
        <time>2022-03-06T09:17:47Z</time>
      </trkpt>
      <trkpt lat="45.20488" lon="4.60891">
        <ele>823.20001220703</ele>
        <time>2022-03-06T09:17:57Z</time>
      </trkpt>
      <trkpt lat="45.20476" lon="4.60898">
        <ele>823.59997558594</ele>
        <time>2022-03-06T09:18:01Z</time>
      </trkpt>
      <trkpt lat="45.20462" lon="4.60904">
        <ele>824.40002441406</ele>
        <time>2022-03-06T09:18:07Z</time>
      </trkpt>
      <trkpt lat="45.20455" lon="4.60915">
        <ele>824.79998779297</ele>
        <time>2022-03-06T09:18:12Z</time>
      </trkpt>
      <trkpt lat="45.20452" lon="4.6092">
        <ele>825.59997558594</ele>
        <time>2022-03-06T09:18:15Z</time>
      </trkpt>
      <trkpt lat="45.20447" lon="4.6093">
        <ele>826.20001220703</ele>
        <time>2022-03-06T09:18:19Z</time>
      </trkpt>
      <trkpt lat="45.20418" lon="4.60952">
        <ele>827.40002441406</ele>
        <time>2022-03-06T09:18:32Z</time>
      </trkpt>
      <trkpt lat="45.20396" lon="4.60968">
        <ele>828.40002441406</ele>
        <time>2022-03-06T09:18:43Z</time>
      </trkpt>
      <trkpt lat="45.20383" lon="4.60978">
        <ele>829.40002441406</ele>
        <time>2022-03-06T09:18:49Z</time>
      </trkpt>
      <trkpt lat="45.20367" lon="4.60975">
        <ele>830</ele>
        <time>2022-03-06T09:18:55Z</time>
      </trkpt>
      <trkpt lat="45.20364" lon="4.60975">
        <ele>830.20001220703</ele>
        <time>2022-03-06T09:18:56Z</time>
      </trkpt>
      <trkpt lat="45.20351" lon="4.6097">
        <ele>830.59997558594</ele>
        <time>2022-03-06T09:19:01Z</time>
      </trkpt>
      <trkpt lat="45.20348" lon="4.60966">
        <ele>831</ele>
        <time>2022-03-06T09:19:03Z</time>
      </trkpt>
      <trkpt lat="45.20339" lon="4.6096">
        <ele>831.40002441406</ele>
        <time>2022-03-06T09:19:08Z</time>
      </trkpt>
      <trkpt lat="45.2032" lon="4.6094">
        <ele>833.59997558594</ele>
        <time>2022-03-06T09:19:21Z</time>
      </trkpt>
      <trkpt lat="45.20313" lon="4.6093">
        <ele>834.59997558594</ele>
        <time>2022-03-06T09:19:29Z</time>
      </trkpt>
      <trkpt lat="45.20311" lon="4.60921">
        <ele>835.20001220703</ele>
        <time>2022-03-06T09:19:33Z</time>
      </trkpt>
      <trkpt lat="45.20304" lon="4.60908">
        <ele>836</ele>
        <time>2022-03-06T09:19:39Z</time>
      </trkpt>
      <trkpt lat="45.20298" lon="4.60901">
        <ele>836.40002441406</ele>
        <time>2022-03-06T09:19:44Z</time>
      </trkpt>
      <trkpt lat="45.20291" lon="4.60887">
        <ele>838</ele>
        <time>2022-03-06T09:19:53Z</time>
      </trkpt>
      <trkpt lat="45.20286" lon="4.6087">
        <ele>839.59997558594</ele>
        <time>2022-03-06T09:20:02Z</time>
      </trkpt>
      <trkpt lat="45.20281" lon="4.60858">
        <ele>840.79998779297</ele>
        <time>2022-03-06T09:20:09Z</time>
      </trkpt>
      <trkpt lat="45.20278" lon="4.60851">
        <ele>841.40002441406</ele>
        <time>2022-03-06T09:20:13Z</time>
      </trkpt>
      <trkpt lat="45.20276" lon="4.60844">
        <ele>842.59997558594</ele>
        <time>2022-03-06T09:20:18Z</time>
      </trkpt>
      <trkpt lat="45.20274" lon="4.60842">
        <ele>843.40002441406</ele>
        <time>2022-03-06T09:20:20Z</time>
      </trkpt>
      <trkpt lat="45.20269" lon="4.6083">
        <ele>845.20001220703</ele>
        <time>2022-03-06T09:20:26Z</time>
      </trkpt>
      <trkpt lat="45.20264" lon="4.60821">
        <ele>846.20001220703</ele>
        <time>2022-03-06T09:20:31Z</time>
      </trkpt>
      <trkpt lat="45.20263" lon="4.60812">
        <ele>847</ele>
        <time>2022-03-06T09:20:35Z</time>
      </trkpt>
      <trkpt lat="45.20257" lon="4.60802">
        <ele>847.40002441406</ele>
        <time>2022-03-06T09:20:38Z</time>
      </trkpt>
      <trkpt lat="45.20252" lon="4.60786">
        <ele>848.79998779297</ele>
        <time>2022-03-06T09:20:46Z</time>
      </trkpt>
      <trkpt lat="45.20247" lon="4.60777">
        <ele>849.59997558594</ele>
        <time>2022-03-06T09:20:53Z</time>
      </trkpt>
      <trkpt lat="45.20239" lon="4.60756">
        <ele>851.40002441406</ele>
        <time>2022-03-06T09:21:04Z</time>
      </trkpt>
      <trkpt lat="45.20234" lon="4.60738">
        <ele>853</ele>
        <time>2022-03-06T09:21:15Z</time>
      </trkpt>
      <trkpt lat="45.20234" lon="4.60735">
        <ele>853.20001220703</ele>
        <time>2022-03-06T09:21:16Z</time>
      </trkpt>
      <trkpt lat="45.20229" lon="4.60723">
        <ele>855</ele>
        <time>2022-03-06T09:21:25Z</time>
      </trkpt>
      <trkpt lat="45.20228" lon="4.60716">
        <ele>855.59997558594</ele>
        <time>2022-03-06T09:21:29Z</time>
      </trkpt>
      <trkpt lat="45.20216" lon="4.6069">
        <ele>858</ele>
        <time>2022-03-06T09:21:43Z</time>
      </trkpt>
      <trkpt lat="45.20215" lon="4.60688">
        <ele>858.40002441406</ele>
        <time>2022-03-06T09:21:44Z</time>
      </trkpt>
      <trkpt lat="45.20212" lon="4.60678">
        <ele>859</ele>
        <time>2022-03-06T09:21:48Z</time>
      </trkpt>
      <trkpt lat="45.20206" lon="4.60669">
        <ele>860.20001220703</ele>
        <time>2022-03-06T09:21:54Z</time>
      </trkpt>
      <trkpt lat="45.20205" lon="4.60662">
        <ele>861</ele>
        <time>2022-03-06T09:21:57Z</time>
      </trkpt>
      <trkpt lat="45.20201" lon="4.60652">
        <ele>862.40002441406</ele>
        <time>2022-03-06T09:22:02Z</time>
      </trkpt>
      <trkpt lat="45.20199" lon="4.60649">
        <ele>864</ele>
        <time>2022-03-06T09:22:07Z</time>
      </trkpt>
      <trkpt lat="45.20196" lon="4.60635">
        <ele>865.79998779297</ele>
        <time>2022-03-06T09:22:15Z</time>
      </trkpt>
      <trkpt lat="45.20191" lon="4.60625">
        <ele>867.40002441406</ele>
        <time>2022-03-06T09:22:21Z</time>
      </trkpt>
      <trkpt lat="45.20187" lon="4.60619">
        <ele>868.20001220703</ele>
        <time>2022-03-06T09:22:25Z</time>
      </trkpt>
      <trkpt lat="45.20186" lon="4.6061">
        <ele>869</ele>
        <time>2022-03-06T09:22:29Z</time>
      </trkpt>
      <trkpt lat="45.20181" lon="4.60606">
        <ele>869.40002441406</ele>
        <time>2022-03-06T09:22:31Z</time>
      </trkpt>
      <trkpt lat="45.20176" lon="4.60595">
        <ele>871.59997558594</ele>
        <time>2022-03-06T09:22:40Z</time>
      </trkpt>
      <trkpt lat="45.20172" lon="4.60591">
        <ele>872.20001220703</ele>
        <time>2022-03-06T09:22:43Z</time>
      </trkpt>
      <trkpt lat="45.20171" lon="4.60589">
        <ele>872.79998779297</ele>
        <time>2022-03-06T09:22:45Z</time>
      </trkpt>
      <trkpt lat="45.2017" lon="4.6058">
        <ele>874.20001220703</ele>
        <time>2022-03-06T09:22:50Z</time>
      </trkpt>
      <trkpt lat="45.20168" lon="4.60573">
        <ele>875.20001220703</ele>
        <time>2022-03-06T09:22:54Z</time>
      </trkpt>
      <trkpt lat="45.20165" lon="4.60568">
        <ele>876.20001220703</ele>
        <time>2022-03-06T09:22:59Z</time>
      </trkpt>
      <trkpt lat="45.20155" lon="4.60551">
        <ele>877.79998779297</ele>
        <time>2022-03-06T09:23:09Z</time>
      </trkpt>
      <trkpt lat="45.20153" lon="4.60547">
        <ele>878.40002441406</ele>
        <time>2022-03-06T09:23:12Z</time>
      </trkpt>
      <trkpt lat="45.2015" lon="4.60543">
        <ele>879.20001220703</ele>
        <time>2022-03-06T09:23:16Z</time>
      </trkpt>
      <trkpt lat="45.20148" lon="4.60536">
        <ele>879.79998779297</ele>
        <time>2022-03-06T09:23:20Z</time>
      </trkpt>
      <trkpt lat="45.20143" lon="4.60526">
        <ele>880.59997558594</ele>
        <time>2022-03-06T09:23:25Z</time>
      </trkpt>
      <trkpt lat="45.20139" lon="4.60517">
        <ele>881</ele>
        <time>2022-03-06T09:23:29Z</time>
      </trkpt>
      <trkpt lat="45.20134" lon="4.60501">
        <ele>882</ele>
        <time>2022-03-06T09:23:37Z</time>
      </trkpt>
      <trkpt lat="45.20131" lon="4.60492">
        <ele>882.79998779297</ele>
        <time>2022-03-06T09:23:42Z</time>
      </trkpt>
      <trkpt lat="45.20125" lon="4.60476">
        <ele>884.59997558594</ele>
        <time>2022-03-06T09:23:52Z</time>
      </trkpt>
      <trkpt lat="45.20125" lon="4.60475">
        <ele>884.79998779297</ele>
        <time>2022-03-06T09:23:53Z</time>
      </trkpt>
      <trkpt lat="45.20117" lon="4.60455">
        <ele>887</ele>
        <time>2022-03-06T09:24:04Z</time>
      </trkpt>
      <trkpt lat="45.20116" lon="4.6045">
        <ele>887.59997558594</ele>
        <time>2022-03-06T09:24:07Z</time>
      </trkpt>
      <trkpt lat="45.20113" lon="4.60446">
        <ele>888.20001220703</ele>
        <time>2022-03-06T09:24:12Z</time>
      </trkpt>
      <trkpt lat="45.201" lon="4.60429">
        <ele>890</ele>
        <time>2022-03-06T09:24:23Z</time>
      </trkpt>
      <trkpt lat="45.20099" lon="4.60427">
        <ele>890.20001220703</ele>
        <time>2022-03-06T09:24:24Z</time>
      </trkpt>
      <trkpt lat="45.20097" lon="4.60421">
        <ele>891.40002441406</ele>
        <time>2022-03-06T09:24:30Z</time>
      </trkpt>
      <trkpt lat="45.20089" lon="4.60407">
        <ele>893.20001220703</ele>
        <time>2022-03-06T09:24:40Z</time>
      </trkpt>
      <trkpt lat="45.20077" lon="4.60396">
        <ele>895.79998779297</ele>
        <time>2022-03-06T09:24:51Z</time>
      </trkpt>
      <trkpt lat="45.20067" lon="4.60387">
        <ele>897.79998779297</ele>
        <time>2022-03-06T09:25:01Z</time>
      </trkpt>
      <trkpt lat="45.20063" lon="4.60379">
        <ele>899.79998779297</ele>
        <time>2022-03-06T09:25:07Z</time>
      </trkpt>
      <trkpt lat="45.20069" lon="4.60377">
        <ele>901.59997558594</ele>
        <time>2022-03-06T09:25:14Z</time>
      </trkpt>
      <trkpt lat="45.20076" lon="4.60369">
        <ele>904.59997558594</ele>
        <time>2022-03-06T09:25:24Z</time>
      </trkpt>
      <trkpt lat="45.20086" lon="4.6036">
        <ele>907.59997558594</ele>
        <time>2022-03-06T09:25:35Z</time>
      </trkpt>
      <trkpt lat="45.20097" lon="4.60348">
        <ele>908.79998779297</ele>
        <time>2022-03-06T09:25:42Z</time>
      </trkpt>
      <trkpt lat="45.20101" lon="4.60341">
        <ele>909.79998779297</ele>
        <time>2022-03-06T09:25:46Z</time>
      </trkpt>
      <trkpt lat="45.201" lon="4.60329">
        <ele>911</ele>
        <time>2022-03-06T09:25:53Z</time>
      </trkpt>
      <trkpt lat="45.20107" lon="4.60324">
        <ele>911.40002441406</ele>
        <time>2022-03-06T09:25:58Z</time>
      </trkpt>
      <trkpt lat="45.20122" lon="4.60337">
        <ele>912.40002441406</ele>
        <time>2022-03-06T09:26:14Z</time>
      </trkpt>
      <trkpt lat="45.20139" lon="4.60337">
        <ele>915.20001220703</ele>
        <time>2022-03-06T09:26:28Z</time>
      </trkpt>
      <trkpt lat="45.20151" lon="4.60339">
        <ele>916.20001220703</ele>
        <time>2022-03-06T09:26:35Z</time>
      </trkpt>
      <trkpt lat="45.20161" lon="4.60345">
        <ele>918.59997558594</ele>
        <time>2022-03-06T09:26:43Z</time>
      </trkpt>
      <trkpt lat="45.20172" lon="4.60335">
        <ele>920</ele>
        <time>2022-03-06T09:26:50Z</time>
      </trkpt>
      <trkpt lat="45.20175" lon="4.60328">
        <ele>920.59997558594</ele>
        <time>2022-03-06T09:26:54Z</time>
      </trkpt>
      <trkpt lat="45.20176" lon="4.60326">
        <ele>920.59997558594</ele>
        <time>2022-03-06T09:26:55Z</time>
      </trkpt>
      <trkpt lat="45.20183" lon="4.60323">
        <ele>920.40002441406</ele>
        <time>2022-03-06T09:27:00Z</time>
      </trkpt>
      <trkpt lat="45.20196" lon="4.6032">
        <ele>920.79998779297</ele>
        <time>2022-03-06T09:27:07Z</time>
      </trkpt>
      <trkpt lat="45.20246" lon="4.60303">
        <ele>921.79998779297</ele>
        <time>2022-03-06T09:27:26Z</time>
      </trkpt>
      <trkpt lat="45.20256" lon="4.60299">
        <ele>921.79998779297</ele>
        <time>2022-03-06T09:27:30Z</time>
      </trkpt>
      <trkpt lat="45.20282" lon="4.60296">
        <ele>922.40002441406</ele>
        <time>2022-03-06T09:27:43Z</time>
      </trkpt>
      <trkpt lat="45.20316" lon="4.60294">
        <ele>921.79998779297</ele>
        <time>2022-03-06T09:27:54Z</time>
      </trkpt>
      <trkpt lat="45.20341" lon="4.6029">
        <ele>921.79998779297</ele>
        <time>2022-03-06T09:28:00Z</time>
      </trkpt>
      <trkpt lat="45.2038" lon="4.60279">
        <ele>922</ele>
        <time>2022-03-06T09:28:08Z</time>
      </trkpt>
      <trkpt lat="45.20402" lon="4.60275">
        <ele>922.20001220703</ele>
        <time>2022-03-06T09:28:14Z</time>
      </trkpt>
      <trkpt lat="45.20441" lon="4.60251">
        <ele>922</ele>
        <time>2022-03-06T09:28:26Z</time>
      </trkpt>
      <trkpt lat="45.20479" lon="4.6024">
        <ele>922.20001220703</ele>
        <time>2022-03-06T09:28:37Z</time>
      </trkpt>
      <trkpt lat="45.20511" lon="4.60221">
        <ele>922.79998779297</ele>
        <time>2022-03-06T09:28:47Z</time>
      </trkpt>
      <trkpt lat="45.20537" lon="4.60206">
        <ele>922.59997558594</ele>
        <time>2022-03-06T09:28:55Z</time>
      </trkpt>
      <trkpt lat="45.20542" lon="4.60203">
        <ele>922.40002441406</ele>
        <time>2022-03-06T09:28:58Z</time>
      </trkpt>
      <trkpt lat="45.20563" lon="4.60202">
        <ele>922</ele>
        <time>2022-03-06T09:29:09Z</time>
      </trkpt>
      <trkpt lat="45.2059" lon="4.60219">
        <ele>921.40002441406</ele>
        <time>2022-03-06T09:29:23Z</time>
      </trkpt>
      <trkpt lat="45.20619" lon="4.60256">
        <ele>918.59997558594</ele>
        <time>2022-03-06T09:29:35Z</time>
      </trkpt>
      <trkpt lat="45.20621" lon="4.60258">
        <ele>918.40002441406</ele>
        <time>2022-03-06T09:29:36Z</time>
      </trkpt>
      <trkpt lat="45.20627" lon="4.60269">
        <ele>917.59997558594</ele>
        <time>2022-03-06T09:29:40Z</time>
      </trkpt>
      <trkpt lat="45.20633" lon="4.60274">
        <ele>917.20001220703</ele>
        <time>2022-03-06T09:29:43Z</time>
      </trkpt>
      <trkpt lat="45.20637" lon="4.60281">
        <ele>917.40002441406</ele>
        <time>2022-03-06T09:29:47Z</time>
      </trkpt>
      <trkpt lat="45.20642" lon="4.60303">
        <ele>918.59997558594</ele>
        <time>2022-03-06T09:29:59Z</time>
      </trkpt>
      <trkpt lat="45.20655" lon="4.6032">
        <ele>919</ele>
        <time>2022-03-06T09:30:10Z</time>
      </trkpt>
      <trkpt lat="45.2067" lon="4.60333">
        <ele>916.79998779297</ele>
        <time>2022-03-06T09:30:17Z</time>
      </trkpt>
      <trkpt lat="45.20679" lon="4.60341">
        <ele>914.79998779297</ele>
        <time>2022-03-06T09:30:22Z</time>
      </trkpt>
      <trkpt lat="45.20687" lon="4.60346">
        <ele>913.59997558594</ele>
        <time>2022-03-06T09:30:27Z</time>
      </trkpt>
      <trkpt lat="45.20689" lon="4.60348">
        <ele>913.40002441406</ele>
        <time>2022-03-06T09:30:28Z</time>
      </trkpt>
      <trkpt lat="45.20696" lon="4.60361">
        <ele>912.59997558594</ele>
        <time>2022-03-06T09:30:34Z</time>
      </trkpt>
      <trkpt lat="45.20721" lon="4.60391">
        <ele>913.59997558594</ele>
        <time>2022-03-06T09:30:50Z</time>
      </trkpt>
      <trkpt lat="45.20723" lon="4.60397">
        <ele>913.59997558594</ele>
        <time>2022-03-06T09:31:00Z</time>
      </trkpt>
      <trkpt lat="45.20724" lon="4.60403">
        <ele>914.79998779297</ele>
        <time>2022-03-06T09:31:15Z</time>
      </trkpt>
      <trkpt lat="45.20725" lon="4.60407">
        <ele>916</ele>
        <time>2022-03-06T09:31:38Z</time>
      </trkpt>
      <trkpt lat="45.20731" lon="4.60415">
        <ele>916</ele>
        <time>2022-03-06T09:31:42Z</time>
      </trkpt>
      <trkpt lat="45.20743" lon="4.60434">
        <ele>916.59997558594</ele>
        <time>2022-03-06T09:31:52Z</time>
      </trkpt>
      <trkpt lat="45.20748" lon="4.60436">
        <ele>916.79998779297</ele>
        <time>2022-03-06T09:31:55Z</time>
      </trkpt>
      <trkpt lat="45.20758" lon="4.60457">
        <ele>916.40002441406</ele>
        <time>2022-03-06T09:32:01Z</time>
      </trkpt>
      <trkpt lat="45.20765" lon="4.60461">
        <ele>916.59997558594</ele>
        <time>2022-03-06T09:32:05Z</time>
      </trkpt>
      <trkpt lat="45.20776" lon="4.60461">
        <ele>916.40002441406</ele>
        <time>2022-03-06T09:32:09Z</time>
      </trkpt>
      <trkpt lat="45.20789" lon="4.60456">
        <ele>914</ele>
        <time>2022-03-06T09:32:15Z</time>
      </trkpt>
      <trkpt lat="45.20808" lon="4.60469">
        <ele>911.59997558594</ele>
        <time>2022-03-06T09:32:21Z</time>
      </trkpt>
      <trkpt lat="45.20809" lon="4.60471">
        <ele>911.40002441406</ele>
        <time>2022-03-06T09:32:22Z</time>
      </trkpt>
      <trkpt lat="45.20809" lon="4.60471">
        <ele>910.79998779297</ele>
        <time>2022-03-06T09:32:23Z</time>
      </trkpt>
      <trkpt lat="45.20816" lon="4.60475">
        <ele>909.79998779297</ele>
        <time>2022-03-06T09:32:25Z</time>
      </trkpt>
      <trkpt lat="45.20831" lon="4.6047">
        <ele>908.20001220703</ele>
        <time>2022-03-06T09:32:29Z</time>
      </trkpt>
      <trkpt lat="45.20831" lon="4.6047">
        <ele>908</ele>
        <time>2022-03-06T09:32:30Z</time>
      </trkpt>
      <trkpt lat="45.20849" lon="4.60481">
        <ele>905.79998779297</ele>
        <time>2022-03-06T09:32:34Z</time>
      </trkpt>
      <trkpt lat="45.20852" lon="4.60482">
        <ele>904.59997558594</ele>
        <time>2022-03-06T09:32:36Z</time>
      </trkpt>
      <trkpt lat="45.20859" lon="4.60481">
        <ele>904.40002441406</ele>
        <time>2022-03-06T09:32:37Z</time>
      </trkpt>
      <trkpt lat="45.20872" lon="4.60483">
        <ele>903.79998779297</ele>
        <time>2022-03-06T09:32:41Z</time>
      </trkpt>
      <trkpt lat="45.20889" lon="4.60502">
        <ele>903.79998779297</ele>
        <time>2022-03-06T09:32:48Z</time>
      </trkpt>
      <trkpt lat="45.20904" lon="4.60507">
        <ele>901.79998779297</ele>
        <time>2022-03-06T09:32:55Z</time>
      </trkpt>
      <trkpt lat="45.20922" lon="4.60513">
        <ele>901.20001220703</ele>
        <time>2022-03-06T09:33:00Z</time>
      </trkpt>
      <trkpt lat="45.20949" lon="4.60523">
        <ele>898.59997558594</ele>
        <time>2022-03-06T09:33:11Z</time>
      </trkpt>
      <trkpt lat="45.20949" lon="4.60523">
        <ele>898.40002441406</ele>
        <time>2022-03-06T09:33:12Z</time>
      </trkpt>
      <trkpt lat="45.2096" lon="4.60526">
        <ele>898.40002441406</ele>
        <time>2022-03-06T09:33:14Z</time>
      </trkpt>
      <trkpt lat="45.20972" lon="4.60529">
        <ele>897.79998779297</ele>
        <time>2022-03-06T09:33:18Z</time>
      </trkpt>
      <trkpt lat="45.20993" lon="4.6054">
        <ele>897.40002441406</ele>
        <time>2022-03-06T09:33:26Z</time>
      </trkpt>
      <trkpt lat="45.21025" lon="4.60563">
        <ele>896.20001220703</ele>
        <time>2022-03-06T09:33:36Z</time>
      </trkpt>
      <trkpt lat="45.21044" lon="4.60587">
        <ele>892.40002441406</ele>
        <time>2022-03-06T09:33:43Z</time>
      </trkpt>
      <trkpt lat="45.21048" lon="4.6059">
        <ele>891</ele>
        <time>2022-03-06T09:33:45Z</time>
      </trkpt>
      <trkpt lat="45.21052" lon="4.60598">
        <ele>889.40002441406</ele>
        <time>2022-03-06T09:33:48Z</time>
      </trkpt>
      <trkpt lat="45.21061" lon="4.60612">
        <ele>887.40002441406</ele>
        <time>2022-03-06T09:33:52Z</time>
      </trkpt>
      <trkpt lat="45.21063" lon="4.60613">
        <ele>886.20001220703</ele>
        <time>2022-03-06T09:33:54Z</time>
      </trkpt>
      <trkpt lat="45.21074" lon="4.60619">
        <ele>883.59997558594</ele>
        <time>2022-03-06T09:33:58Z</time>
      </trkpt>
      <trkpt lat="45.21096" lon="4.60647">
        <ele>883.20001220703</ele>
        <time>2022-03-06T09:34:11Z</time>
      </trkpt>
      <trkpt lat="45.21098" lon="4.6065">
        <ele>883</ele>
        <time>2022-03-06T09:34:12Z</time>
      </trkpt>
      <trkpt lat="45.21112" lon="4.60662">
        <ele>881.79998779297</ele>
        <time>2022-03-06T09:34:16Z</time>
      </trkpt>
      <trkpt lat="45.21118" lon="4.60668">
        <ele>881</ele>
        <time>2022-03-06T09:34:19Z</time>
      </trkpt>
      <trkpt lat="45.21128" lon="4.60682">
        <ele>878.79998779297</ele>
        <time>2022-03-06T09:34:24Z</time>
      </trkpt>
      <trkpt lat="45.21139" lon="4.60703">
        <ele>877.20001220703</ele>
        <time>2022-03-06T09:34:30Z</time>
      </trkpt>
      <trkpt lat="45.21151" lon="4.60726">
        <ele>876.40002441406</ele>
        <time>2022-03-06T09:34:36Z</time>
      </trkpt>
      <trkpt lat="45.21156" lon="4.60741">
        <ele>876.20001220703</ele>
        <time>2022-03-06T09:34:39Z</time>
      </trkpt>
      <trkpt lat="45.2116" lon="4.60756">
        <ele>875.40002441406</ele>
        <time>2022-03-06T09:34:42Z</time>
      </trkpt>
      <trkpt lat="45.21169" lon="4.60786">
        <ele>875.20001220703</ele>
        <time>2022-03-06T09:34:48Z</time>
      </trkpt>
      <trkpt lat="45.21169" lon="4.6079">
        <ele>875.20001220703</ele>
        <time>2022-03-06T09:34:49Z</time>
      </trkpt>
      <trkpt lat="45.21177" lon="4.60807">
        <ele>875.79998779297</ele>
        <time>2022-03-06T09:34:55Z</time>
      </trkpt>
      <trkpt lat="45.21194" lon="4.6085">
        <ele>875.79998779297</ele>
        <time>2022-03-06T09:35:07Z</time>
      </trkpt>
      <trkpt lat="45.21196" lon="4.6086">
        <ele>875.40002441406</ele>
        <time>2022-03-06T09:35:09Z</time>
      </trkpt>
      <trkpt lat="45.21204" lon="4.60884">
        <ele>874.59997558594</ele>
        <time>2022-03-06T09:35:15Z</time>
      </trkpt>
      <trkpt lat="45.21215" lon="4.609">
        <ele>873.79998779297</ele>
        <time>2022-03-06T09:35:18Z</time>
      </trkpt>
      <trkpt lat="45.21235" lon="4.60922">
        <ele>872.79998779297</ele>
        <time>2022-03-06T09:35:26Z</time>
      </trkpt>
      <trkpt lat="45.2124" lon="4.60941">
        <ele>869.59997558594</ele>
        <time>2022-03-06T09:35:33Z</time>
      </trkpt>
      <trkpt lat="45.21247" lon="4.6095">
        <ele>866.79998779297</ele>
        <time>2022-03-06T09:35:38Z</time>
      </trkpt>
      <trkpt lat="45.2125" lon="4.60956">
        <ele>864.40002441406</ele>
        <time>2022-03-06T09:35:42Z</time>
      </trkpt>
      <trkpt lat="45.21254" lon="4.60966">
        <ele>861</ele>
        <time>2022-03-06T09:35:48Z</time>
      </trkpt>
      <trkpt lat="45.21257" lon="4.60973">
        <ele>857.79998779297</ele>
        <time>2022-03-06T09:35:53Z</time>
      </trkpt>
      <trkpt lat="45.21254" lon="4.60991">
        <ele>854.59997558594</ele>
        <time>2022-03-06T09:35:59Z</time>
      </trkpt>
      <trkpt lat="45.21257" lon="4.61002">
        <ele>852.40002441406</ele>
        <time>2022-03-06T09:36:03Z</time>
      </trkpt>
      <trkpt lat="45.2126" lon="4.61014">
        <ele>851.20001220703</ele>
        <time>2022-03-06T09:36:06Z</time>
      </trkpt>
      <trkpt lat="45.2126" lon="4.61023">
        <ele>849</ele>
        <time>2022-03-06T09:36:09Z</time>
      </trkpt>
      <trkpt lat="45.21262" lon="4.61042">
        <ele>846.59997558594</ele>
        <time>2022-03-06T09:36:13Z</time>
      </trkpt>
      <trkpt lat="45.21264" lon="4.61065">
        <ele>843.79998779297</ele>
        <time>2022-03-06T09:36:18Z</time>
      </trkpt>
      <trkpt lat="45.21264" lon="4.61071">
        <ele>843</ele>
        <time>2022-03-06T09:36:19Z</time>
      </trkpt>
      <trkpt lat="45.21263" lon="4.61097">
        <ele>839.40002441406</ele>
        <time>2022-03-06T09:36:25Z</time>
      </trkpt>
      <trkpt lat="45.21264" lon="4.61099">
        <ele>838.59997558594</ele>
        <time>2022-03-06T09:36:26Z</time>
      </trkpt>
      <trkpt lat="45.21263" lon="4.61116">
        <ele>835.20001220703</ele>
        <time>2022-03-06T09:36:31Z</time>
      </trkpt>
      <trkpt lat="45.21265" lon="4.61127">
        <ele>833.40002441406</ele>
        <time>2022-03-06T09:36:34Z</time>
      </trkpt>
      <trkpt lat="45.21269" lon="4.6114">
        <ele>830.59997558594</ele>
        <time>2022-03-06T09:36:37Z</time>
      </trkpt>
      <trkpt lat="45.21275" lon="4.61151">
        <ele>828.20001220703</ele>
        <time>2022-03-06T09:36:41Z</time>
      </trkpt>
      <trkpt lat="45.21278" lon="4.61153">
        <ele>827.40002441406</ele>
        <time>2022-03-06T09:36:42Z</time>
      </trkpt>
      <trkpt lat="45.21281" lon="4.61161">
        <ele>825</ele>
        <time>2022-03-06T09:36:46Z</time>
      </trkpt>
      <trkpt lat="45.21282" lon="4.61163">
        <ele>824.20001220703</ele>
        <time>2022-03-06T09:36:47Z</time>
      </trkpt>
      <trkpt lat="45.21287" lon="4.61167">
        <ele>823</ele>
        <time>2022-03-06T09:36:49Z</time>
      </trkpt>
      <trkpt lat="45.21292" lon="4.61177">
        <ele>820</ele>
        <time>2022-03-06T09:36:54Z</time>
      </trkpt>
      <trkpt lat="45.21292" lon="4.61177">
        <ele>819.79998779297</ele>
        <time>2022-03-06T09:36:55Z</time>
      </trkpt>
      <trkpt lat="45.21301" lon="4.61183">
        <ele>818.20001220703</ele>
        <time>2022-03-06T09:36:58Z</time>
      </trkpt>
      <trkpt lat="45.21314" lon="4.61191">
        <ele>814.40002441406</ele>
        <time>2022-03-06T09:37:04Z</time>
      </trkpt>
      <trkpt lat="45.21316" lon="4.61193">
        <ele>813.59997558594</ele>
        <time>2022-03-06T09:37:06Z</time>
      </trkpt>
      <trkpt lat="45.21321" lon="4.61195">
        <ele>810.59997558594</ele>
        <time>2022-03-06T09:37:09Z</time>
      </trkpt>
      <trkpt lat="45.21332" lon="4.61195">
        <ele>807.40002441406</ele>
        <time>2022-03-06T09:37:13Z</time>
      </trkpt>
      <trkpt lat="45.21332" lon="4.61195">
        <ele>807.20001220703</ele>
        <time>2022-03-06T09:37:14Z</time>
      </trkpt>
      <trkpt lat="45.21344" lon="4.61188">
        <ele>805.79998779297</ele>
        <time>2022-03-06T09:37:17Z</time>
      </trkpt>
      <trkpt lat="45.21358" lon="4.61188">
        <ele>802.79998779297</ele>
        <time>2022-03-06T09:37:21Z</time>
      </trkpt>
      <trkpt lat="45.21381" lon="4.61183">
        <ele>799.40002441406</ele>
        <time>2022-03-06T09:37:27Z</time>
      </trkpt>
      <trkpt lat="45.21387" lon="4.6118">
        <ele>797.40002441406</ele>
        <time>2022-03-06T09:37:29Z</time>
      </trkpt>
      <trkpt lat="45.21401" lon="4.61179">
        <ele>794.59997558594</ele>
        <time>2022-03-06T09:37:33Z</time>
      </trkpt>
      <trkpt lat="45.21405" lon="4.6118">
        <ele>793.40002441406</ele>
        <time>2022-03-06T09:37:34Z</time>
      </trkpt>
      <trkpt lat="45.21412" lon="4.61178">
        <ele>791.20001220703</ele>
        <time>2022-03-06T09:37:38Z</time>
      </trkpt>
      <trkpt lat="45.21418" lon="4.6118">
        <ele>790.20001220703</ele>
        <time>2022-03-06T09:37:40Z</time>
      </trkpt>
      <trkpt lat="45.21426" lon="4.61182">
        <ele>788.59997558594</ele>
        <time>2022-03-06T09:37:43Z</time>
      </trkpt>
      <trkpt lat="45.21429" lon="4.61184">
        <ele>785.79998779297</ele>
        <time>2022-03-06T09:37:47Z</time>
      </trkpt>
      <trkpt lat="45.21428" lon="4.61189">
        <ele>784.79998779297</ele>
        <time>2022-03-06T09:37:49Z</time>
      </trkpt>
      <trkpt lat="45.2143" lon="4.61196">
        <ele>783.20001220703</ele>
        <time>2022-03-06T09:37:52Z</time>
      </trkpt>
      <trkpt lat="45.21439" lon="4.61218">
        <ele>779.79998779297</ele>
        <time>2022-03-06T09:37:58Z</time>
      </trkpt>
      <trkpt lat="45.21443" lon="4.61238">
        <ele>776.59997558594</ele>
        <time>2022-03-06T09:38:02Z</time>
      </trkpt>
      <trkpt lat="45.21444" lon="4.61245">
        <ele>775.79998779297</ele>
        <time>2022-03-06T09:38:03Z</time>
      </trkpt>
      <trkpt lat="45.21447" lon="4.61278">
        <ele>773.40002441406</ele>
        <time>2022-03-06T09:38:08Z</time>
      </trkpt>
      <trkpt lat="45.21449" lon="4.61291">
        <ele>772.20001220703</ele>
        <time>2022-03-06T09:38:11Z</time>
      </trkpt>
      <trkpt lat="45.21463" lon="4.6131">
        <ele>769.79998779297</ele>
        <time>2022-03-06T09:38:14Z</time>
      </trkpt>
      <trkpt lat="45.21467" lon="4.61314">
        <ele>769.79998779297</ele>
        <time>2022-03-06T09:38:15Z</time>
      </trkpt>
      <trkpt lat="45.21482" lon="4.61327">
        <ele>768.40002441406</ele>
        <time>2022-03-06T09:38:18Z</time>
      </trkpt>
      <trkpt lat="45.21495" lon="4.61344">
        <ele>767.59997558594</ele>
        <time>2022-03-06T09:38:23Z</time>
      </trkpt>
      <trkpt lat="45.21511" lon="4.61344">
        <ele>767.79998779297</ele>
        <time>2022-03-06T09:38:32Z</time>
      </trkpt>
      <trkpt lat="45.21526" lon="4.61305">
        <ele>767.79998779297</ele>
        <time>2022-03-06T09:38:42Z</time>
      </trkpt>
      <trkpt lat="45.2152" lon="4.61277">
        <ele>767.20001220703</ele>
        <time>2022-03-06T09:38:45Z</time>
      </trkpt>
      <trkpt lat="45.21515" lon="4.61257">
        <ele>766.40002441406</ele>
        <time>2022-03-06T09:38:47Z</time>
      </trkpt>
      <trkpt lat="45.21512" lon="4.61195">
        <ele>763.40002441406</ele>
        <time>2022-03-06T09:38:53Z</time>
      </trkpt>
      <trkpt lat="45.21513" lon="4.61185">
        <ele>763</ele>
        <time>2022-03-06T09:38:54Z</time>
      </trkpt>
      <trkpt lat="45.21516" lon="4.61115">
        <ele>761</ele>
        <time>2022-03-06T09:39:00Z</time>
      </trkpt>
      <trkpt lat="45.21509" lon="4.61056">
        <ele>758.59997558594</ele>
        <time>2022-03-06T09:39:05Z</time>
      </trkpt>
      <trkpt lat="45.21502" lon="4.61031">
        <ele>756.79998779297</ele>
        <time>2022-03-06T09:39:09Z</time>
      </trkpt>
      <trkpt lat="45.21508" lon="4.61005">
        <ele>756.20001220703</ele>
        <time>2022-03-06T09:39:13Z</time>
      </trkpt>
      <trkpt lat="45.21505" lon="4.60968">
        <ele>756.40002441406</ele>
        <time>2022-03-06T09:39:21Z</time>
      </trkpt>
      <trkpt lat="45.21504" lon="4.60964">
        <ele>756.59997558594</ele>
        <time>2022-03-06T09:39:22Z</time>
      </trkpt>
      <trkpt lat="45.21504" lon="4.60939">
        <ele>759</ele>
        <time>2022-03-06T09:39:29Z</time>
      </trkpt>
      <trkpt lat="45.21504" lon="4.60925">
        <ele>759.59997558594</ele>
        <time>2022-03-06T09:39:31Z</time>
      </trkpt>
      <trkpt lat="45.21504" lon="4.60913">
        <ele>760</ele>
        <time>2022-03-06T09:39:34Z</time>
      </trkpt>
      <trkpt lat="45.21511" lon="4.60888">
        <ele>760.59997558594</ele>
        <time>2022-03-06T09:39:43Z</time>
      </trkpt>
      <trkpt lat="45.21516" lon="4.60889">
        <ele>760.79998779297</ele>
        <time>2022-03-06T09:39:46Z</time>
      </trkpt>
      <trkpt lat="45.2155" lon="4.60887">
        <ele>762</ele>
        <time>2022-03-06T09:40:00Z</time>
      </trkpt>
      <trkpt lat="45.21571" lon="4.60874">
        <ele>763.20001220703</ele>
        <time>2022-03-06T09:40:08Z</time>
      </trkpt>
      <trkpt lat="45.21582" lon="4.60865">
        <ele>764.20001220703</ele>
        <time>2022-03-06T09:40:12Z</time>
      </trkpt>
      <trkpt lat="45.2159" lon="4.60859">
        <ele>764.79998779297</ele>
        <time>2022-03-06T09:40:15Z</time>
      </trkpt>
      <trkpt lat="45.21605" lon="4.60853">
        <ele>765.79998779297</ele>
        <time>2022-03-06T09:40:23Z</time>
      </trkpt>
      <trkpt lat="45.21617" lon="4.60852">
        <ele>766.79998779297</ele>
        <time>2022-03-06T09:40:29Z</time>
      </trkpt>
      <trkpt lat="45.21629" lon="4.6085">
        <ele>768</ele>
        <time>2022-03-06T09:40:37Z</time>
      </trkpt>
      <trkpt lat="45.21654" lon="4.60841">
        <ele>769.40002441406</ele>
        <time>2022-03-06T09:40:50Z</time>
      </trkpt>
      <trkpt lat="45.2168" lon="4.60828">
        <ele>771.20001220703</ele>
        <time>2022-03-06T09:41:02Z</time>
      </trkpt>
      <trkpt lat="45.21693" lon="4.60823">
        <ele>773</ele>
        <time>2022-03-06T09:41:08Z</time>
      </trkpt>
      <trkpt lat="45.21698" lon="4.60817">
        <ele>774.20001220703</ele>
        <time>2022-03-06T09:41:12Z</time>
      </trkpt>
      <trkpt lat="45.21707" lon="4.60812">
        <ele>775.79998779297</ele>
        <time>2022-03-06T09:41:18Z</time>
      </trkpt>
      <trkpt lat="45.21733" lon="4.60836">
        <ele>776.79998779297</ele>
        <time>2022-03-06T09:41:30Z</time>
      </trkpt>
      <trkpt lat="45.21764" lon="4.6086">
        <ele>774.79998779297</ele>
        <time>2022-03-06T09:41:39Z</time>
      </trkpt>
      <trkpt lat="45.21807" lon="4.60896">
        <ele>771.79998779297</ele>
        <time>2022-03-06T09:41:49Z</time>
      </trkpt>
      <trkpt lat="45.2182" lon="4.60905">
        <ele>768.40002441406</ele>
        <time>2022-03-06T09:41:54Z</time>
      </trkpt>
      <trkpt lat="45.21824" lon="4.60908">
        <ele>767.40002441406</ele>
        <time>2022-03-06T09:41:55Z</time>
      </trkpt>
      <trkpt lat="45.21828" lon="4.60912">
        <ele>767.20001220703</ele>
        <time>2022-03-06T09:41:56Z</time>
      </trkpt>
      <trkpt lat="45.21848" lon="4.60934">
        <ele>763.20001220703</ele>
        <time>2022-03-06T09:42:03Z</time>
      </trkpt>
      <trkpt lat="45.21859" lon="4.60947">
        <ele>761</ele>
        <time>2022-03-06T09:42:07Z</time>
      </trkpt>
      <trkpt lat="45.21863" lon="4.60951">
        <ele>760.79998779297</ele>
        <time>2022-03-06T09:42:08Z</time>
      </trkpt>
      <trkpt lat="45.21873" lon="4.60963">
        <ele>757.79998779297</ele>
        <time>2022-03-06T09:42:12Z</time>
      </trkpt>
      <trkpt lat="45.21879" lon="4.60972">
        <ele>756.20001220703</ele>
        <time>2022-03-06T09:42:14Z</time>
      </trkpt>
      <trkpt lat="45.21914" lon="4.61005">
        <ele>752</ele>
        <time>2022-03-06T09:42:21Z</time>
      </trkpt>
      <trkpt lat="45.21967" lon="4.61047">
        <ele>749.20001220703</ele>
        <time>2022-03-06T09:42:29Z</time>
      </trkpt>
      <trkpt lat="45.22006" lon="4.61079">
        <ele>745.40002441406</ele>
        <time>2022-03-06T09:42:34Z</time>
      </trkpt>
      <trkpt lat="45.22014" lon="4.61086">
        <ele>744.20001220703</ele>
        <time>2022-03-06T09:42:35Z</time>
      </trkpt>
      <trkpt lat="45.22061" lon="4.61118">
        <ele>741.40002441406</ele>
        <time>2022-03-06T09:42:42Z</time>
      </trkpt>
      <trkpt lat="45.22086" lon="4.6114">
        <ele>740</ele>
        <time>2022-03-06T09:42:46Z</time>
      </trkpt>
      <trkpt lat="45.2212" lon="4.61181">
        <ele>737.20001220703</ele>
        <time>2022-03-06T09:42:51Z</time>
      </trkpt>
      <trkpt lat="45.22145" lon="4.61189">
        <ele>735.59997558594</ele>
        <time>2022-03-06T09:42:55Z</time>
      </trkpt>
      <trkpt lat="45.22164" lon="4.61183">
        <ele>734.20001220703</ele>
        <time>2022-03-06T09:42:58Z</time>
      </trkpt>
      <trkpt lat="45.22234" lon="4.61171">
        <ele>731</ele>
        <time>2022-03-06T09:43:06Z</time>
      </trkpt>
      <trkpt lat="45.22246" lon="4.61172">
        <ele>730.79998779297</ele>
        <time>2022-03-06T09:43:07Z</time>
      </trkpt>
      <trkpt lat="45.22274" lon="4.61184">
        <ele>727.59997558594</ele>
        <time>2022-03-06T09:43:10Z</time>
      </trkpt>
      <trkpt lat="45.22283" lon="4.6119">
        <ele>725.40002441406</ele>
        <time>2022-03-06T09:43:11Z</time>
      </trkpt>
      <trkpt lat="45.22317" lon="4.61216">
        <ele>722.20001220703</ele>
        <time>2022-03-06T09:43:15Z</time>
      </trkpt>
      <trkpt lat="45.22338" lon="4.61244">
        <ele>720.40002441406</ele>
        <time>2022-03-06T09:43:18Z</time>
      </trkpt>
      <trkpt lat="45.22356" lon="4.61273">
        <ele>718.79998779297</ele>
        <time>2022-03-06T09:43:21Z</time>
      </trkpt>
      <trkpt lat="45.22365" lon="4.61301">
        <ele>715</ele>
        <time>2022-03-06T09:43:24Z</time>
      </trkpt>
      <trkpt lat="45.22375" lon="4.61324">
        <ele>711.40002441406</ele>
        <time>2022-03-06T09:43:27Z</time>
      </trkpt>
      <trkpt lat="45.22381" lon="4.61339">
        <ele>708.79998779297</ele>
        <time>2022-03-06T09:43:30Z</time>
      </trkpt>
      <trkpt lat="45.22383" lon="4.61333">
        <ele>705.40002441406</ele>
        <time>2022-03-06T09:43:34Z</time>
      </trkpt>
      <trkpt lat="45.22381" lon="4.61315">
        <ele>703.40002441406</ele>
        <time>2022-03-06T09:43:40Z</time>
      </trkpt>
      <trkpt lat="45.22379" lon="4.6129">
        <ele>702.40002441406</ele>
        <time>2022-03-06T09:43:45Z</time>
      </trkpt>
      <trkpt lat="45.2238" lon="4.61266">
        <ele>701.79998779297</ele>
        <time>2022-03-06T09:43:48Z</time>
      </trkpt>
      <trkpt lat="45.22378" lon="4.6123">
        <ele>700</ele>
        <time>2022-03-06T09:43:52Z</time>
      </trkpt>
      <trkpt lat="45.22362" lon="4.61175">
        <ele>697.79998779297</ele>
        <time>2022-03-06T09:43:57Z</time>
      </trkpt>
      <trkpt lat="45.2235" lon="4.6114">
        <ele>696.40002441406</ele>
        <time>2022-03-06T09:44:00Z</time>
      </trkpt>
      <trkpt lat="45.22332" lon="4.61106">
        <ele>695.20001220703</ele>
        <time>2022-03-06T09:44:03Z</time>
      </trkpt>
      <trkpt lat="45.22312" lon="4.61058">
        <ele>692.20001220703</ele>
        <time>2022-03-06T09:44:07Z</time>
      </trkpt>
      <trkpt lat="45.22297" lon="4.6103">
        <ele>690.59997558594</ele>
        <time>2022-03-06T09:44:10Z</time>
      </trkpt>
      <trkpt lat="45.22276" lon="4.60983">
        <ele>688.20001220703</ele>
        <time>2022-03-06T09:44:14Z</time>
      </trkpt>
      <trkpt lat="45.2228" lon="4.60918">
        <ele>684</ele>
        <time>2022-03-06T09:44:19Z</time>
      </trkpt>
      <trkpt lat="45.22275" lon="4.60867">
        <ele>680.20001220703</ele>
        <time>2022-03-06T09:44:23Z</time>
      </trkpt>
      <trkpt lat="45.22261" lon="4.60845">
        <ele>677.20001220703</ele>
        <time>2022-03-06T09:44:27Z</time>
      </trkpt>
      <trkpt lat="45.22256" lon="4.6084">
        <ele>676.40002441406</ele>
        <time>2022-03-06T09:44:28Z</time>
      </trkpt>
      <trkpt lat="45.22251" lon="4.60836">
        <ele>676.20001220703</ele>
        <time>2022-03-06T09:44:29Z</time>
      </trkpt>
      <trkpt lat="45.22239" lon="4.60827">
        <ele>674.79998779297</ele>
        <time>2022-03-06T09:44:31Z</time>
      </trkpt>
      <trkpt lat="45.22209" lon="4.60823">
        <ele>671.40002441406</ele>
        <time>2022-03-06T09:44:35Z</time>
      </trkpt>
      <trkpt lat="45.22181" lon="4.60804">
        <ele>669.79998779297</ele>
        <time>2022-03-06T09:44:39Z</time>
      </trkpt>
      <trkpt lat="45.22176" lon="4.60795">
        <ele>668.59997558594</ele>
        <time>2022-03-06T09:44:40Z</time>
      </trkpt>
      <trkpt lat="45.22171" lon="4.60785">
        <ele>668.40002441406</ele>
        <time>2022-03-06T09:44:41Z</time>
      </trkpt>
      <trkpt lat="45.22153" lon="4.6075">
        <ele>666.40002441406</ele>
        <time>2022-03-06T09:44:44Z</time>
      </trkpt>
      <trkpt lat="45.22119" lon="4.60692">
        <ele>662.79998779297</ele>
        <time>2022-03-06T09:44:49Z</time>
      </trkpt>
      <trkpt lat="45.22087" lon="4.60645">
        <ele>659.40002441406</ele>
        <time>2022-03-06T09:44:54Z</time>
      </trkpt>
      <trkpt lat="45.2208" lon="4.60637">
        <ele>659.20001220703</ele>
        <time>2022-03-06T09:44:55Z</time>
      </trkpt>
      <trkpt lat="45.22055" lon="4.60607">
        <ele>657</ele>
        <time>2022-03-06T09:44:59Z</time>
      </trkpt>
      <trkpt lat="45.22034" lon="4.60589">
        <ele>655.79998779297</ele>
        <time>2022-03-06T09:45:02Z</time>
      </trkpt>
      <trkpt lat="45.22004" lon="4.60578">
        <ele>653.79998779297</ele>
        <time>2022-03-06T09:45:06Z</time>
      </trkpt>
      <trkpt lat="45.21989" lon="4.60556">
        <ele>650.40002441406</ele>
        <time>2022-03-06T09:45:10Z</time>
      </trkpt>
      <trkpt lat="45.21999" lon="4.60511">
        <ele>647.20001220703</ele>
        <time>2022-03-06T09:45:15Z</time>
      </trkpt>
      <trkpt lat="45.22007" lon="4.60481">
        <ele>645.59997558594</ele>
        <time>2022-03-06T09:45:18Z</time>
      </trkpt>
      <trkpt lat="45.22019" lon="4.6045">
        <ele>643.59997558594</ele>
        <time>2022-03-06T09:45:21Z</time>
      </trkpt>
      <trkpt lat="45.22025" lon="4.60402">
        <ele>641</ele>
        <time>2022-03-06T09:45:25Z</time>
      </trkpt>
      <trkpt lat="45.22031" lon="4.60357">
        <ele>638</ele>
        <time>2022-03-06T09:45:29Z</time>
      </trkpt>
      <trkpt lat="45.22029" lon="4.60301">
        <ele>634.40002441406</ele>
        <time>2022-03-06T09:45:33Z</time>
      </trkpt>
      <trkpt lat="45.22026" lon="4.60282">
        <ele>633.20001220703</ele>
        <time>2022-03-06T09:45:35Z</time>
      </trkpt>
      <trkpt lat="45.2202" lon="4.60264">
        <ele>632.20001220703</ele>
        <time>2022-03-06T09:45:37Z</time>
      </trkpt>
      <trkpt lat="45.22004" lon="4.60233">
        <ele>631.20001220703</ele>
        <time>2022-03-06T09:45:42Z</time>
      </trkpt>
      <trkpt lat="45.21998" lon="4.60228">
        <ele>631.20001220703</ele>
        <time>2022-03-06T09:45:44Z</time>
      </trkpt>
      <trkpt lat="45.21976" lon="4.60209">
        <ele>633</ele>
        <time>2022-03-06T09:45:53Z</time>
      </trkpt>
      <trkpt lat="45.21959" lon="4.60201">
        <ele>634.20001220703</ele>
        <time>2022-03-06T09:46:00Z</time>
      </trkpt>
      <trkpt lat="45.21953" lon="4.60196">
        <ele>635.59997558594</ele>
        <time>2022-03-06T09:46:03Z</time>
      </trkpt>
      <trkpt lat="45.21932" lon="4.60182">
        <ele>638.40002441406</ele>
        <time>2022-03-06T09:46:14Z</time>
      </trkpt>
      <trkpt lat="45.21908" lon="4.60171">
        <ele>640.59997558594</ele>
        <time>2022-03-06T09:46:26Z</time>
      </trkpt>
      <trkpt lat="45.21886" lon="4.60157">
        <ele>642</ele>
        <time>2022-03-06T09:46:36Z</time>
      </trkpt>
      <trkpt lat="45.21875" lon="4.60151">
        <ele>643.20001220703</ele>
        <time>2022-03-06T09:46:41Z</time>
      </trkpt>
      <trkpt lat="45.21871" lon="4.6015">
        <ele>644</ele>
        <time>2022-03-06T09:46:44Z</time>
      </trkpt>
      <trkpt lat="45.21859" lon="4.60144">
        <ele>644.79998779297</ele>
        <time>2022-03-06T09:46:51Z</time>
      </trkpt>
      <trkpt lat="45.2184" lon="4.60135">
        <ele>647.79998779297</ele>
        <time>2022-03-06T09:47:03Z</time>
      </trkpt>
      <trkpt lat="45.21819" lon="4.60132">
        <ele>649.40002441406</ele>
        <time>2022-03-06T09:47:13Z</time>
      </trkpt>
      <trkpt lat="45.21804" lon="4.60131">
        <ele>650.59997558594</ele>
        <time>2022-03-06T09:47:21Z</time>
      </trkpt>
      <trkpt lat="45.21804" lon="4.6013">
        <ele>650.79998779297</ele>
        <time>2022-03-06T09:47:23Z</time>
      </trkpt>
      <trkpt lat="45.21801" lon="4.60128">
        <ele>651.20001220703</ele>
        <time>2022-03-06T09:47:25Z</time>
      </trkpt>
      <trkpt lat="45.2179" lon="4.60123">
        <ele>652.40002441406</ele>
        <time>2022-03-06T09:47:32Z</time>
      </trkpt>
      <trkpt lat="45.21786" lon="4.60118">
        <ele>653.20001220703</ele>
        <time>2022-03-06T09:47:36Z</time>
      </trkpt>
      <trkpt lat="45.21781" lon="4.60115">
        <ele>653.59997558594</ele>
        <time>2022-03-06T09:47:40Z</time>
      </trkpt>
      <trkpt lat="45.21758" lon="4.60107">
        <ele>655.79998779297</ele>
        <time>2022-03-06T09:47:52Z</time>
      </trkpt>
      <trkpt lat="45.2175" lon="4.60106">
        <ele>656.20001220703</ele>
        <time>2022-03-06T09:47:56Z</time>
      </trkpt>
      <trkpt lat="45.2174" lon="4.60106">
        <ele>657</ele>
        <time>2022-03-06T09:48:02Z</time>
      </trkpt>
      <trkpt lat="45.21712" lon="4.60103">
        <ele>659.59997558594</ele>
        <time>2022-03-06T09:48:17Z</time>
      </trkpt>
      <trkpt lat="45.2171" lon="4.60103">
        <ele>659.79998779297</ele>
        <time>2022-03-06T09:48:18Z</time>
      </trkpt>
      <trkpt lat="45.21708" lon="4.60098">
        <ele>660.40002441406</ele>
        <time>2022-03-06T09:48:22Z</time>
      </trkpt>
      <trkpt lat="45.21696" lon="4.60089">
        <ele>661.59997558594</ele>
        <time>2022-03-06T09:48:30Z</time>
      </trkpt>
      <trkpt lat="45.21692" lon="4.60086">
        <ele>662.79998779297</ele>
        <time>2022-03-06T09:48:34Z</time>
      </trkpt>
      <trkpt lat="45.21682" lon="4.60074">
        <ele>664.40002441406</ele>
        <time>2022-03-06T09:48:43Z</time>
      </trkpt>
      <trkpt lat="45.21673" lon="4.60067">
        <ele>665.40002441406</ele>
        <time>2022-03-06T09:48:50Z</time>
      </trkpt>
      <trkpt lat="45.21661" lon="4.60053">
        <ele>667</ele>
        <time>2022-03-06T09:48:59Z</time>
      </trkpt>
      <trkpt lat="45.21645" lon="4.60036">
        <ele>668</ele>
        <time>2022-03-06T09:49:06Z</time>
      </trkpt>
      <trkpt lat="45.21641" lon="4.60028">
        <ele>669.20001220703</ele>
        <time>2022-03-06T09:49:12Z</time>
      </trkpt>
      <trkpt lat="45.21637" lon="4.6002">
        <ele>669.40002441406</ele>
        <time>2022-03-06T09:49:15Z</time>
      </trkpt>
      <trkpt lat="45.21637" lon="4.60017">
        <ele>669.59997558594</ele>
        <time>2022-03-06T09:49:17Z</time>
      </trkpt>
      <trkpt lat="45.21639" lon="4.60012">
        <ele>670.40002441406</ele>
        <time>2022-03-06T09:49:22Z</time>
      </trkpt>
      <trkpt lat="45.21644" lon="4.59991">
        <ele>671.20001220703</ele>
        <time>2022-03-06T09:49:26Z</time>
      </trkpt>
      <trkpt lat="45.21644" lon="4.59971">
        <ele>672.40002441406</ele>
        <time>2022-03-06T09:49:34Z</time>
      </trkpt>
      <trkpt lat="45.21646" lon="4.59966">
        <ele>672.59997558594</ele>
        <time>2022-03-06T09:49:36Z</time>
      </trkpt>
      <trkpt lat="45.21649" lon="4.59956">
        <ele>673.40002441406</ele>
        <time>2022-03-06T09:49:41Z</time>
      </trkpt>
      <trkpt lat="45.21653" lon="4.59949">
        <ele>673.79998779297</ele>
        <time>2022-03-06T09:49:44Z</time>
      </trkpt>
      <trkpt lat="45.21655" lon="4.59936">
        <ele>674.79998779297</ele>
        <time>2022-03-06T09:49:50Z</time>
      </trkpt>
      <trkpt lat="45.21659" lon="4.59922">
        <ele>676.40002441406</ele>
        <time>2022-03-06T09:49:57Z</time>
      </trkpt>
      <trkpt lat="45.21662" lon="4.59913">
        <ele>677.20001220703</ele>
        <time>2022-03-06T09:50:02Z</time>
      </trkpt>
      <trkpt lat="45.21676" lon="4.59888">
        <ele>678.79998779297</ele>
        <time>2022-03-06T09:50:12Z</time>
      </trkpt>
      <trkpt lat="45.21685" lon="4.59869">
        <ele>679.79998779297</ele>
        <time>2022-03-06T09:50:20Z</time>
      </trkpt>
      <trkpt lat="45.21698" lon="4.5984">
        <ele>681</ele>
        <time>2022-03-06T09:50:29Z</time>
      </trkpt>
      <trkpt lat="45.21708" lon="4.59812">
        <ele>683</ele>
        <time>2022-03-06T09:50:39Z</time>
      </trkpt>
      <trkpt lat="45.21714" lon="4.59791">
        <ele>684</ele>
        <time>2022-03-06T09:50:45Z</time>
      </trkpt>
      <trkpt lat="45.21715" lon="4.59786">
        <ele>684</ele>
        <time>2022-03-06T09:50:47Z</time>
      </trkpt>
      <trkpt lat="45.21706" lon="4.5977">
        <ele>685.20001220703</ele>
        <time>2022-03-06T09:50:53Z</time>
      </trkpt>
      <trkpt lat="45.21706" lon="4.59768">
        <ele>685.40002441406</ele>
        <time>2022-03-06T09:50:54Z</time>
      </trkpt>
      <trkpt lat="45.21706" lon="4.59765">
        <ele>685.40002441406</ele>
        <time>2022-03-06T09:50:55Z</time>
      </trkpt>
      <trkpt lat="45.21699" lon="4.59753">
        <ele>686</ele>
        <time>2022-03-06T09:51:00Z</time>
      </trkpt>
      <trkpt lat="45.21679" lon="4.59727">
        <ele>688.40002441406</ele>
        <time>2022-03-06T09:51:13Z</time>
      </trkpt>
      <trkpt lat="45.21652" lon="4.59706">
        <ele>690.79998779297</ele>
        <time>2022-03-06T09:51:27Z</time>
      </trkpt>
      <trkpt lat="45.21619" lon="4.59692">
        <ele>693.40002441406</ele>
        <time>2022-03-06T09:51:42Z</time>
      </trkpt>
      <trkpt lat="45.21593" lon="4.59687">
        <ele>695</ele>
        <time>2022-03-06T09:51:56Z</time>
      </trkpt>
      <trkpt lat="45.21566" lon="4.59675">
        <ele>697.59997558594</ele>
        <time>2022-03-06T09:52:11Z</time>
      </trkpt>
      <trkpt lat="45.21539" lon="4.59654">
        <ele>700.20001220703</ele>
        <time>2022-03-06T09:52:26Z</time>
      </trkpt>
      <trkpt lat="45.21519" lon="4.59635">
        <ele>701.79998779297</ele>
        <time>2022-03-06T09:52:38Z</time>
      </trkpt>
      <trkpt lat="45.21502" lon="4.59623">
        <ele>702.79998779297</ele>
        <time>2022-03-06T09:52:49Z</time>
      </trkpt>
      <trkpt lat="45.21491" lon="4.59613">
        <ele>703.79998779297</ele>
        <time>2022-03-06T09:52:55Z</time>
      </trkpt>
      <trkpt lat="45.21489" lon="4.59607">
        <ele>704.59997558594</ele>
        <time>2022-03-06T09:52:58Z</time>
      </trkpt>
      <trkpt lat="45.21479" lon="4.59592">
        <ele>705.40002441406</ele>
        <time>2022-03-06T09:53:03Z</time>
      </trkpt>
      <trkpt lat="45.21466" lon="4.59581">
        <ele>706.59997558594</ele>
        <time>2022-03-06T09:53:11Z</time>
      </trkpt>
      <trkpt lat="45.21446" lon="4.5957">
        <ele>708.59997558594</ele>
        <time>2022-03-06T09:53:21Z</time>
      </trkpt>
      <trkpt lat="45.2143" lon="4.59561">
        <ele>710.79998779297</ele>
        <time>2022-03-06T09:53:31Z</time>
      </trkpt>
      <trkpt lat="45.21417" lon="4.59548">
        <ele>712</ele>
        <time>2022-03-06T09:53:39Z</time>
      </trkpt>
      <trkpt lat="45.21408" lon="4.59519">
        <ele>712.59997558594</ele>
        <time>2022-03-06T09:53:47Z</time>
      </trkpt>
      <trkpt lat="45.21402" lon="4.59506">
        <ele>713</ele>
        <time>2022-03-06T09:53:53Z</time>
      </trkpt>
      <trkpt lat="45.21398" lon="4.59514">
        <ele>713.59997558594</ele>
        <time>2022-03-06T09:53:59Z</time>
      </trkpt>
      <trkpt lat="45.21393" lon="4.59545">
        <ele>716.79998779297</ele>
        <time>2022-03-06T09:54:12Z</time>
      </trkpt>
      <trkpt lat="45.21391" lon="4.59555">
        <ele>717.40002441406</ele>
        <time>2022-03-06T09:54:16Z</time>
      </trkpt>
      <trkpt lat="45.21389" lon="4.59568">
        <ele>718.59997558594</ele>
        <time>2022-03-06T09:54:21Z</time>
      </trkpt>
      <trkpt lat="45.21386" lon="4.59589">
        <ele>719.79998779297</ele>
        <time>2022-03-06T09:54:30Z</time>
      </trkpt>
      <trkpt lat="45.21382" lon="4.59598">
        <ele>720.59997558594</ele>
        <time>2022-03-06T09:54:35Z</time>
      </trkpt>
      <trkpt lat="45.21377" lon="4.59613">
        <ele>722.59997558594</ele>
        <time>2022-03-06T09:54:44Z</time>
      </trkpt>
      <trkpt lat="45.21374" lon="4.59625">
        <ele>723.79998779297</ele>
        <time>2022-03-06T09:54:50Z</time>
      </trkpt>
      <trkpt lat="45.21369" lon="4.59652">
        <ele>726</ele>
        <time>2022-03-06T09:55:02Z</time>
      </trkpt>
      <trkpt lat="45.21369" lon="4.59687">
        <ele>729</ele>
        <time>2022-03-06T09:55:15Z</time>
      </trkpt>
      <trkpt lat="45.21366" lon="4.59719">
        <ele>731.20001220703</ele>
        <time>2022-03-06T09:55:27Z</time>
      </trkpt>
      <trkpt lat="45.21356" lon="4.59749">
        <ele>733</ele>
        <time>2022-03-06T09:55:38Z</time>
      </trkpt>
      <trkpt lat="45.21347" lon="4.59782">
        <ele>734.40002441406</ele>
        <time>2022-03-06T09:55:50Z</time>
      </trkpt>
      <trkpt lat="45.21336" lon="4.59816">
        <ele>736.20001220703</ele>
        <time>2022-03-06T09:56:04Z</time>
      </trkpt>
      <trkpt lat="45.21323" lon="4.59854">
        <ele>738.79998779297</ele>
        <time>2022-03-06T09:56:20Z</time>
      </trkpt>
      <trkpt lat="45.21309" lon="4.59882">
        <ele>741.59997558594</ele>
        <time>2022-03-06T09:56:34Z</time>
      </trkpt>
      <trkpt lat="45.21289" lon="4.59902">
        <ele>744.20001220703</ele>
        <time>2022-03-06T09:56:49Z</time>
      </trkpt>
      <trkpt lat="45.21269" lon="4.59927">
        <ele>747.40002441406</ele>
        <time>2022-03-06T09:57:06Z</time>
      </trkpt>
      <trkpt lat="45.21265" lon="4.59931">
        <ele>747.59997558594</ele>
        <time>2022-03-06T09:57:09Z</time>
      </trkpt>
      <trkpt lat="45.21262" lon="4.59937">
        <ele>748.59997558594</ele>
        <time>2022-03-06T09:57:13Z</time>
      </trkpt>
      <trkpt lat="45.21248" lon="4.59944">
        <ele>750.79998779297</ele>
        <time>2022-03-06T09:57:25Z</time>
      </trkpt>
      <trkpt lat="45.21244" lon="4.59951">
        <ele>751.79998779297</ele>
        <time>2022-03-06T09:57:29Z</time>
      </trkpt>
      <trkpt lat="45.21237" lon="4.5996">
        <ele>753.79998779297</ele>
        <time>2022-03-06T09:57:39Z</time>
      </trkpt>
      <trkpt lat="45.21229" lon="4.59966">
        <ele>755.59997558594</ele>
        <time>2022-03-06T09:57:48Z</time>
      </trkpt>
      <trkpt lat="45.21222" lon="4.59971">
        <ele>757</ele>
        <time>2022-03-06T09:57:55Z</time>
      </trkpt>
      <trkpt lat="45.21219" lon="4.59972">
        <ele>757.59997558594</ele>
        <time>2022-03-06T09:57:58Z</time>
      </trkpt>
      <trkpt lat="45.21212" lon="4.59964">
        <ele>759.20001220703</ele>
        <time>2022-03-06T09:58:05Z</time>
      </trkpt>
      <trkpt lat="45.21204" lon="4.59958">
        <ele>759.79998779297</ele>
        <time>2022-03-06T09:58:08Z</time>
      </trkpt>
      <trkpt lat="45.21201" lon="4.59954">
        <ele>760.40002441406</ele>
        <time>2022-03-06T09:58:11Z</time>
      </trkpt>
      <trkpt lat="45.21197" lon="4.59952">
        <ele>760.79998779297</ele>
        <time>2022-03-06T09:58:13Z</time>
      </trkpt>
      <trkpt lat="45.21181" lon="4.59945">
        <ele>761.40002441406</ele>
        <time>2022-03-06T09:58:18Z</time>
      </trkpt>
      <trkpt lat="45.21181" lon="4.59932">
        <ele>761.79998779297</ele>
        <time>2022-03-06T09:58:22Z</time>
      </trkpt>
      <trkpt lat="45.21161" lon="4.59917">
        <ele>762</ele>
        <time>2022-03-06T09:58:30Z</time>
      </trkpt>
      <trkpt lat="45.2115" lon="4.59907">
        <ele>762.20001220703</ele>
        <time>2022-03-06T09:58:35Z</time>
      </trkpt>
      <trkpt lat="45.21144" lon="4.59898">
        <ele>762.40002441406</ele>
        <time>2022-03-06T09:58:38Z</time>
      </trkpt>
      <trkpt lat="45.2112" lon="4.5988">
        <ele>762.59997558594</ele>
        <time>2022-03-06T09:58:45Z</time>
      </trkpt>
      <trkpt lat="45.21078" lon="4.59883">
        <ele>762.79998779297</ele>
        <time>2022-03-06T09:58:55Z</time>
      </trkpt>
      <trkpt lat="45.21046" lon="4.59902">
        <ele>763</ele>
        <time>2022-03-06T09:59:06Z</time>
      </trkpt>
      <trkpt lat="45.21028" lon="4.5991">
        <ele>763.20001220703</ele>
        <time>2022-03-06T09:59:11Z</time>
      </trkpt>
      <trkpt lat="45.21" lon="4.599">
        <ele>763</ele>
        <time>2022-03-06T09:59:18Z</time>
      </trkpt>
      <trkpt lat="45.20961" lon="4.59898">
        <ele>763</ele>
        <time>2022-03-06T09:59:26Z</time>
      </trkpt>
      <trkpt lat="45.20913" lon="4.59905">
        <ele>763.20001220703</ele>
        <time>2022-03-06T09:59:39Z</time>
      </trkpt>
      <trkpt lat="45.20877" lon="4.59913">
        <ele>765</ele>
        <time>2022-03-06T09:59:51Z</time>
      </trkpt>
      <trkpt lat="45.20843" lon="4.59919">
        <ele>765.59997558594</ele>
        <time>2022-03-06T10:00:01Z</time>
      </trkpt>
      <trkpt lat="45.20835" lon="4.59909">
        <ele>766</ele>
        <time>2022-03-06T10:00:05Z</time>
      </trkpt>
      <trkpt lat="45.20832" lon="4.59898">
        <ele>766.20001220703</ele>
        <time>2022-03-06T10:00:07Z</time>
      </trkpt>
      <trkpt lat="45.20815" lon="4.5986">
        <ele>766.79998779297</ele>
        <time>2022-03-06T10:00:14Z</time>
      </trkpt>
      <trkpt lat="45.20799" lon="4.59821">
        <ele>767.59997558594</ele>
        <time>2022-03-06T10:00:22Z</time>
      </trkpt>
      <trkpt lat="45.20796" lon="4.59817">
        <ele>767.59997558594</ele>
        <time>2022-03-06T10:00:23Z</time>
      </trkpt>
      <trkpt lat="45.2079" lon="4.59811">
        <ele>767.59997558594</ele>
        <time>2022-03-06T10:00:25Z</time>
      </trkpt>
      <trkpt lat="45.20771" lon="4.59786">
        <ele>767.79998779297</ele>
        <time>2022-03-06T10:00:31Z</time>
      </trkpt>
      <trkpt lat="45.20739" lon="4.59733">
        <ele>766.40002441406</ele>
        <time>2022-03-06T10:00:42Z</time>
      </trkpt>
      <trkpt lat="45.20716" lon="4.59692">
        <ele>766</ele>
        <time>2022-03-06T10:00:50Z</time>
      </trkpt>
      <trkpt lat="45.20702" lon="4.59667">
        <ele>767.20001220703</ele>
        <time>2022-03-06T10:00:58Z</time>
      </trkpt>
      <trkpt lat="45.207" lon="4.59661">
        <ele>768</ele>
        <time>2022-03-06T10:01:01Z</time>
      </trkpt>
      <trkpt lat="45.20694" lon="4.59646">
        <ele>769.20001220703</ele>
        <time>2022-03-06T10:01:07Z</time>
      </trkpt>
      <trkpt lat="45.20678" lon="4.59639">
        <ele>769.59997558594</ele>
        <time>2022-03-06T10:01:10Z</time>
      </trkpt>
      <trkpt lat="45.20674" lon="4.59628">
        <ele>770.59997558594</ele>
        <time>2022-03-06T10:01:13Z</time>
      </trkpt>
      <trkpt lat="45.20667" lon="4.5962">
        <ele>771.40002441406</ele>
        <time>2022-03-06T10:01:16Z</time>
      </trkpt>
      <trkpt lat="45.20652" lon="4.596">
        <ele>772</ele>
        <time>2022-03-06T10:01:22Z</time>
      </trkpt>
      <trkpt lat="45.20649" lon="4.59594">
        <ele>772.20001220703</ele>
        <time>2022-03-06T10:01:23Z</time>
      </trkpt>
      <trkpt lat="45.20644" lon="4.5958">
        <ele>772.40002441406</ele>
        <time>2022-03-06T10:01:25Z</time>
      </trkpt>
      <trkpt lat="45.2064" lon="4.59571">
        <ele>772.79998779297</ele>
        <time>2022-03-06T10:01:27Z</time>
      </trkpt>
      <trkpt lat="45.2062" lon="4.59547">
        <ele>773.40002441406</ele>
        <time>2022-03-06T10:01:33Z</time>
      </trkpt>
      <trkpt lat="45.20604" lon="4.59521">
        <ele>773.59997558594</ele>
        <time>2022-03-06T10:01:38Z</time>
      </trkpt>
      <trkpt lat="45.20603" lon="4.59521">
        <ele>773.59997558594</ele>
        <time>2022-03-06T10:01:39Z</time>
      </trkpt>
      <trkpt lat="45.20584" lon="4.59514">
        <ele>773.59997558594</ele>
        <time>2022-03-06T10:01:44Z</time>
      </trkpt>
      <trkpt lat="45.2058" lon="4.59511">
        <ele>773.79998779297</ele>
        <time>2022-03-06T10:01:46Z</time>
      </trkpt>
      <trkpt lat="45.2055" lon="4.59507">
        <ele>775</ele>
        <time>2022-03-06T10:01:57Z</time>
      </trkpt>
      <trkpt lat="45.2053" lon="4.59508">
        <ele>777.20001220703</ele>
        <time>2022-03-06T10:02:05Z</time>
      </trkpt>
      <trkpt lat="45.2052" lon="4.59513">
        <ele>777.79998779297</ele>
        <time>2022-03-06T10:02:09Z</time>
      </trkpt>
      <trkpt lat="45.20501" lon="4.5953">
        <ele>778</ele>
        <time>2022-03-06T10:02:16Z</time>
      </trkpt>
      <trkpt lat="45.20493" lon="4.59537">
        <ele>778</ele>
        <time>2022-03-06T10:02:18Z</time>
      </trkpt>
      <trkpt lat="45.20476" lon="4.59557">
        <ele>778</ele>
        <time>2022-03-06T10:02:23Z</time>
      </trkpt>
      <trkpt lat="45.20464" lon="4.59577">
        <ele>778.40002441406</ele>
        <time>2022-03-06T10:02:30Z</time>
      </trkpt>
      <trkpt lat="45.20454" lon="4.59607">
        <ele>779.79998779297</ele>
        <time>2022-03-06T10:02:40Z</time>
      </trkpt>
      <trkpt lat="45.20444" lon="4.59634">
        <ele>781.79998779297</ele>
        <time>2022-03-06T10:02:51Z</time>
      </trkpt>
      <trkpt lat="45.20441" lon="4.59647">
        <ele>782.20001220703</ele>
        <time>2022-03-06T10:02:55Z</time>
      </trkpt>
      <trkpt lat="45.20439" lon="4.5965">
        <ele>783</ele>
        <time>2022-03-06T10:02:58Z</time>
      </trkpt>
      <trkpt lat="45.20436" lon="4.59666">
        <ele>784.40002441406</ele>
        <time>2022-03-06T10:03:03Z</time>
      </trkpt>
      <trkpt lat="45.20434" lon="4.59674">
        <ele>785</ele>
        <time>2022-03-06T10:03:05Z</time>
      </trkpt>
      <trkpt lat="45.20426" lon="4.59701">
        <ele>786.20001220703</ele>
        <time>2022-03-06T10:03:10Z</time>
      </trkpt>
      <trkpt lat="45.20422" lon="4.59716">
        <ele>786.59997558594</ele>
        <time>2022-03-06T10:03:14Z</time>
      </trkpt>
      <trkpt lat="45.20419" lon="4.59726">
        <ele>787.59997558594</ele>
        <time>2022-03-06T10:03:19Z</time>
      </trkpt>
      <trkpt lat="45.20414" lon="4.59737">
        <ele>788.20001220703</ele>
        <time>2022-03-06T10:03:23Z</time>
      </trkpt>
      <trkpt lat="45.20411" lon="4.59745">
        <ele>788.79998779297</ele>
        <time>2022-03-06T10:03:27Z</time>
      </trkpt>
      <trkpt lat="45.20407" lon="4.59753">
        <ele>789.59997558594</ele>
        <time>2022-03-06T10:03:31Z</time>
      </trkpt>
      <trkpt lat="45.20401" lon="4.59767">
        <ele>790.79998779297</ele>
        <time>2022-03-06T10:03:37Z</time>
      </trkpt>
      <trkpt lat="45.20397" lon="4.59772">
        <ele>791.20001220703</ele>
        <time>2022-03-06T10:03:39Z</time>
      </trkpt>
      <trkpt lat="45.2038" lon="4.59802">
        <ele>791.79998779297</ele>
        <time>2022-03-06T10:03:45Z</time>
      </trkpt>
      <trkpt lat="45.20379" lon="4.59805">
        <ele>792.40002441406</ele>
        <time>2022-03-06T10:03:49Z</time>
      </trkpt>
      <trkpt lat="45.2037" lon="4.59821">
        <ele>793.20001220703</ele>
        <time>2022-03-06T10:03:55Z</time>
      </trkpt>
      <trkpt lat="45.20366" lon="4.59825">
        <ele>793.20001220703</ele>
        <time>2022-03-06T10:03:56Z</time>
      </trkpt>
      <trkpt lat="45.20365" lon="4.59827">
        <ele>793.40002441406</ele>
        <time>2022-03-06T10:03:57Z</time>
      </trkpt>
      <trkpt lat="45.2036" lon="4.59828">
        <ele>793.59997558594</ele>
        <time>2022-03-06T10:04:00Z</time>
      </trkpt>
      <trkpt lat="45.20348" lon="4.59833">
        <ele>794</ele>
        <time>2022-03-06T10:04:05Z</time>
      </trkpt>
      <trkpt lat="45.2033" lon="4.59845">
        <ele>794.40002441406</ele>
        <time>2022-03-06T10:04:12Z</time>
      </trkpt>
      <trkpt lat="45.20297" lon="4.59873">
        <ele>795.20001220703</ele>
        <time>2022-03-06T10:04:22Z</time>
      </trkpt>
      <trkpt lat="45.20295" lon="4.59875">
        <ele>795.20001220703</ele>
        <time>2022-03-06T10:04:23Z</time>
      </trkpt>
      <trkpt lat="45.20282" lon="4.5988">
        <ele>795.59997558594</ele>
        <time>2022-03-06T10:04:26Z</time>
      </trkpt>
      <trkpt lat="45.20253" lon="4.59904">
        <ele>796.40002441406</ele>
        <time>2022-03-06T10:04:33Z</time>
      </trkpt>
      <trkpt lat="45.20236" lon="4.59896">
        <ele>796.79998779297</ele>
        <time>2022-03-06T10:04:40Z</time>
      </trkpt>
      <trkpt lat="45.20223" lon="4.59882">
        <ele>796.79998779297</ele>
        <time>2022-03-06T10:04:48Z</time>
      </trkpt>
      <trkpt lat="45.20218" lon="4.59879">
        <ele>796.79998779297</ele>
        <time>2022-03-06T10:04:50Z</time>
      </trkpt>
      <trkpt lat="45.20204" lon="4.59865">
        <ele>797</ele>
        <time>2022-03-06T10:04:55Z</time>
      </trkpt>
      <trkpt lat="45.2018" lon="4.59845">
        <ele>797.59997558594</ele>
        <time>2022-03-06T10:05:03Z</time>
      </trkpt>
      <trkpt lat="45.2017" lon="4.59811">
        <ele>797.79998779297</ele>
        <time>2022-03-06T10:05:09Z</time>
      </trkpt>
      <trkpt lat="45.20153" lon="4.59786">
        <ele>798.59997558594</ele>
        <time>2022-03-06T10:05:15Z</time>
      </trkpt>
      <trkpt lat="45.20153" lon="4.59762">
        <ele>799.40002441406</ele>
        <time>2022-03-06T10:05:19Z</time>
      </trkpt>
      <trkpt lat="45.20139" lon="4.59728">
        <ele>799.79998779297</ele>
        <time>2022-03-06T10:05:25Z</time>
      </trkpt>
      <trkpt lat="45.20136" lon="4.59712">
        <ele>800.40002441406</ele>
        <time>2022-03-06T10:05:29Z</time>
      </trkpt>
      <trkpt lat="45.20138" lon="4.59705">
        <ele>800.59997558594</ele>
        <time>2022-03-06T10:05:31Z</time>
      </trkpt>
      <trkpt lat="45.20129" lon="4.59668">
        <ele>800.79998779297</ele>
        <time>2022-03-06T10:05:36Z</time>
      </trkpt>
      <trkpt lat="45.20134" lon="4.59631">
        <ele>801</ele>
        <time>2022-03-06T10:05:43Z</time>
      </trkpt>
      <trkpt lat="45.20124" lon="4.59623">
        <ele>801.20001220703</ele>
        <time>2022-03-06T10:05:46Z</time>
      </trkpt>
      <trkpt lat="45.2012" lon="4.59602">
        <ele>801.59997558594</ele>
        <time>2022-03-06T10:05:52Z</time>
      </trkpt>
      <trkpt lat="45.20121" lon="4.59587">
        <ele>802.20001220703</ele>
        <time>2022-03-06T10:05:56Z</time>
      </trkpt>
      <trkpt lat="45.20122" lon="4.5954">
        <ele>803.59997558594</ele>
        <time>2022-03-06T10:06:06Z</time>
      </trkpt>
      <trkpt lat="45.20124" lon="4.59517">
        <ele>803.59997558594</ele>
        <time>2022-03-06T10:06:11Z</time>
      </trkpt>
      <trkpt lat="45.20124" lon="4.59512">
        <ele>803.59997558594</ele>
        <time>2022-03-06T10:06:12Z</time>
      </trkpt>
      <trkpt lat="45.20126" lon="4.59501">
        <ele>803.59997558594</ele>
        <time>2022-03-06T10:06:14Z</time>
      </trkpt>
      <trkpt lat="45.20126" lon="4.59484">
        <ele>803.20001220703</ele>
        <time>2022-03-06T10:06:17Z</time>
      </trkpt>
      <trkpt lat="45.20108" lon="4.59448">
        <ele>802.59997558594</ele>
        <time>2022-03-06T10:06:25Z</time>
      </trkpt>
      <trkpt lat="45.20093" lon="4.59428">
        <ele>802.40002441406</ele>
        <time>2022-03-06T10:06:32Z</time>
      </trkpt>
      <trkpt lat="45.20091" lon="4.59424">
        <ele>802.59997558594</ele>
        <time>2022-03-06T10:06:33Z</time>
      </trkpt>
      <trkpt lat="45.20078" lon="4.59414">
        <ele>803</ele>
        <time>2022-03-06T10:06:36Z</time>
      </trkpt>
      <trkpt lat="45.20052" lon="4.59387">
        <ele>803.59997558594</ele>
        <time>2022-03-06T10:06:43Z</time>
      </trkpt>
      <trkpt lat="45.20029" lon="4.59389">
        <ele>803.59997558594</ele>
        <time>2022-03-06T10:06:47Z</time>
      </trkpt>
      <trkpt lat="45.19994" lon="4.59401">
        <ele>804</ele>
        <time>2022-03-06T10:06:55Z</time>
      </trkpt>
      <trkpt lat="45.19981" lon="4.59404">
        <ele>803.79998779297</ele>
        <time>2022-03-06T10:06:58Z</time>
      </trkpt>
      <trkpt lat="45.19965" lon="4.59412">
        <ele>803.40002441406</ele>
        <time>2022-03-06T10:07:01Z</time>
      </trkpt>
      <trkpt lat="45.19938" lon="4.59412">
        <ele>803</ele>
        <time>2022-03-06T10:07:05Z</time>
      </trkpt>
      <trkpt lat="45.19911" lon="4.59399">
        <ele>802.40002441406</ele>
        <time>2022-03-06T10:07:09Z</time>
      </trkpt>
      <trkpt lat="45.19896" lon="4.59394">
        <ele>801.79998779297</ele>
        <time>2022-03-06T10:07:11Z</time>
      </trkpt>
      <trkpt lat="45.19858" lon="4.59381">
        <ele>798.20001220703</ele>
        <time>2022-03-06T10:07:16Z</time>
      </trkpt>
      <trkpt lat="45.1985" lon="4.59381">
        <ele>798</ele>
        <time>2022-03-06T10:07:17Z</time>
      </trkpt>
      <trkpt lat="45.19828" lon="4.59394">
        <ele>796.79998779297</ele>
        <time>2022-03-06T10:07:21Z</time>
      </trkpt>
      <trkpt lat="45.19809" lon="4.59408">
        <ele>795.79998779297</ele>
        <time>2022-03-06T10:07:27Z</time>
      </trkpt>
      <trkpt lat="45.19786" lon="4.59416">
        <ele>796.40002441406</ele>
        <time>2022-03-06T10:07:32Z</time>
      </trkpt>
      <trkpt lat="45.19731" lon="4.59431">
        <ele>799.20001220703</ele>
        <time>2022-03-06T10:07:47Z</time>
      </trkpt>
      <trkpt lat="45.19727" lon="4.59432">
        <ele>799.40002441406</ele>
        <time>2022-03-06T10:07:48Z</time>
      </trkpt>
      <trkpt lat="45.19665" lon="4.59432">
        <ele>799.20001220703</ele>
        <time>2022-03-06T10:08:02Z</time>
      </trkpt>
      <trkpt lat="45.19636" lon="4.59428">
        <ele>799.20001220703</ele>
        <time>2022-03-06T10:08:08Z</time>
      </trkpt>
      <trkpt lat="45.19614" lon="4.5941">
        <ele>797.79998779297</ele>
        <time>2022-03-06T10:08:13Z</time>
      </trkpt>
      <trkpt lat="45.19619" lon="4.594">
        <ele>797.20001220703</ele>
        <time>2022-03-06T10:08:15Z</time>
      </trkpt>
      <trkpt lat="45.19637" lon="4.59356">
        <ele>795.40002441406</ele>
        <time>2022-03-06T10:08:21Z</time>
      </trkpt>
      <trkpt lat="45.19643" lon="4.59347">
        <ele>795.20001220703</ele>
        <time>2022-03-06T10:08:22Z</time>
      </trkpt>
      <trkpt lat="45.19692" lon="4.59288">
        <ele>792.40002441406</ele>
        <time>2022-03-06T10:08:31Z</time>
      </trkpt>
      <trkpt lat="45.19697" lon="4.59283">
        <ele>792.40002441406</ele>
        <time>2022-03-06T10:08:32Z</time>
      </trkpt>
      <trkpt lat="45.19726" lon="4.59224">
        <ele>791.40002441406</ele>
        <time>2022-03-06T10:08:39Z</time>
      </trkpt>
      <trkpt lat="45.19771" lon="4.59153">
        <ele>789.40002441406</ele>
        <time>2022-03-06T10:08:48Z</time>
      </trkpt>
      <trkpt lat="45.19804" lon="4.59113">
        <ele>788.20001220703</ele>
        <time>2022-03-06T10:08:55Z</time>
      </trkpt>
      <trkpt lat="45.19837" lon="4.59065">
        <ele>787</ele>
        <time>2022-03-06T10:09:01Z</time>
      </trkpt>
      <trkpt lat="45.19848" lon="4.5904">
        <ele>786.40002441406</ele>
        <time>2022-03-06T10:09:04Z</time>
      </trkpt>
      <trkpt lat="45.19853" lon="4.59001">
        <ele>785.79998779297</ele>
        <time>2022-03-06T10:09:09Z</time>
      </trkpt>
      <trkpt lat="45.19871" lon="4.58955">
        <ele>785</ele>
        <time>2022-03-06T10:09:15Z</time>
      </trkpt>
      <trkpt lat="45.19876" lon="4.58947">
        <ele>785</ele>
        <time>2022-03-06T10:09:16Z</time>
      </trkpt>
      <trkpt lat="45.19882" lon="4.58939">
        <ele>784.59997558594</ele>
        <time>2022-03-06T10:09:17Z</time>
      </trkpt>
      <trkpt lat="45.19919" lon="4.58894">
        <ele>784.40002441406</ele>
        <time>2022-03-06T10:09:23Z</time>
      </trkpt>
      <trkpt lat="45.19932" lon="4.58877">
        <ele>784.20001220703</ele>
        <time>2022-03-06T10:09:26Z</time>
      </trkpt>
      <trkpt lat="45.19946" lon="4.58857">
        <ele>782.79998779297</ele>
        <time>2022-03-06T10:09:29Z</time>
      </trkpt>
      <trkpt lat="45.19954" lon="4.58839">
        <ele>782</ele>
        <time>2022-03-06T10:09:31Z</time>
      </trkpt>
      <trkpt lat="45.19956" lon="4.58832">
        <ele>781.79998779297</ele>
        <time>2022-03-06T10:09:32Z</time>
      </trkpt>
      <trkpt lat="45.19961" lon="4.58814">
        <ele>780.79998779297</ele>
        <time>2022-03-06T10:09:35Z</time>
      </trkpt>
      <trkpt lat="45.19964" lon="4.58804">
        <ele>780.59997558594</ele>
        <time>2022-03-06T10:09:36Z</time>
      </trkpt>
      <trkpt lat="45.19964" lon="4.58772">
        <ele>780.20001220703</ele>
        <time>2022-03-06T10:09:39Z</time>
      </trkpt>
      <trkpt lat="45.19951" lon="4.58733">
        <ele>779.59997558594</ele>
        <time>2022-03-06T10:09:43Z</time>
      </trkpt>
      <trkpt lat="45.19946" lon="4.58724">
        <ele>779.40002441406</ele>
        <time>2022-03-06T10:09:44Z</time>
      </trkpt>
      <trkpt lat="45.19927" lon="4.58701">
        <ele>778.20001220703</ele>
        <time>2022-03-06T10:09:47Z</time>
      </trkpt>
      <trkpt lat="45.19896" lon="4.58608">
        <ele>774.40002441406</ele>
        <time>2022-03-06T10:09:54Z</time>
      </trkpt>
      <trkpt lat="45.1989" lon="4.58585">
        <ele>772.79998779297</ele>
        <time>2022-03-06T10:09:56Z</time>
      </trkpt>
      <trkpt lat="45.19886" lon="4.58557">
        <ele>770.20001220703</ele>
        <time>2022-03-06T10:09:58Z</time>
      </trkpt>
      <trkpt lat="45.19873" lon="4.58515">
        <ele>766</ele>
        <time>2022-03-06T10:10:02Z</time>
      </trkpt>
      <trkpt lat="45.1984" lon="4.58494">
        <ele>763.20001220703</ele>
        <time>2022-03-06T10:10:05Z</time>
      </trkpt>
      <trkpt lat="45.19828" lon="4.5849">
        <ele>763</ele>
        <time>2022-03-06T10:10:06Z</time>
      </trkpt>
      <trkpt lat="45.19784" lon="4.58466">
        <ele>759.79998779297</ele>
        <time>2022-03-06T10:10:10Z</time>
      </trkpt>
      <trkpt lat="45.19779" lon="4.58423">
        <ele>757</ele>
        <time>2022-03-06T10:10:13Z</time>
      </trkpt>
      <trkpt lat="45.19754" lon="4.58401">
        <ele>752.79998779297</ele>
        <time>2022-03-06T10:10:16Z</time>
      </trkpt>
      <trkpt lat="45.19746" lon="4.58394">
        <ele>751.59997558594</ele>
        <time>2022-03-06T10:10:17Z</time>
      </trkpt>
      <trkpt lat="45.19739" lon="4.58392">
        <ele>748.20001220703</ele>
        <time>2022-03-06T10:10:19Z</time>
      </trkpt>
      <trkpt lat="45.19741" lon="4.58383">
        <ele>746.20001220703</ele>
        <time>2022-03-06T10:10:22Z</time>
      </trkpt>
      <trkpt lat="45.19744" lon="4.58381">
        <ele>745.59997558594</ele>
        <time>2022-03-06T10:10:23Z</time>
      </trkpt>
      <trkpt lat="45.19764" lon="4.58364">
        <ele>744.59997558594</ele>
        <time>2022-03-06T10:10:29Z</time>
      </trkpt>
      <trkpt lat="45.19787" lon="4.5835">
        <ele>744.40002441406</ele>
        <time>2022-03-06T10:10:35Z</time>
      </trkpt>
      <trkpt lat="45.19834" lon="4.58338">
        <ele>743.40002441406</ele>
        <time>2022-03-06T10:10:43Z</time>
      </trkpt>
      <trkpt lat="45.1987" lon="4.58329">
        <ele>742.79998779297</ele>
        <time>2022-03-06T10:10:49Z</time>
      </trkpt>
      <trkpt lat="45.19894" lon="4.58323">
        <ele>743</ele>
        <time>2022-03-06T10:10:53Z</time>
      </trkpt>
      <trkpt lat="45.19921" lon="4.58317">
        <ele>742.20001220703</ele>
        <time>2022-03-06T10:10:58Z</time>
      </trkpt>
      <trkpt lat="45.19939" lon="4.58316">
        <ele>742</ele>
        <time>2022-03-06T10:11:02Z</time>
      </trkpt>
      <trkpt lat="45.19957" lon="4.58311">
        <ele>742.40002441406</ele>
        <time>2022-03-06T10:11:04Z</time>
      </trkpt>
      <trkpt lat="45.19988" lon="4.58307">
        <ele>742.40002441406</ele>
        <time>2022-03-06T10:11:10Z</time>
      </trkpt>
      <trkpt lat="45.20008" lon="4.58294">
        <ele>742</ele>
        <time>2022-03-06T10:11:15Z</time>
      </trkpt>
      <trkpt lat="45.20047" lon="4.58283">
        <ele>741.40002441406</ele>
        <time>2022-03-06T10:11:22Z</time>
      </trkpt>
      <trkpt lat="45.20081" lon="4.58283">
        <ele>740.79998779297</ele>
        <time>2022-03-06T10:11:28Z</time>
      </trkpt>
      <trkpt lat="45.20099" lon="4.58278">
        <ele>740.59997558594</ele>
        <time>2022-03-06T10:11:31Z</time>
      </trkpt>
      <trkpt lat="45.20122" lon="4.58272">
        <ele>740</ele>
        <time>2022-03-06T10:11:35Z</time>
      </trkpt>
      <trkpt lat="45.20166" lon="4.58268">
        <ele>738.20001220703</ele>
        <time>2022-03-06T10:11:42Z</time>
      </trkpt>
      <trkpt lat="45.20173" lon="4.58269">
        <ele>737.79998779297</ele>
        <time>2022-03-06T10:11:43Z</time>
      </trkpt>
      <trkpt lat="45.20198" lon="4.58264">
        <ele>736.79998779297</ele>
        <time>2022-03-06T10:11:47Z</time>
      </trkpt>
      <trkpt lat="45.20209" lon="4.5826">
        <ele>736.59997558594</ele>
        <time>2022-03-06T10:11:49Z</time>
      </trkpt>
      <trkpt lat="45.20227" lon="4.58243">
        <ele>736</ele>
        <time>2022-03-06T10:11:53Z</time>
      </trkpt>
      <trkpt lat="45.20261" lon="4.58191">
        <ele>735.20001220703</ele>
        <time>2022-03-06T10:12:00Z</time>
      </trkpt>
      <trkpt lat="45.20275" lon="4.58153">
        <ele>734.20001220703</ele>
        <time>2022-03-06T10:12:04Z</time>
      </trkpt>
      <trkpt lat="45.20285" lon="4.58103">
        <ele>733.40002441406</ele>
        <time>2022-03-06T10:12:09Z</time>
      </trkpt>
      <trkpt lat="45.20291" lon="4.58054">
        <ele>733</ele>
        <time>2022-03-06T10:12:14Z</time>
      </trkpt>
      <trkpt lat="45.20296" lon="4.58023">
        <ele>732.79998779297</ele>
        <time>2022-03-06T10:12:17Z</time>
      </trkpt>
      <trkpt lat="45.20314" lon="4.57971">
        <ele>731.79998779297</ele>
        <time>2022-03-06T10:12:23Z</time>
      </trkpt>
      <trkpt lat="45.20332" lon="4.57928">
        <ele>731.20001220703</ele>
        <time>2022-03-06T10:12:28Z</time>
      </trkpt>
      <trkpt lat="45.20351" lon="4.57894">
        <ele>730.40002441406</ele>
        <time>2022-03-06T10:12:35Z</time>
      </trkpt>
      <trkpt lat="45.20353" lon="4.57891">
        <ele>730.40002441406</ele>
        <time>2022-03-06T10:12:37Z</time>
      </trkpt>
      <trkpt lat="45.20341" lon="4.57883">
        <ele>729.59997558594</ele>
        <time>2022-03-06T10:12:44Z</time>
      </trkpt>
      <trkpt lat="45.20326" lon="4.57883">
        <ele>730.20001220703</ele>
        <time>2022-03-06T10:12:51Z</time>
      </trkpt>
      <trkpt lat="45.20306" lon="4.57889">
        <ele>732.20001220703</ele>
        <time>2022-03-06T10:13:02Z</time>
      </trkpt>
      <trkpt lat="45.20305" lon="4.57897">
        <ele>733.79998779297</ele>
        <time>2022-03-06T10:13:06Z</time>
      </trkpt>
      <trkpt lat="45.20305" lon="4.57901">
        <ele>734</ele>
        <time>2022-03-06T10:13:08Z</time>
      </trkpt>
      <trkpt lat="45.20301" lon="4.5791">
        <ele>735.20001220703</ele>
        <time>2022-03-06T10:13:13Z</time>
      </trkpt>
      <trkpt lat="45.203" lon="4.57914">
        <ele>736</ele>
        <time>2022-03-06T10:13:17Z</time>
      </trkpt>
      <trkpt lat="45.20294" lon="4.57936">
        <ele>737.40002441406</ele>
        <time>2022-03-06T10:13:24Z</time>
      </trkpt>
      <trkpt lat="45.20288" lon="4.57956">
        <ele>738.79998779297</ele>
        <time>2022-03-06T10:13:32Z</time>
      </trkpt>
      <trkpt lat="45.20286" lon="4.5796">
        <ele>739.40002441406</ele>
        <time>2022-03-06T10:13:35Z</time>
      </trkpt>
      <trkpt lat="45.20271" lon="4.57983">
        <ele>740.40002441406</ele>
        <time>2022-03-06T10:13:42Z</time>
      </trkpt>
      <trkpt lat="45.2027" lon="4.57993">
        <ele>741.59997558594</ele>
        <time>2022-03-06T10:13:47Z</time>
      </trkpt>
      <trkpt lat="45.20258" lon="4.58017">
        <ele>743</ele>
        <time>2022-03-06T10:13:55Z</time>
      </trkpt>
      <trkpt lat="45.20254" lon="4.5804">
        <ele>743.79998779297</ele>
        <time>2022-03-06T10:14:00Z</time>
      </trkpt>
      <trkpt lat="45.20251" lon="4.5805">
        <ele>744.59997558594</ele>
        <time>2022-03-06T10:14:05Z</time>
      </trkpt>
      <trkpt lat="45.20249" lon="4.58065">
        <ele>745.79998779297</ele>
        <time>2022-03-06T10:14:09Z</time>
      </trkpt>
      <trkpt lat="45.20247" lon="4.58071">
        <ele>745.59997558594</ele>
        <time>2022-03-06T10:14:10Z</time>
      </trkpt>
      <trkpt lat="45.20246" lon="4.58084">
        <ele>746.59997558594</ele>
        <time>2022-03-06T10:14:14Z</time>
      </trkpt>
      <trkpt lat="45.20245" lon="4.58094">
        <ele>747</ele>
        <time>2022-03-06T10:14:19Z</time>
      </trkpt>
      <trkpt lat="45.20235" lon="4.58119">
        <ele>749</ele>
        <time>2022-03-06T10:14:29Z</time>
      </trkpt>
      <trkpt lat="45.20228" lon="4.58136">
        <ele>750.40002441406</ele>
        <time>2022-03-06T10:14:37Z</time>
      </trkpt>
      <trkpt lat="45.20216" lon="4.58161">
        <ele>752</ele>
        <time>2022-03-06T10:14:46Z</time>
      </trkpt>
      <trkpt lat="45.20211" lon="4.58168">
        <ele>752.20001220703</ele>
        <time>2022-03-06T10:14:48Z</time>
      </trkpt>
      <trkpt lat="45.20199" lon="4.5819">
        <ele>753</ele>
        <time>2022-03-06T10:14:53Z</time>
      </trkpt>
      <trkpt lat="45.20194" lon="4.58198">
        <ele>753.40002441406</ele>
        <time>2022-03-06T10:14:56Z</time>
      </trkpt>
      <trkpt lat="45.2019" lon="4.58202">
        <ele>753.79998779297</ele>
        <time>2022-03-06T10:14:58Z</time>
      </trkpt>
      <trkpt lat="45.20182" lon="4.58205">
        <ele>754.79998779297</ele>
        <time>2022-03-06T10:15:03Z</time>
      </trkpt>
      <trkpt lat="45.20162" lon="4.58209">
        <ele>756.40002441406</ele>
        <time>2022-03-06T10:15:13Z</time>
      </trkpt>
      <trkpt lat="45.20149" lon="4.5821">
        <ele>757.40002441406</ele>
        <time>2022-03-06T10:15:19Z</time>
      </trkpt>
      <trkpt lat="45.20138" lon="4.5821">
        <ele>758</ele>
        <time>2022-03-06T10:15:24Z</time>
      </trkpt>
      <trkpt lat="45.20136" lon="4.5821">
        <ele>758.20001220703</ele>
        <time>2022-03-06T10:15:25Z</time>
      </trkpt>
      <trkpt lat="45.20119" lon="4.58206">
        <ele>760</ele>
        <time>2022-03-06T10:15:34Z</time>
      </trkpt>
      <trkpt lat="45.20116" lon="4.58207">
        <ele>760.20001220703</ele>
        <time>2022-03-06T10:15:35Z</time>
      </trkpt>
      <trkpt lat="45.20095" lon="4.5821">
        <ele>761.20001220703</ele>
        <time>2022-03-06T10:15:43Z</time>
      </trkpt>
      <trkpt lat="45.20085" lon="4.58212">
        <ele>762</ele>
        <time>2022-03-06T10:15:48Z</time>
      </trkpt>
      <trkpt lat="45.20076" lon="4.58211">
        <ele>763</ele>
        <time>2022-03-06T10:15:52Z</time>
      </trkpt>
      <trkpt lat="45.20062" lon="4.58214">
        <ele>763.79998779297</ele>
        <time>2022-03-06T10:15:57Z</time>
      </trkpt>
      <trkpt lat="45.20042" lon="4.58218">
        <ele>765</ele>
        <time>2022-03-06T10:16:04Z</time>
      </trkpt>
      <trkpt lat="45.20039" lon="4.58218">
        <ele>765</ele>
        <time>2022-03-06T10:16:05Z</time>
      </trkpt>
      <trkpt lat="45.20037" lon="4.58218">
        <ele>765.40002441406</ele>
        <time>2022-03-06T10:16:06Z</time>
      </trkpt>
      <trkpt lat="45.20035" lon="4.58214">
        <ele>766.20001220703</ele>
        <time>2022-03-06T10:16:11Z</time>
      </trkpt>
      <trkpt lat="45.20033" lon="4.58211">
        <ele>767.40002441406</ele>
        <time>2022-03-06T10:16:17Z</time>
      </trkpt>
      <trkpt lat="45.20023" lon="4.58211">
        <ele>769</ele>
        <time>2022-03-06T10:16:25Z</time>
      </trkpt>
      <trkpt lat="45.20014" lon="4.58214">
        <ele>769.59997558594</ele>
        <time>2022-03-06T10:16:31Z</time>
      </trkpt>
      <trkpt lat="45.19992" lon="4.58215">
        <ele>770.59997558594</ele>
        <time>2022-03-06T10:16:35Z</time>
      </trkpt>
      <trkpt lat="45.19985" lon="4.58217">
        <ele>770.59997558594</ele>
        <time>2022-03-06T10:16:36Z</time>
      </trkpt>
      <trkpt lat="45.19974" lon="4.58223">
        <ele>771.20001220703</ele>
        <time>2022-03-06T10:16:39Z</time>
      </trkpt>
      <trkpt lat="45.19964" lon="4.58233">
        <ele>771.79998779297</ele>
        <time>2022-03-06T10:16:43Z</time>
      </trkpt>
      <trkpt lat="45.19954" lon="4.58239">
        <ele>772.79998779297</ele>
        <time>2022-03-06T10:16:48Z</time>
      </trkpt>
      <trkpt lat="45.19943" lon="4.5824">
        <ele>773.59997558594</ele>
        <time>2022-03-06T10:16:53Z</time>
      </trkpt>
      <trkpt lat="45.19938" lon="4.5824">
        <ele>773.79998779297</ele>
        <time>2022-03-06T10:16:55Z</time>
      </trkpt>
      <trkpt lat="45.19933" lon="4.58241">
        <ele>774.20001220703</ele>
        <time>2022-03-06T10:16:58Z</time>
      </trkpt>
      <trkpt lat="45.19926" lon="4.58241">
        <ele>775.20001220703</ele>
        <time>2022-03-06T10:17:02Z</time>
      </trkpt>
      <trkpt lat="45.19919" lon="4.58244">
        <ele>775.40002441406</ele>
        <time>2022-03-06T10:17:04Z</time>
      </trkpt>
      <trkpt lat="45.19912" lon="4.58242">
        <ele>775.79998779297</ele>
        <time>2022-03-06T10:17:07Z</time>
      </trkpt>
      <trkpt lat="45.1991" lon="4.58239">
        <ele>776.20001220703</ele>
        <time>2022-03-06T10:17:09Z</time>
      </trkpt>
      <trkpt lat="45.19895" lon="4.58237">
        <ele>777.20001220703</ele>
        <time>2022-03-06T10:17:16Z</time>
      </trkpt>
      <trkpt lat="45.1989" lon="4.58235">
        <ele>777.59997558594</ele>
        <time>2022-03-06T10:17:19Z</time>
      </trkpt>
      <trkpt lat="45.19876" lon="4.58234">
        <ele>779</ele>
        <time>2022-03-06T10:17:26Z</time>
      </trkpt>
      <trkpt lat="45.19875" lon="4.58234">
        <ele>779.20001220703</ele>
        <time>2022-03-06T10:17:27Z</time>
      </trkpt>
      <trkpt lat="45.19874" lon="4.58228">
        <ele>779.79998779297</ele>
        <time>2022-03-06T10:17:33Z</time>
      </trkpt>
      <trkpt lat="45.19881" lon="4.58228">
        <ele>780.20001220703</ele>
        <time>2022-03-06T10:17:38Z</time>
      </trkpt>
      <trkpt lat="45.19886" lon="4.58228">
        <ele>780.79998779297</ele>
        <time>2022-03-06T10:17:41Z</time>
      </trkpt>
      <trkpt lat="45.19899" lon="4.58228">
        <ele>782.79998779297</ele>
        <time>2022-03-06T10:17:50Z</time>
      </trkpt>
      <trkpt lat="45.19903" lon="4.58227">
        <ele>783.20001220703</ele>
        <time>2022-03-06T10:17:53Z</time>
      </trkpt>
      <trkpt lat="45.19904" lon="4.58228">
        <ele>783.40002441406</ele>
        <time>2022-03-06T10:17:54Z</time>
      </trkpt>
      <trkpt lat="45.1991" lon="4.58224">
        <ele>784.40002441406</ele>
        <time>2022-03-06T10:17:59Z</time>
      </trkpt>
      <trkpt lat="45.19915" lon="4.58218">
        <ele>784.59997558594</ele>
        <time>2022-03-06T10:18:02Z</time>
      </trkpt>
      <trkpt lat="45.1993" lon="4.58214">
        <ele>785.59997558594</ele>
        <time>2022-03-06T10:18:07Z</time>
      </trkpt>
      <trkpt lat="45.19933" lon="4.58215">
        <ele>785.79998779297</ele>
        <time>2022-03-06T10:18:09Z</time>
      </trkpt>
      <trkpt lat="45.19941" lon="4.5821">
        <ele>786.20001220703</ele>
        <time>2022-03-06T10:18:13Z</time>
      </trkpt>
      <trkpt lat="45.19956" lon="4.58194">
        <ele>787</ele>
        <time>2022-03-06T10:18:18Z</time>
      </trkpt>
      <trkpt lat="45.19965" lon="4.58182">
        <ele>787.79998779297</ele>
        <time>2022-03-06T10:18:23Z</time>
      </trkpt>
      <trkpt lat="45.19976" lon="4.58169">
        <ele>788.79998779297</ele>
        <time>2022-03-06T10:18:29Z</time>
      </trkpt>
      <trkpt lat="45.19982" lon="4.58164">
        <ele>789.79998779297</ele>
        <time>2022-03-06T10:18:34Z</time>
      </trkpt>
      <trkpt lat="45.19986" lon="4.58164">
        <ele>790.20001220703</ele>
        <time>2022-03-06T10:18:37Z</time>
      </trkpt>
      <trkpt lat="45.19993" lon="4.58156">
        <ele>791.20001220703</ele>
        <time>2022-03-06T10:18:42Z</time>
      </trkpt>
      <trkpt lat="45.20001" lon="4.58148">
        <ele>792.40002441406</ele>
        <time>2022-03-06T10:18:46Z</time>
      </trkpt>
      <trkpt lat="45.20002" lon="4.58148">
        <ele>793.40002441406</ele>
        <time>2022-03-06T10:18:51Z</time>
      </trkpt>
      <trkpt lat="45.20015" lon="4.58137">
        <ele>795.40002441406</ele>
        <time>2022-03-06T10:18:59Z</time>
      </trkpt>
      <trkpt lat="45.20022" lon="4.58128">
        <ele>797</ele>
        <time>2022-03-06T10:19:05Z</time>
      </trkpt>
      <trkpt lat="45.20027" lon="4.58122">
        <ele>797.59997558594</ele>
        <time>2022-03-06T10:19:08Z</time>
      </trkpt>
      <trkpt lat="45.20036" lon="4.58114">
        <ele>799.20001220703</ele>
        <time>2022-03-06T10:19:15Z</time>
      </trkpt>
      <trkpt lat="45.20037" lon="4.58113">
        <ele>799.40002441406</ele>
        <time>2022-03-06T10:19:16Z</time>
      </trkpt>
      <trkpt lat="45.20046" lon="4.58107">
        <ele>800.59997558594</ele>
        <time>2022-03-06T10:19:22Z</time>
      </trkpt>
      <trkpt lat="45.20053" lon="4.58085">
        <ele>802</ele>
        <time>2022-03-06T10:19:29Z</time>
      </trkpt>
      <trkpt lat="45.20043" lon="4.5808">
        <ele>803.59997558594</ele>
        <time>2022-03-06T10:19:36Z</time>
      </trkpt>
      <trkpt lat="45.20033" lon="4.58085">
        <ele>806.20001220703</ele>
        <time>2022-03-06T10:19:46Z</time>
      </trkpt>
      <trkpt lat="45.20024" lon="4.58087">
        <ele>809.40002441406</ele>
        <time>2022-03-06T10:19:56Z</time>
      </trkpt>
      <trkpt lat="45.20015" lon="4.58092">
        <ele>811.20001220703</ele>
        <time>2022-03-06T10:20:05Z</time>
      </trkpt>
      <trkpt lat="45.20001" lon="4.58099">
        <ele>811.79998779297</ele>
        <time>2022-03-06T10:20:13Z</time>
      </trkpt>
      <trkpt lat="45.19981" lon="4.58106">
        <ele>812.59997558594</ele>
        <time>2022-03-06T10:20:20Z</time>
      </trkpt>
      <trkpt lat="45.19974" lon="4.58108">
        <ele>812.79998779297</ele>
        <time>2022-03-06T10:20:23Z</time>
      </trkpt>
      <trkpt lat="45.19963" lon="4.58119">
        <ele>813.40002441406</ele>
        <time>2022-03-06T10:20:28Z</time>
      </trkpt>
      <trkpt lat="45.19954" lon="4.58123">
        <ele>813.79998779297</ele>
        <time>2022-03-06T10:20:31Z</time>
      </trkpt>
      <trkpt lat="45.19953" lon="4.58124">
        <ele>814</ele>
        <time>2022-03-06T10:20:32Z</time>
      </trkpt>
      <trkpt lat="45.19942" lon="4.58123">
        <ele>815.40002441406</ele>
        <time>2022-03-06T10:20:39Z</time>
      </trkpt>
      <trkpt lat="45.19941" lon="4.58123">
        <ele>815.40002441406</ele>
        <time>2022-03-06T10:20:40Z</time>
      </trkpt>
      <trkpt lat="45.19933" lon="4.58125">
        <ele>817.20001220703</ele>
        <time>2022-03-06T10:20:47Z</time>
      </trkpt>
      <trkpt lat="45.19918" lon="4.58127">
        <ele>820.20001220703</ele>
        <time>2022-03-06T10:20:58Z</time>
      </trkpt>
      <trkpt lat="45.19914" lon="4.58127">
        <ele>820.59997558594</ele>
        <time>2022-03-06T10:21:00Z</time>
      </trkpt>
      <trkpt lat="45.19901" lon="4.5813">
        <ele>822.20001220703</ele>
        <time>2022-03-06T10:21:07Z</time>
      </trkpt>
      <trkpt lat="45.19893" lon="4.5813">
        <ele>823</ele>
        <time>2022-03-06T10:21:11Z</time>
      </trkpt>
      <trkpt lat="45.19889" lon="4.58129">
        <ele>823.79998779297</ele>
        <time>2022-03-06T10:21:13Z</time>
      </trkpt>
      <trkpt lat="45.19877" lon="4.5813">
        <ele>825</ele>
        <time>2022-03-06T10:21:19Z</time>
      </trkpt>
      <trkpt lat="45.19874" lon="4.5813">
        <ele>825</ele>
        <time>2022-03-06T10:21:20Z</time>
      </trkpt>
      <trkpt lat="45.19867" lon="4.58131">
        <ele>825.40002441406</ele>
        <time>2022-03-06T10:21:24Z</time>
      </trkpt>
      <trkpt lat="45.19853" lon="4.58136">
        <ele>825.79998779297</ele>
        <time>2022-03-06T10:21:29Z</time>
      </trkpt>
      <trkpt lat="45.19847" lon="4.58137">
        <ele>826</ele>
        <time>2022-03-06T10:21:32Z</time>
      </trkpt>
      <trkpt lat="45.19828" lon="4.58138">
        <ele>826.59997558594</ele>
        <time>2022-03-06T10:21:43Z</time>
      </trkpt>
      <trkpt lat="45.19808" lon="4.5814">
        <ele>828</ele>
        <time>2022-03-06T10:21:53Z</time>
      </trkpt>
      <trkpt lat="45.19795" lon="4.58138">
        <ele>829.20001220703</ele>
        <time>2022-03-06T10:22:00Z</time>
      </trkpt>
      <trkpt lat="45.19791" lon="4.58139">
        <ele>829.59997558594</ele>
        <time>2022-03-06T10:22:02Z</time>
      </trkpt>
      <trkpt lat="45.19775" lon="4.58145">
        <ele>830.40002441406</ele>
        <time>2022-03-06T10:22:08Z</time>
      </trkpt>
      <trkpt lat="45.19774" lon="4.58145">
        <ele>830.40002441406</ele>
        <time>2022-03-06T10:22:09Z</time>
      </trkpt>
      <trkpt lat="45.19762" lon="4.58141">
        <ele>831</ele>
        <time>2022-03-06T10:22:14Z</time>
      </trkpt>
      <trkpt lat="45.19758" lon="4.5814">
        <ele>831</ele>
        <time>2022-03-06T10:22:15Z</time>
      </trkpt>
      <trkpt lat="45.19747" lon="4.58145">
        <ele>831.59997558594</ele>
        <time>2022-03-06T10:22:20Z</time>
      </trkpt>
      <trkpt lat="45.19734" lon="4.58151">
        <ele>832.20001220703</ele>
        <time>2022-03-06T10:22:25Z</time>
      </trkpt>
      <trkpt lat="45.1973" lon="4.5815">
        <ele>832.59997558594</ele>
        <time>2022-03-06T10:22:28Z</time>
      </trkpt>
      <trkpt lat="45.19718" lon="4.58155">
        <ele>834</ele>
        <time>2022-03-06T10:22:34Z</time>
      </trkpt>
      <trkpt lat="45.1971" lon="4.5816">
        <ele>834.79998779297</ele>
        <time>2022-03-06T10:22:38Z</time>
      </trkpt>
      <trkpt lat="45.19705" lon="4.58158">
        <ele>835.59997558594</ele>
        <time>2022-03-06T10:22:42Z</time>
      </trkpt>
      <trkpt lat="45.19696" lon="4.58163">
        <ele>836.40002441406</ele>
        <time>2022-03-06T10:22:45Z</time>
      </trkpt>
      <trkpt lat="45.19685" lon="4.58167">
        <ele>837.79998779297</ele>
        <time>2022-03-06T10:22:51Z</time>
      </trkpt>
      <trkpt lat="45.1967" lon="4.58174">
        <ele>838.40002441406</ele>
        <time>2022-03-06T10:22:56Z</time>
      </trkpt>
      <trkpt lat="45.19666" lon="4.58169">
        <ele>839.40002441406</ele>
        <time>2022-03-06T10:23:00Z</time>
      </trkpt>
      <trkpt lat="45.19666" lon="4.58164">
        <ele>840.20001220703</ele>
        <time>2022-03-06T10:23:04Z</time>
      </trkpt>
      <trkpt lat="45.19656" lon="4.58166">
        <ele>841</ele>
        <time>2022-03-06T10:23:09Z</time>
      </trkpt>
      <trkpt lat="45.19652" lon="4.58163">
        <ele>841.40002441406</ele>
        <time>2022-03-06T10:23:11Z</time>
      </trkpt>
      <trkpt lat="45.19645" lon="4.58164">
        <ele>842.59997558594</ele>
        <time>2022-03-06T10:23:15Z</time>
      </trkpt>
      <trkpt lat="45.19644" lon="4.58164">
        <ele>843.20001220703</ele>
        <time>2022-03-06T10:23:17Z</time>
      </trkpt>
      <trkpt lat="45.19641" lon="4.58163">
        <ele>843.79998779297</ele>
        <time>2022-03-06T10:23:19Z</time>
      </trkpt>
      <trkpt lat="45.19631" lon="4.5817">
        <ele>845.79998779297</ele>
        <time>2022-03-06T10:23:26Z</time>
      </trkpt>
      <trkpt lat="45.19627" lon="4.5817">
        <ele>846.79998779297</ele>
        <time>2022-03-06T10:23:32Z</time>
      </trkpt>
      <trkpt lat="45.19622" lon="4.58168">
        <ele>847.59997558594</ele>
        <time>2022-03-06T10:23:36Z</time>
      </trkpt>
      <trkpt lat="45.19622" lon="4.58166">
        <ele>849</ele>
        <time>2022-03-06T10:23:45Z</time>
      </trkpt>
      <trkpt lat="45.19616" lon="4.58163">
        <ele>851.40002441406</ele>
        <time>2022-03-06T10:23:58Z</time>
      </trkpt>
      <trkpt lat="45.19616" lon="4.58163">
        <ele>851.59997558594</ele>
        <time>2022-03-06T10:24:00Z</time>
      </trkpt>
      <trkpt lat="45.19615" lon="4.58163">
        <ele>852.59997558594</ele>
        <time>2022-03-06T10:24:05Z</time>
      </trkpt>
      <trkpt lat="45.19608" lon="4.58168">
        <ele>854</ele>
        <time>2022-03-06T10:24:14Z</time>
      </trkpt>
      <trkpt lat="45.19598" lon="4.58174">
        <ele>855.59997558594</ele>
        <time>2022-03-06T10:24:24Z</time>
      </trkpt>
      <trkpt lat="45.19583" lon="4.58184">
        <ele>856.20001220703</ele>
        <time>2022-03-06T10:24:27Z</time>
      </trkpt>
      <trkpt lat="45.19572" lon="4.58194">
        <ele>857.40002441406</ele>
        <time>2022-03-06T10:24:32Z</time>
      </trkpt>
      <trkpt lat="45.19564" lon="4.58201">
        <ele>858.20001220703</ele>
        <time>2022-03-06T10:24:36Z</time>
      </trkpt>
      <trkpt lat="45.19564" lon="4.58201">
        <ele>858.59997558594</ele>
        <time>2022-03-06T10:24:37Z</time>
      </trkpt>
      <trkpt lat="45.19564" lon="4.58203">
        <ele>859.20001220703</ele>
        <time>2022-03-06T10:24:40Z</time>
      </trkpt>
      <trkpt lat="45.19558" lon="4.58208">
        <ele>860.20001220703</ele>
        <time>2022-03-06T10:24:43Z</time>
      </trkpt>
      <trkpt lat="45.19547" lon="4.5822">
        <ele>861.20001220703</ele>
        <time>2022-03-06T10:24:47Z</time>
      </trkpt>
      <trkpt lat="45.19545" lon="4.58223">
        <ele>862.40002441406</ele>
        <time>2022-03-06T10:24:52Z</time>
      </trkpt>
      <trkpt lat="45.19541" lon="4.5823">
        <ele>863.59997558594</ele>
        <time>2022-03-06T10:24:57Z</time>
      </trkpt>
      <trkpt lat="45.19538" lon="4.58234">
        <ele>865</ele>
        <time>2022-03-06T10:25:04Z</time>
      </trkpt>
      <trkpt lat="45.19535" lon="4.58237">
        <ele>865.40002441406</ele>
        <time>2022-03-06T10:25:06Z</time>
      </trkpt>
      <trkpt lat="45.19533" lon="4.58246">
        <ele>866</ele>
        <time>2022-03-06T10:25:10Z</time>
      </trkpt>
      <trkpt lat="45.19533" lon="4.58246">
        <ele>866.20001220703</ele>
        <time>2022-03-06T10:25:11Z</time>
      </trkpt>
      <trkpt lat="45.19527" lon="4.58252">
        <ele>866.59997558594</ele>
        <time>2022-03-06T10:25:13Z</time>
      </trkpt>
      <trkpt lat="45.19518" lon="4.58267">
        <ele>867.79998779297</ele>
        <time>2022-03-06T10:25:18Z</time>
      </trkpt>
      <trkpt lat="45.19516" lon="4.58266">
        <ele>868.20001220703</ele>
        <time>2022-03-06T10:25:20Z</time>
      </trkpt>
      <trkpt lat="45.19511" lon="4.58273">
        <ele>868.59997558594</ele>
        <time>2022-03-06T10:25:26Z</time>
      </trkpt>
      <trkpt lat="45.19511" lon="4.58274">
        <ele>869.59997558594</ele>
        <time>2022-03-06T10:25:32Z</time>
      </trkpt>
      <trkpt lat="45.19499" lon="4.58281">
        <ele>870.79998779297</ele>
        <time>2022-03-06T10:25:35Z</time>
      </trkpt>
      <trkpt lat="45.19499" lon="4.58281">
        <ele>871.59997558594</ele>
        <time>2022-03-06T10:25:37Z</time>
      </trkpt>
      <trkpt lat="45.19494" lon="4.5829">
        <ele>873.20001220703</ele>
        <time>2022-03-06T10:25:42Z</time>
      </trkpt>
      <trkpt lat="45.19481" lon="4.583">
        <ele>874</ele>
        <time>2022-03-06T10:25:45Z</time>
      </trkpt>
      <trkpt lat="45.19478" lon="4.58304">
        <ele>876</ele>
        <time>2022-03-06T10:25:55Z</time>
      </trkpt>
      <trkpt lat="45.19478" lon="4.58305">
        <ele>876.40002441406</ele>
        <time>2022-03-06T10:25:59Z</time>
      </trkpt>
      <trkpt lat="45.1947" lon="4.58308">
        <ele>877.79998779297</ele>
        <time>2022-03-06T10:26:08Z</time>
      </trkpt>
      <trkpt lat="45.19468" lon="4.58309">
        <ele>880.59997558594</ele>
        <time>2022-03-06T10:26:25Z</time>
      </trkpt>
      <trkpt lat="45.19464" lon="4.58312">
        <ele>882.20001220703</ele>
        <time>2022-03-06T10:26:30Z</time>
      </trkpt>
      <trkpt lat="45.1945" lon="4.58321">
        <ele>883</ele>
        <time>2022-03-06T10:26:33Z</time>
      </trkpt>
      <trkpt lat="45.19441" lon="4.58322">
        <ele>883.40002441406</ele>
        <time>2022-03-06T10:26:35Z</time>
      </trkpt>
      <trkpt lat="45.19436" lon="4.58325">
        <ele>883.59997558594</ele>
        <time>2022-03-06T10:26:36Z</time>
      </trkpt>
      <trkpt lat="45.19422" lon="4.58332">
        <ele>884.20001220703</ele>
        <time>2022-03-06T10:26:40Z</time>
      </trkpt>
      <trkpt lat="45.19417" lon="4.58337">
        <ele>884.79998779297</ele>
        <time>2022-03-06T10:26:43Z</time>
      </trkpt>
      <trkpt lat="45.19402" lon="4.58346">
        <ele>885.59997558594</ele>
        <time>2022-03-06T10:26:48Z</time>
      </trkpt>
      <trkpt lat="45.19396" lon="4.58352">
        <ele>886</ele>
        <time>2022-03-06T10:26:51Z</time>
      </trkpt>
      <trkpt lat="45.19387" lon="4.58355">
        <ele>887</ele>
        <time>2022-03-06T10:26:57Z</time>
      </trkpt>
      <trkpt lat="45.19385" lon="4.58357">
        <ele>887.59997558594</ele>
        <time>2022-03-06T10:27:02Z</time>
      </trkpt>
      <trkpt lat="45.19378" lon="4.58367">
        <ele>888</ele>
        <time>2022-03-06T10:27:07Z</time>
      </trkpt>
      <trkpt lat="45.19375" lon="4.5837">
        <ele>888.40002441406</ele>
        <time>2022-03-06T10:27:12Z</time>
      </trkpt>
      <trkpt lat="45.1937" lon="4.58374">
        <ele>889.40002441406</ele>
        <time>2022-03-06T10:27:18Z</time>
      </trkpt>
      <trkpt lat="45.19363" lon="4.58378">
        <ele>890</ele>
        <time>2022-03-06T10:27:23Z</time>
      </trkpt>
      <trkpt lat="45.19362" lon="4.58379">
        <ele>890.40002441406</ele>
        <time>2022-03-06T10:27:25Z</time>
      </trkpt>
      <trkpt lat="45.19357" lon="4.58382">
        <ele>891</ele>
        <time>2022-03-06T10:27:29Z</time>
      </trkpt>
      <trkpt lat="45.19349" lon="4.58386">
        <ele>892.20001220703</ele>
        <time>2022-03-06T10:27:32Z</time>
      </trkpt>
      <trkpt lat="45.19338" lon="4.58396">
        <ele>892.40002441406</ele>
        <time>2022-03-06T10:27:37Z</time>
      </trkpt>
      <trkpt lat="45.19336" lon="4.58397">
        <ele>892.59997558594</ele>
        <time>2022-03-06T10:27:39Z</time>
      </trkpt>
      <trkpt lat="45.19334" lon="4.58396">
        <ele>892.59997558594</ele>
        <time>2022-03-06T10:27:41Z</time>
      </trkpt>
      <trkpt lat="45.1933" lon="4.58401">
        <ele>892.59997558594</ele>
        <time>2022-03-06T10:27:44Z</time>
      </trkpt>
      <trkpt lat="45.19321" lon="4.58406">
        <ele>893</ele>
        <time>2022-03-06T10:27:50Z</time>
      </trkpt>
      <trkpt lat="45.19309" lon="4.58413">
        <ele>893.20001220703</ele>
        <time>2022-03-06T10:27:57Z</time>
      </trkpt>
      <trkpt lat="45.19304" lon="4.58424">
        <ele>893.40002441406</ele>
        <time>2022-03-06T10:28:03Z</time>
      </trkpt>
      <trkpt lat="45.19289" lon="4.58458">
        <ele>893.40002441406</ele>
        <time>2022-03-06T10:28:10Z</time>
      </trkpt>
      <trkpt lat="45.19291" lon="4.58496">
        <ele>892.20001220703</ele>
        <time>2022-03-06T10:28:17Z</time>
      </trkpt>
      <trkpt lat="45.19295" lon="4.58509">
        <ele>891</ele>
        <time>2022-03-06T10:28:23Z</time>
      </trkpt>
      <trkpt lat="45.1929" lon="4.58529">
        <ele>890.59997558594</ele>
        <time>2022-03-06T10:28:26Z</time>
      </trkpt>
      <trkpt lat="45.19304" lon="4.58552">
        <ele>888.79998779297</ele>
        <time>2022-03-06T10:28:35Z</time>
      </trkpt>
      <trkpt lat="45.19309" lon="4.58564">
        <ele>888.59997558594</ele>
        <time>2022-03-06T10:28:38Z</time>
      </trkpt>
      <trkpt lat="45.19324" lon="4.58586">
        <ele>889</ele>
        <time>2022-03-06T10:28:53Z</time>
      </trkpt>
      <trkpt lat="45.19338" lon="4.58603">
        <ele>889.20001220703</ele>
        <time>2022-03-06T10:30:47Z</time>
      </trkpt>
      <trkpt lat="45.19355" lon="4.58622">
        <ele>889.79998779297</ele>
        <time>2022-03-06T10:31:00Z</time>
      </trkpt>
      <trkpt lat="45.1936" lon="4.5863">
        <ele>890.40002441406</ele>
        <time>2022-03-06T10:31:05Z</time>
      </trkpt>
      <trkpt lat="45.19363" lon="4.58629">
        <ele>890.79998779297</ele>
        <time>2022-03-06T10:31:07Z</time>
      </trkpt>
      <trkpt lat="45.19374" lon="4.58641">
        <ele>892</ele>
        <time>2022-03-06T10:31:15Z</time>
      </trkpt>
      <trkpt lat="45.19391" lon="4.58654">
        <ele>893</ele>
        <time>2022-03-06T10:31:23Z</time>
      </trkpt>
      <trkpt lat="45.19416" lon="4.58672">
        <ele>893.59997558594</ele>
        <time>2022-03-06T10:31:35Z</time>
      </trkpt>
      <trkpt lat="45.19434" lon="4.58699">
        <ele>893.59997558594</ele>
        <time>2022-03-06T10:31:48Z</time>
      </trkpt>
      <trkpt lat="45.19449" lon="4.58709">
        <ele>894.59997558594</ele>
        <time>2022-03-06T10:31:55Z</time>
      </trkpt>
      <trkpt lat="45.1945" lon="4.58711">
        <ele>894.59997558594</ele>
        <time>2022-03-06T10:31:56Z</time>
      </trkpt>
      <trkpt lat="45.19477" lon="4.58738">
        <ele>894.79998779297</ele>
        <time>2022-03-06T10:32:10Z</time>
      </trkpt>
      <trkpt lat="45.19501" lon="4.58758">
        <ele>894.40002441406</ele>
        <time>2022-03-06T10:32:19Z</time>
      </trkpt>
      <trkpt lat="45.19512" lon="4.58763">
        <ele>894.40002441406</ele>
        <time>2022-03-06T10:32:23Z</time>
      </trkpt>
      <trkpt lat="45.19539" lon="4.58787">
        <ele>896</ele>
        <time>2022-03-06T10:32:35Z</time>
      </trkpt>
      <trkpt lat="45.19567" lon="4.58821">
        <ele>896</ele>
        <time>2022-03-06T10:32:46Z</time>
      </trkpt>
      <trkpt lat="45.19569" lon="4.58825">
        <ele>896</ele>
        <time>2022-03-06T10:32:47Z</time>
      </trkpt>
      <trkpt lat="45.19571" lon="4.58828">
        <ele>896</ele>
        <time>2022-03-06T10:32:48Z</time>
      </trkpt>
      <trkpt lat="45.19572" lon="4.58843">
        <ele>896.59997558594</ele>
        <time>2022-03-06T10:32:52Z</time>
      </trkpt>
      <trkpt lat="45.19577" lon="4.58861">
        <ele>898.20001220703</ele>
        <time>2022-03-06T10:33:00Z</time>
      </trkpt>
      <trkpt lat="45.19578" lon="4.58865">
        <ele>899</ele>
        <time>2022-03-06T10:33:02Z</time>
      </trkpt>
      <trkpt lat="45.19586" lon="4.58888">
        <ele>900.40002441406</ele>
        <time>2022-03-06T10:33:11Z</time>
      </trkpt>
      <trkpt lat="45.19584" lon="4.58915">
        <ele>900.59997558594</ele>
        <time>2022-03-06T10:33:16Z</time>
      </trkpt>
      <trkpt lat="45.19588" lon="4.58958">
        <ele>899.79998779297</ele>
        <time>2022-03-06T10:33:23Z</time>
      </trkpt>
      <trkpt lat="45.19577" lon="4.59003">
        <ele>898.59997558594</ele>
        <time>2022-03-06T10:33:29Z</time>
      </trkpt>
      <trkpt lat="45.19565" lon="4.59047">
        <ele>896.59997558594</ele>
        <time>2022-03-06T10:33:34Z</time>
      </trkpt>
      <trkpt lat="45.19543" lon="4.5908">
        <ele>894.59997558594</ele>
        <time>2022-03-06T10:33:38Z</time>
      </trkpt>
      <trkpt lat="45.19502" lon="4.59129">
        <ele>891.79998779297</ele>
        <time>2022-03-06T10:33:44Z</time>
      </trkpt>
      <trkpt lat="45.19473" lon="4.59149">
        <ele>888.79998779297</ele>
        <time>2022-03-06T10:33:48Z</time>
      </trkpt>
      <trkpt lat="45.19469" lon="4.59153">
        <ele>888.59997558594</ele>
        <time>2022-03-06T10:33:49Z</time>
      </trkpt>
      <trkpt lat="45.19466" lon="4.59155">
        <ele>888.20001220703</ele>
        <time>2022-03-06T10:33:53Z</time>
      </trkpt>
      <trkpt lat="45.19454" lon="4.5916">
        <ele>889.40002441406</ele>
        <time>2022-03-06T10:34:02Z</time>
      </trkpt>
      <trkpt lat="45.19441" lon="4.59168">
        <ele>890.40002441406</ele>
        <time>2022-03-06T10:34:10Z</time>
      </trkpt>
      <trkpt lat="45.19441" lon="4.59168">
        <ele>891.20001220703</ele>
        <time>2022-03-06T10:34:14Z</time>
      </trkpt>
      <trkpt lat="45.19439" lon="4.59174">
        <ele>892.20001220703</ele>
        <time>2022-03-06T10:34:18Z</time>
      </trkpt>
      <trkpt lat="45.19437" lon="4.59175">
        <ele>893</ele>
        <time>2022-03-06T10:34:21Z</time>
      </trkpt>
      <trkpt lat="45.19432" lon="4.5918">
        <ele>893.59997558594</ele>
        <time>2022-03-06T10:34:25Z</time>
      </trkpt>
      <trkpt lat="45.19432" lon="4.5918">
        <ele>894.20001220703</ele>
        <time>2022-03-06T10:34:28Z</time>
      </trkpt>
      <trkpt lat="45.19412" lon="4.59198">
        <ele>896</ele>
        <time>2022-03-06T10:34:33Z</time>
      </trkpt>
      <trkpt lat="45.19412" lon="4.59198">
        <ele>896.79998779297</ele>
        <time>2022-03-06T10:34:39Z</time>
      </trkpt>
      <trkpt lat="45.1941" lon="4.59201">
        <ele>897</ele>
        <time>2022-03-06T10:34:40Z</time>
      </trkpt>
      <trkpt lat="45.19396" lon="4.59217">
        <ele>897.59997558594</ele>
        <time>2022-03-06T10:34:43Z</time>
      </trkpt>
      <trkpt lat="45.19394" lon="4.59218">
        <ele>899</ele>
        <time>2022-03-06T10:34:50Z</time>
      </trkpt>
      <trkpt lat="45.19394" lon="4.59219">
        <ele>899.40002441406</ele>
        <time>2022-03-06T10:34:51Z</time>
      </trkpt>
      <trkpt lat="45.19403" lon="4.59227">
        <ele>900.40002441406</ele>
        <time>2022-03-06T10:34:58Z</time>
      </trkpt>
      <trkpt lat="45.19403" lon="4.59227">
        <ele>901</ele>
        <time>2022-03-06T10:35:00Z</time>
      </trkpt>
      <trkpt lat="45.19402" lon="4.59229">
        <ele>901.20001220703</ele>
        <time>2022-03-06T10:35:02Z</time>
      </trkpt>
      <trkpt lat="45.19391" lon="4.59235">
        <ele>902.79998779297</ele>
        <time>2022-03-06T10:35:09Z</time>
      </trkpt>
      <trkpt lat="45.1939" lon="4.59235">
        <ele>903.20001220703</ele>
        <time>2022-03-06T10:35:10Z</time>
      </trkpt>
      <trkpt lat="45.19379" lon="4.59243">
        <ele>903.79998779297</ele>
        <time>2022-03-06T10:35:13Z</time>
      </trkpt>
      <trkpt lat="45.19374" lon="4.59247">
        <ele>904.20001220703</ele>
        <time>2022-03-06T10:35:15Z</time>
      </trkpt>
      <trkpt lat="45.1937" lon="4.59253">
        <ele>905</ele>
        <time>2022-03-06T10:35:19Z</time>
      </trkpt>
      <trkpt lat="45.19354" lon="4.59268">
        <ele>905.79998779297</ele>
        <time>2022-03-06T10:35:25Z</time>
      </trkpt>
      <trkpt lat="45.19349" lon="4.5927">
        <ele>906.20001220703</ele>
        <time>2022-03-06T10:35:27Z</time>
      </trkpt>
      <trkpt lat="45.19341" lon="4.59275">
        <ele>906.79998779297</ele>
        <time>2022-03-06T10:35:30Z</time>
      </trkpt>
      <trkpt lat="45.19336" lon="4.5928">
        <ele>908.20001220703</ele>
        <time>2022-03-06T10:35:39Z</time>
      </trkpt>
      <trkpt lat="45.19336" lon="4.5928">
        <ele>908.40002441406</ele>
        <time>2022-03-06T10:35:41Z</time>
      </trkpt>
      <trkpt lat="45.19337" lon="4.59284">
        <ele>909.40002441406</ele>
        <time>2022-03-06T10:35:46Z</time>
      </trkpt>
      <trkpt lat="45.19328" lon="4.59293">
        <ele>910.40002441406</ele>
        <time>2022-03-06T10:35:51Z</time>
      </trkpt>
      <trkpt lat="45.19333" lon="4.59297">
        <ele>911</ele>
        <time>2022-03-06T10:35:54Z</time>
      </trkpt>
      <trkpt lat="45.19333" lon="4.59297">
        <ele>911.40002441406</ele>
        <time>2022-03-06T10:35:56Z</time>
      </trkpt>
      <trkpt lat="45.19319" lon="4.59304">
        <ele>911.59997558594</ele>
        <time>2022-03-06T10:35:59Z</time>
      </trkpt>
      <trkpt lat="45.19317" lon="4.59306">
        <ele>911.79998779297</ele>
        <time>2022-03-06T10:36:00Z</time>
      </trkpt>
      <trkpt lat="45.19317" lon="4.59309">
        <ele>912</ele>
        <time>2022-03-06T10:36:02Z</time>
      </trkpt>
      <trkpt lat="45.19311" lon="4.59319">
        <ele>912.59997558594</ele>
        <time>2022-03-06T10:36:08Z</time>
      </trkpt>
      <trkpt lat="45.19308" lon="4.59324">
        <ele>913.20001220703</ele>
        <time>2022-03-06T10:36:11Z</time>
      </trkpt>
      <trkpt lat="45.19294" lon="4.59339">
        <ele>914</ele>
        <time>2022-03-06T10:36:16Z</time>
      </trkpt>
      <trkpt lat="45.19282" lon="4.59359">
        <ele>915</ele>
        <time>2022-03-06T10:36:21Z</time>
      </trkpt>
      <trkpt lat="45.19276" lon="4.59372">
        <ele>915.40002441406</ele>
        <time>2022-03-06T10:36:26Z</time>
      </trkpt>
      <trkpt lat="45.19273" lon="4.59377">
        <ele>915.40002441406</ele>
        <time>2022-03-06T10:36:29Z</time>
      </trkpt>
      <trkpt lat="45.19273" lon="4.59379">
        <ele>916</ele>
        <time>2022-03-06T10:36:32Z</time>
      </trkpt>
      <trkpt lat="45.19263" lon="4.59387">
        <ele>917</ele>
        <time>2022-03-06T10:36:38Z</time>
      </trkpt>
      <trkpt lat="45.19256" lon="4.59399">
        <ele>918.79998779297</ele>
        <time>2022-03-06T10:36:50Z</time>
      </trkpt>
      <trkpt lat="45.19255" lon="4.594">
        <ele>919.20001220703</ele>
        <time>2022-03-06T10:36:52Z</time>
      </trkpt>
      <trkpt lat="45.19249" lon="4.59411">
        <ele>920.40002441406</ele>
        <time>2022-03-06T10:36:56Z</time>
      </trkpt>
      <trkpt lat="45.19245" lon="4.5942">
        <ele>921.20001220703</ele>
        <time>2022-03-06T10:37:01Z</time>
      </trkpt>
      <trkpt lat="45.19242" lon="4.59424">
        <ele>921.20001220703</ele>
        <time>2022-03-06T10:37:02Z</time>
      </trkpt>
      <trkpt lat="45.19241" lon="4.59441">
        <ele>922</ele>
        <time>2022-03-06T10:37:07Z</time>
      </trkpt>
      <trkpt lat="45.1924" lon="4.59446">
        <ele>922.20001220703</ele>
        <time>2022-03-06T10:37:08Z</time>
      </trkpt>
      <trkpt lat="45.19235" lon="4.59465">
        <ele>922.59997558594</ele>
        <time>2022-03-06T10:37:13Z</time>
      </trkpt>
      <trkpt lat="45.19236" lon="4.5947">
        <ele>923.20001220703</ele>
        <time>2022-03-06T10:37:15Z</time>
      </trkpt>
      <trkpt lat="45.19235" lon="4.59482">
        <ele>924.79998779297</ele>
        <time>2022-03-06T10:37:22Z</time>
      </trkpt>
      <trkpt lat="45.19236" lon="4.59499">
        <ele>926.40002441406</ele>
        <time>2022-03-06T10:37:29Z</time>
      </trkpt>
      <trkpt lat="45.19239" lon="4.59516">
        <ele>927.79998779297</ele>
        <time>2022-03-06T10:37:36Z</time>
      </trkpt>
      <trkpt lat="45.19238" lon="4.5952">
        <ele>928.79998779297</ele>
        <time>2022-03-06T10:37:40Z</time>
      </trkpt>
      <trkpt lat="45.19239" lon="4.59539">
        <ele>929.79998779297</ele>
        <time>2022-03-06T10:37:45Z</time>
      </trkpt>
      <trkpt lat="45.19241" lon="4.59542">
        <ele>930.59997558594</ele>
        <time>2022-03-06T10:37:49Z</time>
      </trkpt>
      <trkpt lat="45.19241" lon="4.59546">
        <ele>931</ele>
        <time>2022-03-06T10:37:52Z</time>
      </trkpt>
      <trkpt lat="45.19242" lon="4.59549">
        <ele>931.20001220703</ele>
        <time>2022-03-06T10:37:54Z</time>
      </trkpt>
      <trkpt lat="45.19244" lon="4.5956">
        <ele>932</ele>
        <time>2022-03-06T10:38:00Z</time>
      </trkpt>
      <trkpt lat="45.19243" lon="4.59565">
        <ele>932.79998779297</ele>
        <time>2022-03-06T10:38:04Z</time>
      </trkpt>
      <trkpt lat="45.19243" lon="4.59585">
        <ele>934</ele>
        <time>2022-03-06T10:38:09Z</time>
      </trkpt>
      <trkpt lat="45.19244" lon="4.59592">
        <ele>935</ele>
        <time>2022-03-06T10:38:14Z</time>
      </trkpt>
      <trkpt lat="45.19243" lon="4.59596">
        <ele>935.20001220703</ele>
        <time>2022-03-06T10:38:16Z</time>
      </trkpt>
      <trkpt lat="45.19243" lon="4.59603">
        <ele>935.79998779297</ele>
        <time>2022-03-06T10:38:20Z</time>
      </trkpt>
      <trkpt lat="45.19245" lon="4.59607">
        <ele>936.20001220703</ele>
        <time>2022-03-06T10:38:22Z</time>
      </trkpt>
      <trkpt lat="45.19246" lon="4.59618">
        <ele>937.40002441406</ele>
        <time>2022-03-06T10:38:27Z</time>
      </trkpt>
      <trkpt lat="45.19246" lon="4.59636">
        <ele>938</ele>
        <time>2022-03-06T10:38:32Z</time>
      </trkpt>
      <trkpt lat="45.19243" lon="4.59643">
        <ele>938.40002441406</ele>
        <time>2022-03-06T10:38:34Z</time>
      </trkpt>
      <trkpt lat="45.19243" lon="4.59647">
        <ele>938.79998779297</ele>
        <time>2022-03-06T10:38:36Z</time>
      </trkpt>
      <trkpt lat="45.19242" lon="4.5966">
        <ele>940</ele>
        <time>2022-03-06T10:38:43Z</time>
      </trkpt>
      <trkpt lat="45.19247" lon="4.5967">
        <ele>940.79998779297</ele>
        <time>2022-03-06T10:38:48Z</time>
      </trkpt>
      <trkpt lat="45.19248" lon="4.59688">
        <ele>941.20001220703</ele>
        <time>2022-03-06T10:38:54Z</time>
      </trkpt>
      <trkpt lat="45.19248" lon="4.59705">
        <ele>941.79998779297</ele>
        <time>2022-03-06T10:39:01Z</time>
      </trkpt>
      <trkpt lat="45.1925" lon="4.59717">
        <ele>942.40002441406</ele>
        <time>2022-03-06T10:39:08Z</time>
      </trkpt>
      <trkpt lat="45.1925" lon="4.59719">
        <ele>942.59997558594</ele>
        <time>2022-03-06T10:39:09Z</time>
      </trkpt>
      <trkpt lat="45.19252" lon="4.59734">
        <ele>944.40002441406</ele>
        <time>2022-03-06T10:39:17Z</time>
      </trkpt>
      <trkpt lat="45.19251" lon="4.59757">
        <ele>947.20001220703</ele>
        <time>2022-03-06T10:39:27Z</time>
      </trkpt>
      <trkpt lat="45.19252" lon="4.59761">
        <ele>948</ele>
        <time>2022-03-06T10:39:30Z</time>
      </trkpt>
      <trkpt lat="45.19255" lon="4.59764">
        <ele>949</ele>
        <time>2022-03-06T10:39:34Z</time>
      </trkpt>
      <trkpt lat="45.19254" lon="4.59774">
        <ele>950.40002441406</ele>
        <time>2022-03-06T10:39:39Z</time>
      </trkpt>
      <trkpt lat="45.19254" lon="4.59774">
        <ele>951.79998779297</ele>
        <time>2022-03-06T10:39:43Z</time>
      </trkpt>
      <trkpt lat="45.19253" lon="4.59776">
        <ele>952.40002441406</ele>
        <time>2022-03-06T10:39:45Z</time>
      </trkpt>
      <trkpt lat="45.19254" lon="4.59778">
        <ele>953.59997558594</ele>
        <time>2022-03-06T10:39:57Z</time>
      </trkpt>
      <trkpt lat="45.19255" lon="4.59783">
        <ele>953.79998779297</ele>
        <time>2022-03-06T10:40:01Z</time>
      </trkpt>
      <trkpt lat="45.19255" lon="4.59786">
        <ele>954.40002441406</ele>
        <time>2022-03-06T10:40:05Z</time>
      </trkpt>
      <trkpt lat="45.19261" lon="4.59798">
        <ele>956.20001220703</ele>
        <time>2022-03-06T10:40:11Z</time>
      </trkpt>
      <trkpt lat="45.1927" lon="4.59818">
        <ele>959.20001220703</ele>
        <time>2022-03-06T10:40:23Z</time>
      </trkpt>
      <trkpt lat="45.19273" lon="4.59825">
        <ele>959.79998779297</ele>
        <time>2022-03-06T10:40:29Z</time>
      </trkpt>
      <trkpt lat="45.19274" lon="4.59836">
        <ele>961.40002441406</ele>
        <time>2022-03-06T10:40:36Z</time>
      </trkpt>
      <trkpt lat="45.19276" lon="4.59838">
        <ele>962.20001220703</ele>
        <time>2022-03-06T10:40:38Z</time>
      </trkpt>
      <trkpt lat="45.19276" lon="4.59841">
        <ele>962.79998779297</ele>
        <time>2022-03-06T10:40:40Z</time>
      </trkpt>
      <trkpt lat="45.19281" lon="4.5985">
        <ele>964.40002441406</ele>
        <time>2022-03-06T10:40:45Z</time>
      </trkpt>
      <trkpt lat="45.19284" lon="4.59856">
        <ele>965.59997558594</ele>
        <time>2022-03-06T10:40:49Z</time>
      </trkpt>
      <trkpt lat="45.19286" lon="4.59864">
        <ele>966.20001220703</ele>
        <time>2022-03-06T10:40:52Z</time>
      </trkpt>
      <trkpt lat="45.19287" lon="4.5987">
        <ele>967</ele>
        <time>2022-03-06T10:40:57Z</time>
      </trkpt>
      <trkpt lat="45.19288" lon="4.59874">
        <ele>968</ele>
        <time>2022-03-06T10:41:00Z</time>
      </trkpt>
      <trkpt lat="45.1929" lon="4.59875">
        <ele>968.59997558594</ele>
        <time>2022-03-06T10:41:02Z</time>
      </trkpt>
      <trkpt lat="45.19292" lon="4.59878">
        <ele>969.20001220703</ele>
        <time>2022-03-06T10:41:05Z</time>
      </trkpt>
      <trkpt lat="45.19294" lon="4.59885">
        <ele>970.20001220703</ele>
        <time>2022-03-06T10:41:11Z</time>
      </trkpt>
      <trkpt lat="45.19297" lon="4.59895">
        <ele>971</ele>
        <time>2022-03-06T10:41:19Z</time>
      </trkpt>
      <trkpt lat="45.19299" lon="4.59901">
        <ele>972.79998779297</ele>
        <time>2022-03-06T10:41:25Z</time>
      </trkpt>
      <trkpt lat="45.19299" lon="4.59904">
        <ele>973.20001220703</ele>
        <time>2022-03-06T10:41:28Z</time>
      </trkpt>
      <trkpt lat="45.19304" lon="4.59912">
        <ele>974.40002441406</ele>
        <time>2022-03-06T10:41:35Z</time>
      </trkpt>
      <trkpt lat="45.19313" lon="4.59927">
        <ele>975.59997558594</ele>
        <time>2022-03-06T10:41:42Z</time>
      </trkpt>
      <trkpt lat="45.19323" lon="4.5994">
        <ele>976.59997558594</ele>
        <time>2022-03-06T10:41:48Z</time>
      </trkpt>
      <trkpt lat="45.19325" lon="4.59949">
        <ele>977</ele>
        <time>2022-03-06T10:41:53Z</time>
      </trkpt>
      <trkpt lat="45.19332" lon="4.59948">
        <ele>978</ele>
        <time>2022-03-06T10:41:58Z</time>
      </trkpt>
      <trkpt lat="45.19342" lon="4.59954">
        <ele>978.59997558594</ele>
        <time>2022-03-06T10:42:04Z</time>
      </trkpt>
      <trkpt lat="45.19356" lon="4.59969">
        <ele>979.20001220703</ele>
        <time>2022-03-06T10:42:12Z</time>
      </trkpt>
      <trkpt lat="45.19364" lon="4.59975">
        <ele>979.59997558594</ele>
        <time>2022-03-06T10:42:16Z</time>
      </trkpt>
      <trkpt lat="45.19366" lon="4.59978">
        <ele>979.79998779297</ele>
        <time>2022-03-06T10:42:17Z</time>
      </trkpt>
      <trkpt lat="45.19387" lon="4.59994">
        <ele>980.79998779297</ele>
        <time>2022-03-06T10:42:25Z</time>
      </trkpt>
      <trkpt lat="45.19403" lon="4.60003">
        <ele>981.59997558594</ele>
        <time>2022-03-06T10:42:33Z</time>
      </trkpt>
      <trkpt lat="45.1941" lon="4.60008">
        <ele>981.79998779297</ele>
        <time>2022-03-06T10:42:37Z</time>
      </trkpt>
      <trkpt lat="45.19412" lon="4.60012">
        <ele>982</ele>
        <time>2022-03-06T10:42:39Z</time>
      </trkpt>
      <trkpt lat="45.19417" lon="4.60012">
        <ele>982.40002441406</ele>
        <time>2022-03-06T10:42:42Z</time>
      </trkpt>
      <trkpt lat="45.19419" lon="4.60021">
        <ele>982.79998779297</ele>
        <time>2022-03-06T10:42:48Z</time>
      </trkpt>
      <trkpt lat="45.19405" lon="4.60015">
        <ele>984</ele>
        <time>2022-03-06T10:42:55Z</time>
      </trkpt>
      <trkpt lat="45.19375" lon="4.60006">
        <ele>985.59997558594</ele>
        <time>2022-03-06T10:43:08Z</time>
      </trkpt>
      <trkpt lat="45.19349" lon="4.6">
        <ele>987.40002441406</ele>
        <time>2022-03-06T10:43:21Z</time>
      </trkpt>
      <trkpt lat="45.19323" lon="4.59992">
        <ele>989</ele>
        <time>2022-03-06T10:43:35Z</time>
      </trkpt>
      <trkpt lat="45.19304" lon="4.59982">
        <ele>990.59997558594</ele>
        <time>2022-03-06T10:43:46Z</time>
      </trkpt>
      <trkpt lat="45.19297" lon="4.59981">
        <ele>991.20001220703</ele>
        <time>2022-03-06T10:43:49Z</time>
      </trkpt>
      <trkpt lat="45.19285" lon="4.59975">
        <ele>992.59997558594</ele>
        <time>2022-03-06T10:43:56Z</time>
      </trkpt>
      <trkpt lat="45.19276" lon="4.59971">
        <ele>993.20001220703</ele>
        <time>2022-03-06T10:44:01Z</time>
      </trkpt>
      <trkpt lat="45.19264" lon="4.59959">
        <ele>994.79998779297</ele>
        <time>2022-03-06T10:44:08Z</time>
      </trkpt>
      <trkpt lat="45.19247" lon="4.59947">
        <ele>996</ele>
        <time>2022-03-06T10:44:15Z</time>
      </trkpt>
      <trkpt lat="45.1924" lon="4.59942">
        <ele>996.59997558594</ele>
        <time>2022-03-06T10:44:20Z</time>
      </trkpt>
      <trkpt lat="45.1922" lon="4.59931">
        <ele>998.59997558594</ele>
        <time>2022-03-06T10:44:30Z</time>
      </trkpt>
      <trkpt lat="45.1919" lon="4.59914">
        <ele>1000.5999755859</ele>
        <time>2022-03-06T10:44:43Z</time>
      </trkpt>
      <trkpt lat="45.19177" lon="4.59905">
        <ele>1001.5999755859</ele>
        <time>2022-03-06T10:44:49Z</time>
      </trkpt>
      <trkpt lat="45.19171" lon="4.59895">
        <ele>1002</ele>
        <time>2022-03-06T10:44:54Z</time>
      </trkpt>
      <trkpt lat="45.19155" lon="4.59878">
        <ele>1003</ele>
        <time>2022-03-06T10:45:03Z</time>
      </trkpt>
      <trkpt lat="45.19148" lon="4.59871">
        <ele>1003.799987793</ele>
        <time>2022-03-06T10:45:06Z</time>
      </trkpt>
      <trkpt lat="45.19129" lon="4.59857">
        <ele>1005</ele>
        <time>2022-03-06T10:45:13Z</time>
      </trkpt>
      <trkpt lat="45.19123" lon="4.5985">
        <ele>1005.4000244141</ele>
        <time>2022-03-06T10:45:16Z</time>
      </trkpt>
      <trkpt lat="45.1911" lon="4.59833">
        <ele>1006.200012207</ele>
        <time>2022-03-06T10:45:23Z</time>
      </trkpt>
      <trkpt lat="45.19094" lon="4.59799">
        <ele>1006.5999755859</ele>
        <time>2022-03-06T10:45:36Z</time>
      </trkpt>
      <trkpt lat="45.19089" lon="4.59797">
        <ele>1007.200012207</ele>
        <time>2022-03-06T10:45:58Z</time>
      </trkpt>
      <trkpt lat="45.19086" lon="4.59799">
        <ele>1006</ele>
        <time>2022-03-06T10:47:16Z</time>
      </trkpt>
      <trkpt lat="45.19086" lon="4.59799">
        <ele>1004.5999755859</ele>
        <time>2022-03-06T10:47:45Z</time>
      </trkpt>
      <trkpt lat="45.19086" lon="4.59799">
        <ele>1004</ele>
        <time>2022-03-06T10:48:50Z</time>
      </trkpt>
      <trkpt lat="45.19086" lon="4.59798">
        <ele>1006</ele>
        <time>2022-03-06T10:51:57Z</time>
      </trkpt>
      <trkpt lat="45.19086" lon="4.59798">
        <ele>1008.200012207</ele>
        <time>2022-03-06T10:56:42Z</time>
      </trkpt>
      <trkpt lat="45.19082" lon="4.5981">
        <ele>1007.799987793</ele>
        <time>2022-03-06T10:56:46Z</time>
      </trkpt>
      <trkpt lat="45.19077" lon="4.59855">
        <ele>1005</ele>
        <time>2022-03-06T10:56:57Z</time>
      </trkpt>
      <trkpt lat="45.19076" lon="4.59872">
        <ele>1003.4000244141</ele>
        <time>2022-03-06T10:57:00Z</time>
      </trkpt>
      <trkpt lat="45.1907" lon="4.59898">
        <ele>1000.4000244141</ele>
        <time>2022-03-06T10:57:05Z</time>
      </trkpt>
      <trkpt lat="45.19067" lon="4.59904">
        <ele>1000</ele>
        <time>2022-03-06T10:57:06Z</time>
      </trkpt>
      <trkpt lat="45.19063" lon="4.5991">
        <ele>999.20001220703</ele>
        <time>2022-03-06T10:57:07Z</time>
      </trkpt>
      <trkpt lat="45.19062" lon="4.59938">
        <ele>996</ele>
        <time>2022-03-06T10:57:11Z</time>
      </trkpt>
      <trkpt lat="45.19059" lon="4.59977">
        <ele>992.20001220703</ele>
        <time>2022-03-06T10:57:16Z</time>
      </trkpt>
      <trkpt lat="45.19052" lon="4.60006">
        <ele>989</ele>
        <time>2022-03-06T10:57:21Z</time>
      </trkpt>
      <trkpt lat="45.19045" lon="4.6003">
        <ele>985.79998779297</ele>
        <time>2022-03-06T10:57:26Z</time>
      </trkpt>
      <trkpt lat="45.1904" lon="4.60036">
        <ele>985</ele>
        <time>2022-03-06T10:57:27Z</time>
      </trkpt>
      <trkpt lat="45.19034" lon="4.60044">
        <ele>983.59997558594</ele>
        <time>2022-03-06T10:57:28Z</time>
      </trkpt>
      <trkpt lat="45.19031" lon="4.60071">
        <ele>981.40002441406</ele>
        <time>2022-03-06T10:57:32Z</time>
      </trkpt>
      <trkpt lat="45.19027" lon="4.60103">
        <ele>979.20001220703</ele>
        <time>2022-03-06T10:57:36Z</time>
      </trkpt>
      <trkpt lat="45.19023" lon="4.6011">
        <ele>978</ele>
        <time>2022-03-06T10:57:37Z</time>
      </trkpt>
      <trkpt lat="45.19014" lon="4.60125">
        <ele>976.59997558594</ele>
        <time>2022-03-06T10:57:39Z</time>
      </trkpt>
      <trkpt lat="45.19006" lon="4.60157">
        <ele>972.40002441406</ele>
        <time>2022-03-06T10:57:44Z</time>
      </trkpt>
      <trkpt lat="45.19006" lon="4.6016">
        <ele>971.40002441406</ele>
        <time>2022-03-06T10:57:45Z</time>
      </trkpt>
      <trkpt lat="45.19004" lon="4.60164">
        <ele>970.20001220703</ele>
        <time>2022-03-06T10:57:48Z</time>
      </trkpt>
      <trkpt lat="45.19009" lon="4.60144">
        <ele>968</ele>
        <time>2022-03-06T10:57:55Z</time>
      </trkpt>
      <trkpt lat="45.19011" lon="4.6013">
        <ele>967.59997558594</ele>
        <time>2022-03-06T10:57:59Z</time>
      </trkpt>
      <trkpt lat="45.19017" lon="4.60083">
        <ele>968.20001220703</ele>
        <time>2022-03-06T10:58:09Z</time>
      </trkpt>
      <trkpt lat="45.19025" lon="4.60026">
        <ele>968.79998779297</ele>
        <time>2022-03-06T10:58:21Z</time>
      </trkpt>
      <trkpt lat="45.19025" lon="4.59979">
        <ele>970.40002441406</ele>
        <time>2022-03-06T10:58:32Z</time>
      </trkpt>
      <trkpt lat="45.19017" lon="4.59945">
        <ele>970.59997558594</ele>
        <time>2022-03-06T10:58:41Z</time>
      </trkpt>
      <trkpt lat="45.18995" lon="4.59886">
        <ele>970.40002441406</ele>
        <time>2022-03-06T10:58:56Z</time>
      </trkpt>
      <trkpt lat="45.18986" lon="4.59863">
        <ele>969.79998779297</ele>
        <time>2022-03-06T10:59:03Z</time>
      </trkpt>
      <trkpt lat="45.18965" lon="4.59829">
        <ele>970.20001220703</ele>
        <time>2022-03-06T10:59:12Z</time>
      </trkpt>
      <trkpt lat="45.18962" lon="4.59825">
        <ele>970.79998779297</ele>
        <time>2022-03-06T10:59:15Z</time>
      </trkpt>
      <trkpt lat="45.1896" lon="4.59824">
        <ele>971.20001220703</ele>
        <time>2022-03-06T10:59:17Z</time>
      </trkpt>
      <trkpt lat="45.18941" lon="4.59797">
        <ele>972.20001220703</ele>
        <time>2022-03-06T10:59:29Z</time>
      </trkpt>
      <trkpt lat="45.18937" lon="4.59792">
        <ele>972.40002441406</ele>
        <time>2022-03-06T10:59:32Z</time>
      </trkpt>
      <trkpt lat="45.18929" lon="4.59784">
        <ele>972.59997558594</ele>
        <time>2022-03-06T10:59:34Z</time>
      </trkpt>
      <trkpt lat="45.18928" lon="4.5978">
        <ele>973</ele>
        <time>2022-03-06T10:59:36Z</time>
      </trkpt>
      <trkpt lat="45.18919" lon="4.59776">
        <ele>974</ele>
        <time>2022-03-06T10:59:43Z</time>
      </trkpt>
      <trkpt lat="45.18917" lon="4.59774">
        <ele>974.20001220703</ele>
        <time>2022-03-06T10:59:44Z</time>
      </trkpt>
      <trkpt lat="45.1891" lon="4.59772">
        <ele>974.59997558594</ele>
        <time>2022-03-06T10:59:47Z</time>
      </trkpt>
      <trkpt lat="45.18904" lon="4.59764">
        <ele>975</ele>
        <time>2022-03-06T10:59:51Z</time>
      </trkpt>
      <trkpt lat="45.1889" lon="4.59758">
        <ele>975.59997558594</ele>
        <time>2022-03-06T10:59:56Z</time>
      </trkpt>
      <trkpt lat="45.18866" lon="4.59763">
        <ele>975.79998779297</ele>
        <time>2022-03-06T11:00:00Z</time>
      </trkpt>
      <trkpt lat="45.18852" lon="4.59763">
        <ele>975.40002441406</ele>
        <time>2022-03-06T11:00:05Z</time>
      </trkpt>
      <trkpt lat="45.18795" lon="4.59779">
        <ele>974.59997558594</ele>
        <time>2022-03-06T11:00:15Z</time>
      </trkpt>
      <trkpt lat="45.18786" lon="4.59778">
        <ele>973.59997558594</ele>
        <time>2022-03-06T11:00:16Z</time>
      </trkpt>
      <trkpt lat="45.18761" lon="4.59774">
        <ele>972</ele>
        <time>2022-03-06T11:00:19Z</time>
      </trkpt>
      <trkpt lat="45.18734" lon="4.59765">
        <ele>969.79998779297</ele>
        <time>2022-03-06T11:00:24Z</time>
      </trkpt>
      <trkpt lat="45.18729" lon="4.59765">
        <ele>969.59997558594</ele>
        <time>2022-03-06T11:00:25Z</time>
      </trkpt>
      <trkpt lat="45.18706" lon="4.59762">
        <ele>968.59997558594</ele>
        <time>2022-03-06T11:00:31Z</time>
      </trkpt>
      <trkpt lat="45.18704" lon="4.59761">
        <ele>968.59997558594</ele>
        <time>2022-03-06T11:00:32Z</time>
      </trkpt>
      <trkpt lat="45.18702" lon="4.59759">
        <ele>968.59997558594</ele>
        <time>2022-03-06T11:00:33Z</time>
      </trkpt>
      <trkpt lat="45.18696" lon="4.59759">
        <ele>968.40002441406</ele>
        <time>2022-03-06T11:00:36Z</time>
      </trkpt>
      <trkpt lat="45.18675" lon="4.59757">
        <ele>968.79998779297</ele>
        <time>2022-03-06T11:00:42Z</time>
      </trkpt>
      <trkpt lat="45.18661" lon="4.5976">
        <ele>968.59997558594</ele>
        <time>2022-03-06T11:00:46Z</time>
      </trkpt>
      <trkpt lat="45.18626" lon="4.59778">
        <ele>967.40002441406</ele>
        <time>2022-03-06T11:00:52Z</time>
      </trkpt>
      <trkpt lat="45.18605" lon="4.59795">
        <ele>964</ele>
        <time>2022-03-06T11:00:56Z</time>
      </trkpt>
      <trkpt lat="45.18594" lon="4.598">
        <ele>962.59997558594</ele>
        <time>2022-03-06T11:00:58Z</time>
      </trkpt>
      <trkpt lat="45.18557" lon="4.59823">
        <ele>959.40002441406</ele>
        <time>2022-03-06T11:01:04Z</time>
      </trkpt>
      <trkpt lat="45.18523" lon="4.59836">
        <ele>957</ele>
        <time>2022-03-06T11:01:10Z</time>
      </trkpt>
      <trkpt lat="45.18521" lon="4.59839">
        <ele>956.79998779297</ele>
        <time>2022-03-06T11:01:11Z</time>
      </trkpt>
      <trkpt lat="45.18532" lon="4.59849">
        <ele>955.59997558594</ele>
        <time>2022-03-06T11:01:16Z</time>
      </trkpt>
      <trkpt lat="45.18554" lon="4.5985">
        <ele>952.20001220703</ele>
        <time>2022-03-06T11:01:23Z</time>
      </trkpt>
      <trkpt lat="45.18566" lon="4.59853">
        <ele>949.20001220703</ele>
        <time>2022-03-06T11:01:27Z</time>
      </trkpt>
      <trkpt lat="45.18578" lon="4.59855">
        <ele>946.20001220703</ele>
        <time>2022-03-06T11:01:30Z</time>
      </trkpt>
      <trkpt lat="45.18589" lon="4.59856">
        <ele>943.20001220703</ele>
        <time>2022-03-06T11:01:34Z</time>
      </trkpt>
      <trkpt lat="45.18592" lon="4.59856">
        <ele>942.59997558594</ele>
        <time>2022-03-06T11:01:35Z</time>
      </trkpt>
      <trkpt lat="45.18606" lon="4.59861">
        <ele>940.20001220703</ele>
        <time>2022-03-06T11:01:38Z</time>
      </trkpt>
      <trkpt lat="45.18623" lon="4.59866">
        <ele>936.40002441406</ele>
        <time>2022-03-06T11:01:43Z</time>
      </trkpt>
      <trkpt lat="45.18638" lon="4.59868">
        <ele>932.59997558594</ele>
        <time>2022-03-06T11:01:47Z</time>
      </trkpt>
      <trkpt lat="45.18644" lon="4.59871">
        <ele>930.79998779297</ele>
        <time>2022-03-06T11:01:49Z</time>
      </trkpt>
      <trkpt lat="45.18646" lon="4.59872">
        <ele>929.59997558594</ele>
        <time>2022-03-06T11:01:50Z</time>
      </trkpt>
      <trkpt lat="45.18651" lon="4.59878">
        <ele>928.20001220703</ele>
        <time>2022-03-06T11:01:53Z</time>
      </trkpt>
      <trkpt lat="45.18654" lon="4.59882">
        <ele>927.79998779297</ele>
        <time>2022-03-06T11:01:54Z</time>
      </trkpt>
      <trkpt lat="45.18674" lon="4.59895">
        <ele>924.59997558594</ele>
        <time>2022-03-06T11:01:59Z</time>
      </trkpt>
      <trkpt lat="45.18675" lon="4.59896">
        <ele>923.59997558594</ele>
        <time>2022-03-06T11:02:01Z</time>
      </trkpt>
      <trkpt lat="45.18676" lon="4.59897">
        <ele>921.79998779297</ele>
        <time>2022-03-06T11:02:03Z</time>
      </trkpt>
      <trkpt lat="45.18682" lon="4.59896">
        <ele>921</ele>
        <time>2022-03-06T11:02:05Z</time>
      </trkpt>
      <trkpt lat="45.18682" lon="4.59897">
        <ele>920</ele>
        <time>2022-03-06T11:02:07Z</time>
      </trkpt>
      <trkpt lat="45.18692" lon="4.59902">
        <ele>916.79998779297</ele>
        <time>2022-03-06T11:02:12Z</time>
      </trkpt>
      <trkpt lat="45.187" lon="4.59909">
        <ele>913.59997558594</ele>
        <time>2022-03-06T11:02:17Z</time>
      </trkpt>
      <trkpt lat="45.18703" lon="4.59911">
        <ele>912.79998779297</ele>
        <time>2022-03-06T11:02:18Z</time>
      </trkpt>
      <trkpt lat="45.18705" lon="4.59912">
        <ele>912.59997558594</ele>
        <time>2022-03-06T11:02:19Z</time>
      </trkpt>
      <trkpt lat="45.18728" lon="4.59936">
        <ele>909.20001220703</ele>
        <time>2022-03-06T11:02:27Z</time>
      </trkpt>
      <trkpt lat="45.18735" lon="4.59939">
        <ele>906.59997558594</ele>
        <time>2022-03-06T11:02:31Z</time>
      </trkpt>
      <trkpt lat="45.18743" lon="4.59946">
        <ele>904.40002441406</ele>
        <time>2022-03-06T11:02:36Z</time>
      </trkpt>
      <trkpt lat="45.18752" lon="4.59962">
        <ele>902.20001220703</ele>
        <time>2022-03-06T11:02:40Z</time>
      </trkpt>
      <trkpt lat="45.18759" lon="4.59968">
        <ele>899.79998779297</ele>
        <time>2022-03-06T11:02:44Z</time>
      </trkpt>
      <trkpt lat="45.18765" lon="4.59974">
        <ele>897.20001220703</ele>
        <time>2022-03-06T11:02:49Z</time>
      </trkpt>
      <trkpt lat="45.18777" lon="4.59982">
        <ele>893.20001220703</ele>
        <time>2022-03-06T11:02:55Z</time>
      </trkpt>
      <trkpt lat="45.18786" lon="4.5999">
        <ele>889.79998779297</ele>
        <time>2022-03-06T11:03:00Z</time>
      </trkpt>
      <trkpt lat="45.18791" lon="4.59995">
        <ele>888.79998779297</ele>
        <time>2022-03-06T11:03:03Z</time>
      </trkpt>
      <trkpt lat="45.18793" lon="4.59998">
        <ele>887.20001220703</ele>
        <time>2022-03-06T11:03:05Z</time>
      </trkpt>
      <trkpt lat="45.18797" lon="4.60005">
        <ele>886</ele>
        <time>2022-03-06T11:03:08Z</time>
      </trkpt>
      <trkpt lat="45.18806" lon="4.60021">
        <ele>882.79998779297</ele>
        <time>2022-03-06T11:03:13Z</time>
      </trkpt>
      <trkpt lat="45.18808" lon="4.60034">
        <ele>880.59997558594</ele>
        <time>2022-03-06T11:03:17Z</time>
      </trkpt>
      <trkpt lat="45.18809" lon="4.60045">
        <ele>877.40002441406</ele>
        <time>2022-03-06T11:03:21Z</time>
      </trkpt>
      <trkpt lat="45.18808" lon="4.60046">
        <ele>877.20001220703</ele>
        <time>2022-03-06T11:03:22Z</time>
      </trkpt>
      <trkpt lat="45.18806" lon="4.60049">
        <ele>876.79998779297</ele>
        <time>2022-03-06T11:03:23Z</time>
      </trkpt>
      <trkpt lat="45.18799" lon="4.60056">
        <ele>874.59997558594</ele>
        <time>2022-03-06T11:03:26Z</time>
      </trkpt>
      <trkpt lat="45.188" lon="4.60063">
        <ele>872.20001220703</ele>
        <time>2022-03-06T11:03:30Z</time>
      </trkpt>
      <trkpt lat="45.18798" lon="4.60074">
        <ele>870.79998779297</ele>
        <time>2022-03-06T11:03:34Z</time>
      </trkpt>
      <trkpt lat="45.18797" lon="4.60084">
        <ele>867.79998779297</ele>
        <time>2022-03-06T11:03:39Z</time>
      </trkpt>
      <trkpt lat="45.18796" lon="4.60086">
        <ele>867.40002441406</ele>
        <time>2022-03-06T11:03:40Z</time>
      </trkpt>
      <trkpt lat="45.18783" lon="4.60101">
        <ele>864.20001220703</ele>
        <time>2022-03-06T11:03:46Z</time>
      </trkpt>
      <trkpt lat="45.18769" lon="4.60115">
        <ele>860.40002441406</ele>
        <time>2022-03-06T11:03:51Z</time>
      </trkpt>
      <trkpt lat="45.18768" lon="4.60129">
        <ele>858.79998779297</ele>
        <time>2022-03-06T11:03:55Z</time>
      </trkpt>
      <trkpt lat="45.18762" lon="4.60147">
        <ele>855.79998779297</ele>
        <time>2022-03-06T11:04:01Z</time>
      </trkpt>
      <trkpt lat="45.1876" lon="4.6015">
        <ele>855.59997558594</ele>
        <time>2022-03-06T11:04:02Z</time>
      </trkpt>
      <trkpt lat="45.18759" lon="4.60152">
        <ele>855</ele>
        <time>2022-03-06T11:04:03Z</time>
      </trkpt>
      <trkpt lat="45.18748" lon="4.60174">
        <ele>852</ele>
        <time>2022-03-06T11:04:08Z</time>
      </trkpt>
      <trkpt lat="45.18747" lon="4.60178">
        <ele>851.79998779297</ele>
        <time>2022-03-06T11:04:09Z</time>
      </trkpt>
      <trkpt lat="45.18736" lon="4.60196">
        <ele>848</ele>
        <time>2022-03-06T11:04:14Z</time>
      </trkpt>
      <trkpt lat="45.18728" lon="4.60215">
        <ele>844.59997558594</ele>
        <time>2022-03-06T11:04:20Z</time>
      </trkpt>
      <trkpt lat="45.1872" lon="4.60239">
        <ele>842.59997558594</ele>
        <time>2022-03-06T11:04:25Z</time>
      </trkpt>
      <trkpt lat="45.18724" lon="4.60275">
        <ele>838.79998779297</ele>
        <time>2022-03-06T11:04:31Z</time>
      </trkpt>
      <trkpt lat="45.18722" lon="4.60279">
        <ele>838.59997558594</ele>
        <time>2022-03-06T11:04:32Z</time>
      </trkpt>
      <trkpt lat="45.18714" lon="4.60297">
        <ele>836.59997558594</ele>
        <time>2022-03-06T11:04:36Z</time>
      </trkpt>
      <trkpt lat="45.1871" lon="4.60306">
        <ele>835.40002441406</ele>
        <time>2022-03-06T11:04:38Z</time>
      </trkpt>
      <trkpt lat="45.18685" lon="4.6036">
        <ele>833</ele>
        <time>2022-03-06T11:04:47Z</time>
      </trkpt>
      <trkpt lat="45.18676" lon="4.60385">
        <ele>830.59997558594</ele>
        <time>2022-03-06T11:04:52Z</time>
      </trkpt>
      <trkpt lat="45.18675" lon="4.60396">
        <ele>829.79998779297</ele>
        <time>2022-03-06T11:04:54Z</time>
      </trkpt>
      <trkpt lat="45.18666" lon="4.60417">
        <ele>827.79998779297</ele>
        <time>2022-03-06T11:04:59Z</time>
      </trkpt>
      <trkpt lat="45.18659" lon="4.60445">
        <ele>825.79998779297</ele>
        <time>2022-03-06T11:05:04Z</time>
      </trkpt>
      <trkpt lat="45.18659" lon="4.60447">
        <ele>825.59997558594</ele>
        <time>2022-03-06T11:05:05Z</time>
      </trkpt>
      <trkpt lat="45.18647" lon="4.60468">
        <ele>824</ele>
        <time>2022-03-06T11:05:10Z</time>
      </trkpt>
      <trkpt lat="45.18639" lon="4.60493">
        <ele>822</ele>
        <time>2022-03-06T11:05:16Z</time>
      </trkpt>
      <trkpt lat="45.18624" lon="4.60537">
        <ele>818.40002441406</ele>
        <time>2022-03-06T11:05:27Z</time>
      </trkpt>
      <trkpt lat="45.18621" lon="4.60558">
        <ele>816.40002441406</ele>
        <time>2022-03-06T11:05:32Z</time>
      </trkpt>
      <trkpt lat="45.1862" lon="4.60593">
        <ele>813.79998779297</ele>
        <time>2022-03-06T11:05:38Z</time>
      </trkpt>
      <trkpt lat="45.18617" lon="4.60611">
        <ele>811.20001220703</ele>
        <time>2022-03-06T11:05:43Z</time>
      </trkpt>
      <trkpt lat="45.18616" lon="4.60614">
        <ele>810.79998779297</ele>
        <time>2022-03-06T11:05:44Z</time>
      </trkpt>
      <trkpt lat="45.18613" lon="4.60645">
        <ele>809.40002441406</ele>
        <time>2022-03-06T11:05:52Z</time>
      </trkpt>
      <trkpt lat="45.18617" lon="4.60663">
        <ele>807.59997558594</ele>
        <time>2022-03-06T11:05:57Z</time>
      </trkpt>
      <trkpt lat="45.18615" lon="4.60671">
        <ele>806.40002441406</ele>
        <time>2022-03-06T11:06:00Z</time>
      </trkpt>
      <trkpt lat="45.18612" lon="4.60686">
        <ele>805</ele>
        <time>2022-03-06T11:06:05Z</time>
      </trkpt>
      <trkpt lat="45.18613" lon="4.60691">
        <ele>804.79998779297</ele>
        <time>2022-03-06T11:06:06Z</time>
      </trkpt>
      <trkpt lat="45.18618" lon="4.60716">
        <ele>802.79998779297</ele>
        <time>2022-03-06T11:06:13Z</time>
      </trkpt>
      <trkpt lat="45.1862" lon="4.60735">
        <ele>801</ele>
        <time>2022-03-06T11:06:18Z</time>
      </trkpt>
      <trkpt lat="45.18622" lon="4.60739">
        <ele>800.59997558594</ele>
        <time>2022-03-06T11:06:19Z</time>
      </trkpt>
      <trkpt lat="45.18623" lon="4.60758">
        <ele>798.40002441406</ele>
        <time>2022-03-06T11:06:24Z</time>
      </trkpt>
      <trkpt lat="45.18624" lon="4.60782">
        <ele>795.40002441406</ele>
        <time>2022-03-06T11:06:29Z</time>
      </trkpt>
      <trkpt lat="45.18622" lon="4.60788">
        <ele>795.20001220703</ele>
        <time>2022-03-06T11:06:30Z</time>
      </trkpt>
      <trkpt lat="45.18621" lon="4.60804">
        <ele>792.40002441406</ele>
        <time>2022-03-06T11:06:35Z</time>
      </trkpt>
      <trkpt lat="45.18611" lon="4.6082">
        <ele>789.59997558594</ele>
        <time>2022-03-06T11:06:42Z</time>
      </trkpt>
      <trkpt lat="45.18594" lon="4.60841">
        <ele>788.20001220703</ele>
        <time>2022-03-06T11:06:46Z</time>
      </trkpt>
      <trkpt lat="45.1859" lon="4.60846">
        <ele>788</ele>
        <time>2022-03-06T11:06:47Z</time>
      </trkpt>
      <trkpt lat="45.18579" lon="4.6086">
        <ele>786.79998779297</ele>
        <time>2022-03-06T11:06:51Z</time>
      </trkpt>
      <trkpt lat="45.18584" lon="4.60884">
        <ele>786</ele>
        <time>2022-03-06T11:06:59Z</time>
      </trkpt>
      <trkpt lat="45.18588" lon="4.60889">
        <ele>786</ele>
        <time>2022-03-06T11:07:01Z</time>
      </trkpt>
      <trkpt lat="45.18609" lon="4.6088">
        <ele>785.79998779297</ele>
        <time>2022-03-06T11:07:09Z</time>
      </trkpt>
      <trkpt lat="45.18643" lon="4.60859">
        <ele>782.79998779297</ele>
        <time>2022-03-06T11:07:16Z</time>
      </trkpt>
      <trkpt lat="45.18684" lon="4.60847">
        <ele>779.59997558594</ele>
        <time>2022-03-06T11:07:20Z</time>
      </trkpt>
      <trkpt lat="45.18691" lon="4.60845">
        <ele>778.59997558594</ele>
        <time>2022-03-06T11:07:21Z</time>
      </trkpt>
      <trkpt lat="45.18721" lon="4.60831">
        <ele>777.40002441406</ele>
        <time>2022-03-06T11:07:25Z</time>
      </trkpt>
      <trkpt lat="45.18736" lon="4.60827">
        <ele>776.79998779297</ele>
        <time>2022-03-06T11:07:27Z</time>
      </trkpt>
      <trkpt lat="45.18757" lon="4.60839">
        <ele>774.20001220703</ele>
        <time>2022-03-06T11:07:31Z</time>
      </trkpt>
      <trkpt lat="45.18776" lon="4.60881">
        <ele>770.79998779297</ele>
        <time>2022-03-06T11:07:36Z</time>
      </trkpt>
      <trkpt lat="45.18777" lon="4.609">
        <ele>769.59997558594</ele>
        <time>2022-03-06T11:07:38Z</time>
      </trkpt>
      <trkpt lat="45.18776" lon="4.60912">
        <ele>768.20001220703</ele>
        <time>2022-03-06T11:07:39Z</time>
      </trkpt>
      <trkpt lat="45.18769" lon="4.60945">
        <ele>765.59997558594</ele>
        <time>2022-03-06T11:07:42Z</time>
      </trkpt>
      <trkpt lat="45.18782" lon="4.6099">
        <ele>763</ele>
        <time>2022-03-06T11:07:47Z</time>
      </trkpt>
      <trkpt lat="45.18808" lon="4.61016">
        <ele>763</ele>
        <time>2022-03-06T11:07:52Z</time>
      </trkpt>
      <trkpt lat="45.18817" lon="4.61032">
        <ele>763.40002441406</ele>
        <time>2022-03-06T11:07:55Z</time>
      </trkpt>
      <trkpt lat="45.1882" lon="4.6104">
        <ele>764</ele>
        <time>2022-03-06T11:07:58Z</time>
      </trkpt>
      <trkpt lat="45.18827" lon="4.61049">
        <ele>765</ele>
        <time>2022-03-06T11:08:02Z</time>
      </trkpt>
      <trkpt lat="45.18828" lon="4.6105">
        <ele>765.40002441406</ele>
        <time>2022-03-06T11:08:04Z</time>
      </trkpt>
      <trkpt lat="45.18836" lon="4.61063">
        <ele>767</ele>
        <time>2022-03-06T11:08:11Z</time>
      </trkpt>
      <trkpt lat="45.18838" lon="4.61072">
        <ele>767.79998779297</ele>
        <time>2022-03-06T11:08:16Z</time>
      </trkpt>
      <trkpt lat="45.18843" lon="4.611">
        <ele>769.40002441406</ele>
        <time>2022-03-06T11:08:24Z</time>
      </trkpt>
      <trkpt lat="45.18844" lon="4.61116">
        <ele>769.79998779297</ele>
        <time>2022-03-06T11:08:29Z</time>
      </trkpt>
      <trkpt lat="45.18841" lon="4.61128">
        <ele>770</ele>
        <time>2022-03-06T11:08:32Z</time>
      </trkpt>
      <trkpt lat="45.1884" lon="4.61147">
        <ele>771</ele>
        <time>2022-03-06T11:08:37Z</time>
      </trkpt>
      <trkpt lat="45.1884" lon="4.61168">
        <ele>772</ele>
        <time>2022-03-06T11:08:43Z</time>
      </trkpt>
      <trkpt lat="45.18839" lon="4.61175">
        <ele>772.59997558594</ele>
        <time>2022-03-06T11:08:45Z</time>
      </trkpt>
      <trkpt lat="45.18841" lon="4.61192">
        <ele>773.20001220703</ele>
        <time>2022-03-06T11:08:50Z</time>
      </trkpt>
      <trkpt lat="45.18842" lon="4.61213">
        <ele>774.40002441406</ele>
        <time>2022-03-06T11:08:56Z</time>
      </trkpt>
      <trkpt lat="45.18843" lon="4.61217">
        <ele>774.59997558594</ele>
        <time>2022-03-06T11:08:57Z</time>
      </trkpt>
      <trkpt lat="45.18839" lon="4.61239">
        <ele>775.40002441406</ele>
        <time>2022-03-06T11:09:03Z</time>
      </trkpt>
      <trkpt lat="45.18837" lon="4.61242">
        <ele>775.40002441406</ele>
        <time>2022-03-06T11:09:04Z</time>
      </trkpt>
      <trkpt lat="45.18832" lon="4.61254">
        <ele>776</ele>
        <time>2022-03-06T11:09:07Z</time>
      </trkpt>
      <trkpt lat="45.18839" lon="4.61276">
        <ele>776.59997558594</ele>
        <time>2022-03-06T11:09:14Z</time>
      </trkpt>
      <trkpt lat="45.18843" lon="4.61286">
        <ele>776.79998779297</ele>
        <time>2022-03-06T11:09:17Z</time>
      </trkpt>
      <trkpt lat="45.18847" lon="4.61332">
        <ele>777.40002441406</ele>
        <time>2022-03-06T11:09:28Z</time>
      </trkpt>
      <trkpt lat="45.18848" lon="4.61337">
        <ele>777.40002441406</ele>
        <time>2022-03-06T11:09:29Z</time>
      </trkpt>
      <trkpt lat="45.18851" lon="4.6136">
        <ele>777.59997558594</ele>
        <time>2022-03-06T11:09:33Z</time>
      </trkpt>
      <trkpt lat="45.18852" lon="4.61367">
        <ele>777.59997558594</ele>
        <time>2022-03-06T11:09:34Z</time>
      </trkpt>
      <trkpt lat="45.18862" lon="4.6143">
        <ele>776.79998779297</ele>
        <time>2022-03-06T11:09:45Z</time>
      </trkpt>
      <trkpt lat="45.18865" lon="4.61438">
        <ele>776.59997558594</ele>
        <time>2022-03-06T11:09:47Z</time>
      </trkpt>
      <trkpt lat="45.18892" lon="4.61479">
        <ele>777</ele>
        <time>2022-03-06T11:10:00Z</time>
      </trkpt>
      <trkpt lat="45.18907" lon="4.6153">
        <ele>778</ele>
        <time>2022-03-06T11:10:12Z</time>
      </trkpt>
      <trkpt lat="45.18924" lon="4.61568">
        <ele>778.59997558594</ele>
        <time>2022-03-06T11:10:22Z</time>
      </trkpt>
      <trkpt lat="45.18938" lon="4.61589">
        <ele>779.20001220703</ele>
        <time>2022-03-06T11:10:27Z</time>
      </trkpt>
      <trkpt lat="45.1894" lon="4.61597">
        <ele>780</ele>
        <time>2022-03-06T11:10:30Z</time>
      </trkpt>
      <trkpt lat="45.1895" lon="4.61617">
        <ele>780.59997558594</ele>
        <time>2022-03-06T11:10:34Z</time>
      </trkpt>
      <trkpt lat="45.18954" lon="4.61621">
        <ele>780.79998779297</ele>
        <time>2022-03-06T11:10:35Z</time>
      </trkpt>
      <trkpt lat="45.18964" lon="4.61641">
        <ele>781.79998779297</ele>
        <time>2022-03-06T11:10:40Z</time>
      </trkpt>
      <trkpt lat="45.18966" lon="4.61644">
        <ele>782</ele>
        <time>2022-03-06T11:10:41Z</time>
      </trkpt>
      <trkpt lat="45.18969" lon="4.61651">
        <ele>783</ele>
        <time>2022-03-06T11:10:46Z</time>
      </trkpt>
      <trkpt lat="45.18976" lon="4.61661">
        <ele>784.20001220703</ele>
        <time>2022-03-06T11:10:50Z</time>
      </trkpt>
      <trkpt lat="45.18979" lon="4.61664">
        <ele>784.79998779297</ele>
        <time>2022-03-06T11:10:53Z</time>
      </trkpt>
      <trkpt lat="45.18984" lon="4.61678">
        <ele>785.79998779297</ele>
        <time>2022-03-06T11:10:58Z</time>
      </trkpt>
      <trkpt lat="45.18986" lon="4.61681">
        <ele>786</ele>
        <time>2022-03-06T11:10:59Z</time>
      </trkpt>
      <trkpt lat="45.18996" lon="4.61699">
        <ele>787</ele>
        <time>2022-03-06T11:11:05Z</time>
      </trkpt>
      <trkpt lat="45.18998" lon="4.61715">
        <ele>788.20001220703</ele>
        <time>2022-03-06T11:11:11Z</time>
      </trkpt>
      <trkpt lat="45.18996" lon="4.61719">
        <ele>788.40002441406</ele>
        <time>2022-03-06T11:11:12Z</time>
      </trkpt>
      <trkpt lat="45.18992" lon="4.61725">
        <ele>788.20001220703</ele>
        <time>2022-03-06T11:11:13Z</time>
      </trkpt>
      <trkpt lat="45.18993" lon="4.61754">
        <ele>788.40002441406</ele>
        <time>2022-03-06T11:11:18Z</time>
      </trkpt>
      <trkpt lat="45.18975" lon="4.61798">
        <ele>787.40002441406</ele>
        <time>2022-03-06T11:11:23Z</time>
      </trkpt>
      <trkpt lat="45.18965" lon="4.61816">
        <ele>787</ele>
        <time>2022-03-06T11:11:25Z</time>
      </trkpt>
      <trkpt lat="45.18969" lon="4.61857">
        <ele>785.59997558594</ele>
        <time>2022-03-06T11:11:30Z</time>
      </trkpt>
      <trkpt lat="45.18981" lon="4.61894">
        <ele>784.59997558594</ele>
        <time>2022-03-06T11:11:33Z</time>
      </trkpt>
      <trkpt lat="45.18985" lon="4.61902">
        <ele>784.20001220703</ele>
        <time>2022-03-06T11:11:34Z</time>
      </trkpt>
      <trkpt lat="45.18989" lon="4.61911">
        <ele>784</ele>
        <time>2022-03-06T11:11:35Z</time>
      </trkpt>
      <trkpt lat="45.1899" lon="4.61967">
        <ele>780.79998779297</ele>
        <time>2022-03-06T11:11:40Z</time>
      </trkpt>
      <trkpt lat="45.18989" lon="4.61981">
        <ele>780</ele>
        <time>2022-03-06T11:11:41Z</time>
      </trkpt>
      <trkpt lat="45.18992" lon="4.61994">
        <ele>779.79998779297</ele>
        <time>2022-03-06T11:11:42Z</time>
      </trkpt>
      <trkpt lat="45.18996" lon="4.62005">
        <ele>779.59997558594</ele>
        <time>2022-03-06T11:11:43Z</time>
      </trkpt>
      <trkpt lat="45.19" lon="4.6203">
        <ele>778.40002441406</ele>
        <time>2022-03-06T11:11:45Z</time>
      </trkpt>
      <trkpt lat="45.19" lon="4.62041">
        <ele>778.20001220703</ele>
        <time>2022-03-06T11:11:46Z</time>
      </trkpt>
      <trkpt lat="45.18998" lon="4.62092">
        <ele>776</ele>
        <time>2022-03-06T11:11:50Z</time>
      </trkpt>
      <trkpt lat="45.19002" lon="4.62159">
        <ele>772</ele>
        <time>2022-03-06T11:11:56Z</time>
      </trkpt>
      <trkpt lat="45.19023" lon="4.62234">
        <ele>769.40002441406</ele>
        <time>2022-03-06T11:12:02Z</time>
      </trkpt>
      <trkpt lat="45.19024" lon="4.62246">
        <ele>769</ele>
        <time>2022-03-06T11:12:03Z</time>
      </trkpt>
      <trkpt lat="45.19028" lon="4.62297">
        <ele>767</ele>
        <time>2022-03-06T11:12:07Z</time>
      </trkpt>
      <trkpt lat="45.19045" lon="4.62342">
        <ele>763.59997558594</ele>
        <time>2022-03-06T11:12:11Z</time>
      </trkpt>
      <trkpt lat="45.19058" lon="4.62377">
        <ele>760.20001220703</ele>
        <time>2022-03-06T11:12:15Z</time>
      </trkpt>
      <trkpt lat="45.19066" lon="4.62398">
        <ele>757.79998779297</ele>
        <time>2022-03-06T11:12:18Z</time>
      </trkpt>
      <trkpt lat="45.19088" lon="4.62435">
        <ele>754.79998779297</ele>
        <time>2022-03-06T11:12:23Z</time>
      </trkpt>
      <trkpt lat="45.19105" lon="4.62449">
        <ele>753.79998779297</ele>
        <time>2022-03-06T11:12:25Z</time>
      </trkpt>
      <trkpt lat="45.19129" lon="4.62464">
        <ele>751.40002441406</ele>
        <time>2022-03-06T11:12:28Z</time>
      </trkpt>
      <trkpt lat="45.19149" lon="4.62484">
        <ele>748</ele>
        <time>2022-03-06T11:12:31Z</time>
      </trkpt>
      <trkpt lat="45.19156" lon="4.6249">
        <ele>747.20001220703</ele>
        <time>2022-03-06T11:12:32Z</time>
      </trkpt>
      <trkpt lat="45.1917" lon="4.62508">
        <ele>745.59997558594</ele>
        <time>2022-03-06T11:12:35Z</time>
      </trkpt>
      <trkpt lat="45.19181" lon="4.62523">
        <ele>745.40002441406</ele>
        <time>2022-03-06T11:12:38Z</time>
      </trkpt>
      <trkpt lat="45.19188" lon="4.62537">
        <ele>745.79998779297</ele>
        <time>2022-03-06T11:12:41Z</time>
      </trkpt>
      <trkpt lat="45.19186" lon="4.62598">
        <ele>744</ele>
        <time>2022-03-06T11:12:50Z</time>
      </trkpt>
      <trkpt lat="45.19163" lon="4.62599">
        <ele>740.20001220703</ele>
        <time>2022-03-06T11:12:55Z</time>
      </trkpt>
      <trkpt lat="45.19114" lon="4.6258">
        <ele>737.40002441406</ele>
        <time>2022-03-06T11:13:02Z</time>
      </trkpt>
      <trkpt lat="45.19105" lon="4.62574">
        <ele>737</ele>
        <time>2022-03-06T11:13:03Z</time>
      </trkpt>
      <trkpt lat="45.1909" lon="4.62556">
        <ele>736</ele>
        <time>2022-03-06T11:13:06Z</time>
      </trkpt>
      <trkpt lat="45.19057" lon="4.62524">
        <ele>733</ele>
        <time>2022-03-06T11:13:11Z</time>
      </trkpt>
      <trkpt lat="45.19052" lon="4.62523">
        <ele>732.40002441406</ele>
        <time>2022-03-06T11:13:12Z</time>
      </trkpt>
      <trkpt lat="45.1904" lon="4.62522">
        <ele>731.59997558594</ele>
        <time>2022-03-06T11:13:14Z</time>
      </trkpt>
      <trkpt lat="45.19025" lon="4.62528">
        <ele>728</ele>
        <time>2022-03-06T11:13:17Z</time>
      </trkpt>
      <trkpt lat="45.19012" lon="4.6254">
        <ele>726</ele>
        <time>2022-03-06T11:13:19Z</time>
      </trkpt>
      <trkpt lat="45.19002" lon="4.62548">
        <ele>725</ele>
        <time>2022-03-06T11:13:21Z</time>
      </trkpt>
      <trkpt lat="45.18976" lon="4.62576">
        <ele>722</ele>
        <time>2022-03-06T11:13:26Z</time>
      </trkpt>
      <trkpt lat="45.1897" lon="4.62584">
        <ele>721.79998779297</ele>
        <time>2022-03-06T11:13:27Z</time>
      </trkpt>
      <trkpt lat="45.18958" lon="4.62598">
        <ele>720.20001220703</ele>
        <time>2022-03-06T11:13:29Z</time>
      </trkpt>
      <trkpt lat="45.18948" lon="4.62617">
        <ele>717.79998779297</ele>
        <time>2022-03-06T11:13:31Z</time>
      </trkpt>
      <trkpt lat="45.18938" lon="4.62654">
        <ele>716.79998779297</ele>
        <time>2022-03-06T11:13:34Z</time>
      </trkpt>
      <trkpt lat="45.18931" lon="4.62692">
        <ele>714</ele>
        <time>2022-03-06T11:13:38Z</time>
      </trkpt>
      <trkpt lat="45.18924" lon="4.62713">
        <ele>712.79998779297</ele>
        <time>2022-03-06T11:13:40Z</time>
      </trkpt>
      <trkpt lat="45.18923" lon="4.62723">
        <ele>712.59997558594</ele>
        <time>2022-03-06T11:13:41Z</time>
      </trkpt>
      <trkpt lat="45.18922" lon="4.62733">
        <ele>711.59997558594</ele>
        <time>2022-03-06T11:13:42Z</time>
      </trkpt>
      <trkpt lat="45.18909" lon="4.62758">
        <ele>707.79998779297</ele>
        <time>2022-03-06T11:13:45Z</time>
      </trkpt>
      <trkpt lat="45.18888" lon="4.62791">
        <ele>703.79998779297</ele>
        <time>2022-03-06T11:13:50Z</time>
      </trkpt>
      <trkpt lat="45.18875" lon="4.628">
        <ele>700.79998779297</ele>
        <time>2022-03-06T11:13:55Z</time>
      </trkpt>
      <trkpt lat="45.18875" lon="4.62803">
        <ele>699.79998779297</ele>
        <time>2022-03-06T11:13:57Z</time>
      </trkpt>
      <trkpt lat="45.18875" lon="4.62803">
        <ele>697.79998779297</ele>
        <time>2022-03-06T11:14:05Z</time>
      </trkpt>
      <trkpt lat="45.18875" lon="4.62801">
        <ele>697.59997558594</ele>
        <time>2022-03-06T11:14:57Z</time>
      </trkpt>
      <trkpt lat="45.18871" lon="4.62799">
        <ele>697.59997558594</ele>
        <time>2022-03-06T11:15:42Z</time>
      </trkpt>
      <trkpt lat="45.18875" lon="4.62799">
        <ele>698</ele>
        <time>2022-03-06T11:15:53Z</time>
      </trkpt>
      <trkpt lat="45.1889" lon="4.62795">
        <ele>698.20001220703</ele>
        <time>2022-03-06T11:16:00Z</time>
      </trkpt>
      <trkpt lat="45.189" lon="4.62782">
        <ele>699.79998779297</ele>
        <time>2022-03-06T11:16:09Z</time>
      </trkpt>
      <trkpt lat="45.18902" lon="4.62783">
        <ele>700.79998779297</ele>
        <time>2022-03-06T11:16:14Z</time>
      </trkpt>
      <trkpt lat="45.18895" lon="4.62789">
        <ele>701</ele>
        <time>2022-03-06T11:16:20Z</time>
      </trkpt>
      <trkpt lat="45.18868" lon="4.62802">
        <ele>699.40002441406</ele>
        <time>2022-03-06T11:16:31Z</time>
      </trkpt>
      <trkpt lat="45.18835" lon="4.62802">
        <ele>696.20001220703</ele>
        <time>2022-03-06T11:16:41Z</time>
      </trkpt>
      <trkpt lat="45.18836" lon="4.62803">
        <ele>693.59997558594</ele>
        <time>2022-03-06T11:16:50Z</time>
      </trkpt>
      <trkpt lat="45.18836" lon="4.62803">
        <ele>693.59997558594</ele>
        <time>2022-03-06T11:16:51Z</time>
      </trkpt>
      <trkpt lat="45.18836" lon="4.62803">
        <ele>693.59997558594</ele>
        <time>2022-03-06T11:17:10Z</time>
      </trkpt>
      <trkpt lat="45.18838" lon="4.62813">
        <ele>691.20001220703</ele>
        <time>2022-03-06T11:17:18Z</time>
      </trkpt>
      <trkpt lat="45.18838" lon="4.62816">
        <ele>691</ele>
        <time>2022-03-06T11:17:19Z</time>
      </trkpt>
      <trkpt lat="45.18841" lon="4.62824">
        <ele>688</ele>
        <time>2022-03-06T11:17:22Z</time>
      </trkpt>
      <trkpt lat="45.18841" lon="4.62827">
        <ele>687.40002441406</ele>
        <time>2022-03-06T11:17:23Z</time>
      </trkpt>
      <trkpt lat="45.18831" lon="4.62837">
        <ele>684.40002441406</ele>
        <time>2022-03-06T11:17:28Z</time>
      </trkpt>
      <trkpt lat="45.18825" lon="4.62842">
        <ele>683.20001220703</ele>
        <time>2022-03-06T11:17:30Z</time>
      </trkpt>
      <trkpt lat="45.18812" lon="4.6285">
        <ele>681.59997558594</ele>
        <time>2022-03-06T11:17:33Z</time>
      </trkpt>
      <trkpt lat="45.18794" lon="4.62879">
        <ele>677.59997558594</ele>
        <time>2022-03-06T11:17:41Z</time>
      </trkpt>
      <trkpt lat="45.18792" lon="4.62882">
        <ele>676.79998779297</ele>
        <time>2022-03-06T11:17:42Z</time>
      </trkpt>
      <trkpt lat="45.1879" lon="4.62885">
        <ele>676.20001220703</ele>
        <time>2022-03-06T11:17:43Z</time>
      </trkpt>
      <trkpt lat="45.18775" lon="4.62902">
        <ele>672.59997558594</ele>
        <time>2022-03-06T11:17:48Z</time>
      </trkpt>
      <trkpt lat="45.18779" lon="4.62911">
        <ele>669.59997558594</ele>
        <time>2022-03-06T11:17:52Z</time>
      </trkpt>
      <trkpt lat="45.18798" lon="4.62922">
        <ele>666.79998779297</ele>
        <time>2022-03-06T11:17:57Z</time>
      </trkpt>
      <trkpt lat="45.18824" lon="4.62935">
        <ele>664.79998779297</ele>
        <time>2022-03-06T11:18:02Z</time>
      </trkpt>
      <trkpt lat="45.18862" lon="4.62956">
        <ele>661</ele>
        <time>2022-03-06T11:18:09Z</time>
      </trkpt>
      <trkpt lat="45.1887" lon="4.6296">
        <ele>660.79998779297</ele>
        <time>2022-03-06T11:18:10Z</time>
      </trkpt>
      <trkpt lat="45.18893" lon="4.62954">
        <ele>657.79998779297</ele>
        <time>2022-03-06T11:18:15Z</time>
      </trkpt>
      <trkpt lat="45.18899" lon="4.62952">
        <ele>656.79998779297</ele>
        <time>2022-03-06T11:18:16Z</time>
      </trkpt>
      <trkpt lat="45.18904" lon="4.6295">
        <ele>656</ele>
        <time>2022-03-06T11:18:18Z</time>
      </trkpt>
      <trkpt lat="45.18934" lon="4.62957">
        <ele>654</ele>
        <time>2022-03-06T11:18:26Z</time>
      </trkpt>
      <trkpt lat="45.18945" lon="4.62961">
        <ele>653.40002441406</ele>
        <time>2022-03-06T11:18:28Z</time>
      </trkpt>
      <trkpt lat="45.1895" lon="4.62962">
        <ele>653.20001220703</ele>
        <time>2022-03-06T11:18:29Z</time>
      </trkpt>
      <trkpt lat="45.18966" lon="4.62966">
        <ele>651.59997558594</ele>
        <time>2022-03-06T11:18:32Z</time>
      </trkpt>
      <trkpt lat="45.18983" lon="4.62971">
        <ele>648.40002441406</ele>
        <time>2022-03-06T11:18:35Z</time>
      </trkpt>
      <trkpt lat="45.1899" lon="4.62972">
        <ele>645</ele>
        <time>2022-03-06T11:18:37Z</time>
      </trkpt>
      <trkpt lat="45.19005" lon="4.62976">
        <ele>640</ele>
        <time>2022-03-06T11:18:40Z</time>
      </trkpt>
      <trkpt lat="45.19035" lon="4.62987">
        <ele>636</ele>
        <time>2022-03-06T11:18:44Z</time>
      </trkpt>
      <trkpt lat="45.19048" lon="4.62989">
        <ele>632.40002441406</ele>
        <time>2022-03-06T11:18:47Z</time>
      </trkpt>
      <trkpt lat="45.19052" lon="4.62988">
        <ele>630.40002441406</ele>
        <time>2022-03-06T11:18:49Z</time>
      </trkpt>
      <trkpt lat="45.19061" lon="4.62992">
        <ele>627.40002441406</ele>
        <time>2022-03-06T11:18:51Z</time>
      </trkpt>
      <trkpt lat="45.19067" lon="4.62995">
        <ele>625.79998779297</ele>
        <time>2022-03-06T11:18:52Z</time>
      </trkpt>
      <trkpt lat="45.19084" lon="4.63004">
        <ele>623.20001220703</ele>
        <time>2022-03-06T11:18:56Z</time>
      </trkpt>
      <trkpt lat="45.19106" lon="4.63011">
        <ele>619.79998779297</ele>
        <time>2022-03-06T11:19:00Z</time>
      </trkpt>
      <trkpt lat="45.19119" lon="4.63025">
        <ele>617.59997558594</ele>
        <time>2022-03-06T11:19:02Z</time>
      </trkpt>
      <trkpt lat="45.19125" lon="4.63031">
        <ele>616.40002441406</ele>
        <time>2022-03-06T11:19:03Z</time>
      </trkpt>
      <trkpt lat="45.19139" lon="4.63047">
        <ele>613.40002441406</ele>
        <time>2022-03-06T11:19:06Z</time>
      </trkpt>
      <trkpt lat="45.19142" lon="4.63052">
        <ele>613.20001220703</ele>
        <time>2022-03-06T11:19:07Z</time>
      </trkpt>
      <trkpt lat="45.19142" lon="4.63072">
        <ele>610.59997558594</ele>
        <time>2022-03-06T11:19:11Z</time>
      </trkpt>
      <trkpt lat="45.19141" lon="4.63083">
        <ele>607.59997558594</ele>
        <time>2022-03-06T11:19:13Z</time>
      </trkpt>
      <trkpt lat="45.19142" lon="4.63088">
        <ele>606.79998779297</ele>
        <time>2022-03-06T11:19:14Z</time>
      </trkpt>
      <trkpt lat="45.19148" lon="4.63103">
        <ele>602.59997558594</ele>
        <time>2022-03-06T11:19:17Z</time>
      </trkpt>
      <trkpt lat="45.19148" lon="4.63111">
        <ele>599.59997558594</ele>
        <time>2022-03-06T11:19:20Z</time>
      </trkpt>
      <trkpt lat="45.19148" lon="4.63113">
        <ele>599.40002441406</ele>
        <time>2022-03-06T11:19:21Z</time>
      </trkpt>
      <trkpt lat="45.19147" lon="4.63115">
        <ele>598</ele>
        <time>2022-03-06T11:19:22Z</time>
      </trkpt>
      <trkpt lat="45.19133" lon="4.63121">
        <ele>594.40002441406</ele>
        <time>2022-03-06T11:19:29Z</time>
      </trkpt>
      <trkpt lat="45.19133" lon="4.63127">
        <ele>593.40002441406</ele>
        <time>2022-03-06T11:19:31Z</time>
      </trkpt>
      <trkpt lat="45.19139" lon="4.63141">
        <ele>590.20001220703</ele>
        <time>2022-03-06T11:19:35Z</time>
      </trkpt>
      <trkpt lat="45.19155" lon="4.6315">
        <ele>587.59997558594</ele>
        <time>2022-03-06T11:19:40Z</time>
      </trkpt>
      <trkpt lat="45.19154" lon="4.63162">
        <ele>583.20001220703</ele>
        <time>2022-03-06T11:19:45Z</time>
      </trkpt>
      <trkpt lat="45.19149" lon="4.63164">
        <ele>582.20001220703</ele>
        <time>2022-03-06T11:19:47Z</time>
      </trkpt>
      <trkpt lat="45.19129" lon="4.63171">
        <ele>578.40002441406</ele>
        <time>2022-03-06T11:19:53Z</time>
      </trkpt>
      <trkpt lat="45.19109" lon="4.63177">
        <ele>574.59997558594</ele>
        <time>2022-03-06T11:19:59Z</time>
      </trkpt>
      <trkpt lat="45.19106" lon="4.63181">
        <ele>573</ele>
        <time>2022-03-06T11:20:00Z</time>
      </trkpt>
      <trkpt lat="45.19086" lon="4.63195">
        <ele>569.20001220703</ele>
        <time>2022-03-06T11:20:04Z</time>
      </trkpt>
      <trkpt lat="45.19072" lon="4.63203">
        <ele>568</ele>
        <time>2022-03-06T11:20:07Z</time>
      </trkpt>
      <trkpt lat="45.19038" lon="4.63227">
        <ele>565.79998779297</ele>
        <time>2022-03-06T11:20:13Z</time>
      </trkpt>
      <trkpt lat="45.19003" lon="4.63248">
        <ele>562.59997558594</ele>
        <time>2022-03-06T11:20:18Z</time>
      </trkpt>
      <trkpt lat="45.18973" lon="4.63261">
        <ele>560.20001220703</ele>
        <time>2022-03-06T11:20:22Z</time>
      </trkpt>
      <trkpt lat="45.18957" lon="4.63284">
        <ele>557</ele>
        <time>2022-03-06T11:20:26Z</time>
      </trkpt>
      <trkpt lat="45.18952" lon="4.63297">
        <ele>556</ele>
        <time>2022-03-06T11:20:28Z</time>
      </trkpt>
      <trkpt lat="45.18947" lon="4.63312">
        <ele>554.79998779297</ele>
        <time>2022-03-06T11:20:30Z</time>
      </trkpt>
      <trkpt lat="45.18961" lon="4.63353">
        <ele>552.20001220703</ele>
        <time>2022-03-06T11:20:38Z</time>
      </trkpt>
      <trkpt lat="45.18983" lon="4.63338">
        <ele>550</ele>
        <time>2022-03-06T11:20:41Z</time>
      </trkpt>
      <trkpt lat="45.18991" lon="4.63333">
        <ele>549.59997558594</ele>
        <time>2022-03-06T11:20:42Z</time>
      </trkpt>
      <trkpt lat="45.19015" lon="4.63319">
        <ele>547.79998779297</ele>
        <time>2022-03-06T11:20:45Z</time>
      </trkpt>
      <trkpt lat="45.19057" lon="4.63325">
        <ele>544.59997558594</ele>
        <time>2022-03-06T11:20:50Z</time>
      </trkpt>
      <trkpt lat="45.19065" lon="4.63331">
        <ele>543.79998779297</ele>
        <time>2022-03-06T11:20:51Z</time>
      </trkpt>
      <trkpt lat="45.19074" lon="4.63337">
        <ele>543.59997558594</ele>
        <time>2022-03-06T11:20:52Z</time>
      </trkpt>
      <trkpt lat="45.19104" lon="4.63344">
        <ele>540.59997558594</ele>
        <time>2022-03-06T11:20:56Z</time>
      </trkpt>
      <trkpt lat="45.19109" lon="4.63348">
        <ele>540.40002441406</ele>
        <time>2022-03-06T11:20:57Z</time>
      </trkpt>
      <trkpt lat="45.19105" lon="4.63367">
        <ele>537.40002441406</ele>
        <time>2022-03-06T11:21:00Z</time>
      </trkpt>
      <trkpt lat="45.19101" lon="4.63375">
        <ele>536</ele>
        <time>2022-03-06T11:21:01Z</time>
      </trkpt>
      <trkpt lat="45.19077" lon="4.63412">
        <ele>532.79998779297</ele>
        <time>2022-03-06T11:21:05Z</time>
      </trkpt>
      <trkpt lat="45.19063" lon="4.6343">
        <ele>531.20001220703</ele>
        <time>2022-03-06T11:21:07Z</time>
      </trkpt>
      <trkpt lat="45.19015" lon="4.63465">
        <ele>527.40002441406</ele>
        <time>2022-03-06T11:21:12Z</time>
      </trkpt>
      <trkpt lat="45.1896" lon="4.63489">
        <ele>523.20001220703</ele>
        <time>2022-03-06T11:21:17Z</time>
      </trkpt>
      <trkpt lat="45.18924" lon="4.63504">
        <ele>521</ele>
        <time>2022-03-06T11:21:20Z</time>
      </trkpt>
      <trkpt lat="45.189" lon="4.6352">
        <ele>517</ele>
        <time>2022-03-06T11:21:22Z</time>
      </trkpt>
      <trkpt lat="45.18875" lon="4.6354">
        <ele>514</ele>
        <time>2022-03-06T11:21:24Z</time>
      </trkpt>
      <trkpt lat="45.18864" lon="4.6355">
        <ele>513</ele>
        <time>2022-03-06T11:21:25Z</time>
      </trkpt>
      <trkpt lat="45.18842" lon="4.63566">
        <ele>510</ele>
        <time>2022-03-06T11:21:27Z</time>
      </trkpt>
      <trkpt lat="45.18819" lon="4.63574">
        <ele>505.60000610352</ele>
        <time>2022-03-06T11:21:29Z</time>
      </trkpt>
      <trkpt lat="45.18804" lon="4.63595">
        <ele>502.60000610352</ele>
        <time>2022-03-06T11:21:31Z</time>
      </trkpt>
      <trkpt lat="45.18795" lon="4.63623">
        <ele>499.20001220703</ele>
        <time>2022-03-06T11:21:33Z</time>
      </trkpt>
      <trkpt lat="45.18778" lon="4.63654">
        <ele>495.60000610352</ele>
        <time>2022-03-06T11:21:36Z</time>
      </trkpt>
      <trkpt lat="45.1875" lon="4.63672">
        <ele>492.39999389648</ele>
        <time>2022-03-06T11:21:40Z</time>
      </trkpt>
      <trkpt lat="45.18735" lon="4.63687">
        <ele>491.20001220703</ele>
        <time>2022-03-06T11:21:43Z</time>
      </trkpt>
      <trkpt lat="45.18734" lon="4.63691">
        <ele>491</ele>
        <time>2022-03-06T11:21:44Z</time>
      </trkpt>
      <trkpt lat="45.18732" lon="4.63697">
        <ele>490.60000610352</ele>
        <time>2022-03-06T11:21:46Z</time>
      </trkpt>
      <trkpt lat="45.18738" lon="4.63698">
        <ele>488.79998779297</ele>
        <time>2022-03-06T11:21:50Z</time>
      </trkpt>
      <trkpt lat="45.18742" lon="4.63695">
        <ele>488.39999389648</ele>
        <time>2022-03-06T11:21:54Z</time>
      </trkpt>
      <trkpt lat="45.18745" lon="4.63697">
        <ele>488.60000610352</ele>
        <time>2022-03-06T11:22:11Z</time>
      </trkpt>
      <trkpt lat="45.18745" lon="4.63697">
        <ele>488</ele>
        <time>2022-03-06T11:22:32Z</time>
      </trkpt>
    </trkseg>
  </trk>
</gpx>